[[[{"header":{"parameterUnit":"kt","parameterCategory":2,"dx":1,"dy":1,"la1":29.587661999999998,"la2":31.0,"lo1":-88.76705300000003,"lo2":-86.6583820000003,"nx":115,"ny":88,"refTime":"2022-10-07T12:00:00:Z","depth":0,"parameterNumber":1,"parameterNumberName":"U-component_of_WINDS"},"data":[11.2747,11.2879,11.4426,11.5972,11.747,11.8992,11.9942,12.0115,12.0247,12.1078,12.1866,12.1551,12.3328,12.7753,12.7636,12.8362,12.9874,13.0003,13.073,13.1457,13.1528,13.1599,13.1599,13.1599,13.1599,13.1599,13.1599,13.1599,13.1457,13.1457,13.1528,13.1301,12.9802,12.8505,12.7065,12.5366,12.3796,12.2999,12.2344,12.1346,12.0632,11.892,11.6851,11.5365,11.3806,11.3033,11.2747,11.2747,11.2747,11.2747,11.2665,11.211,11.1588,11.1029,11.1144,11.1381,11.0941,11.1512,11.2308,11.2676,11.2747,11.2747,11.2747,11.2747,11.2747,11.2747,11.2747,11.2747,11.2747,11.2747,11.2747,11.2747,11.2747,11.2747,11.2747,11.2747,11.2747,11.2747,11.2747,11.2747,11.2747,11.2747,11.2747,11.2747,11.2747,11.2747,11.2747,11.2747,11.2747,11.2747,11.2747,11.2747,11.2747,11.3323,11.4183,11.4476,11.4737,11.5031,11.5005,11.3915,11.3134,11.2869,11.3018,11.3313,11.3791,11.4407,11.5169,11.5692,11.6356,11.6815,11.6201,11.6051,11.6781,11.7459,11.7844,11.2747,11.295,11.4497,11.5995,11.7505,11.9098,12.0524,12.1564,12.1719,12.2703,12.4005,12.3946,12.6829,12.9147,12.9802,13.0373,13.0743,13.0801,13.1087,13.1528,13.1599,13.1599,13.1599,13.1599,13.1599,13.1599,13.1599,13.1599,13.1599,13.1599,13.1457,13.1229,13.0302,12.916,12.8148,12.6448,12.4522,12.3796,12.2927,12.1643,12.0074,11.829,11.7576,11.6221,11.4531,11.289,11.2747,11.2747,11.2747,11.2747,11.2665,11.2297,11.1798,11.1144,11.1392,11.1452,11.1084,11.1595,11.2308,11.2747,11.2747,11.2747,11.2747,11.2747,11.2747,11.2747,11.2747,11.2747,11.2747,11.2747,11.2747,11.2747,11.2747,11.2747,11.2747,11.2747,11.2747,11.2747,11.2747,11.2747,11.2747,11.2747,11.2747,11.2747,11.2747,11.2747,11.2747,11.2747,11.2747,11.2747,11.2747,11.2747,11.2747,11.3749,11.4991,11.5345,11.5479,11.5783,11.5823,11.4446,11.335,11.2991,11.2953,11.3441,11.4212,11.4858,11.5578,11.6371,11.71,11.7791,11.7344,11.7217,11.7689,11.7689,11.7919,11.2747,11.3022,11.5293,11.6792,11.7802,12.0002,12.1417,12.1988,12.2059,12.3498,12.5722,12.615,12.8018,13.0873,13.0873,13.1087,13.1385,13.1599,13.1599,13.1599,13.1599,13.1599,13.1599,13.1599,13.1671,13.1599,13.1599,13.1599,13.1599,13.1599,13.1599,13.1457,13.11,13.0159,12.9017,12.8077,12.652,12.4736,12.3938,12.3309,12.275,12.0157,11.8504,11.7006,11.5376,11.3806,11.3236,11.2747,11.2747,11.2747,11.2747,11.2484,11.1694,11.1496,11.1595,11.1523,11.1666,11.2023,11.2462,11.2747,11.2747,11.2747,11.2747,11.2747,11.2747,11.2747,11.2747,11.2747,11.2747,11.2747,11.2747,11.2747,11.2747,11.2747,11.2747,11.2747,11.2747,11.2747,11.2747,11.2747,11.2747,11.2747,11.2747,11.2747,11.283,11.283,11.2747,11.2747,11.2747,11.2747,11.2747,11.2747,11.2747,11.3504,11.4967,11.5624,11.6009,11.6469,11.6822,11.5647,11.4566,11.3654,11.2887,11.3399,11.4096,11.5035,11.6086,11.6985,11.7672,11.8011,11.8132,11.8149,11.8149,11.8074,11.8149,11.2747,11.2961,11.5293,11.6792,11.7802,12.0775,12.2059,12.2059,12.2059,12.3843,12.6482,12.7124,12.8648,13.1314,13.1385,13.1385,13.1599,13.1599,13.1599,13.1599,13.1599,13.1599,13.1599,13.2086,13.1956,13.1885,13.1956,13.2086,13.1742,13.1599,13.1599,13.1599,13.1457,13.1028,13.0016,12.916,12.8006,12.6436,12.5508,12.4878,12.382,12.1453,11.9015,11.7434,11.5853,11.4223,11.3164,11.2747,11.2747,11.2747,11.2747,11.2111,11.1028,11.1743,11.1463,11.087,11.1381,11.1639,11.2078,11.2364,11.2616,11.2747,11.2747,11.2747,11.2747,11.2747,11.2747,11.2747,11.2747,11.2747,11.2747,11.2747,11.2747,11.2747,11.2747,11.2747,11.2747,11.2747,11.2747,11.2747,11.2747,11.2747,11.283,11.283,11.2912,11.2863,11.2886,11.2912,11.2995,11.2814,11.2825,11.2759,11.2759,11.3411,11.4747,11.569,11.6363,11.6867,11.7016,11.6553,11.5913,11.4668,11.3448,11.3739,11.4168,11.5195,11.6244,11.7278,11.7837,11.8091,11.8149,11.8149,11.8149,11.8149,11.8149,11.2747,11.2819,11.3022,11.4865,11.7648,12.0704,12.2059,12.2059,12.2202,12.3914,12.6482,12.6981,12.879,13.1171,13.1599,13.1599,13.1599,13.1599,13.1599,13.1658,13.1943,13.2242,13.2514,13.2942,13.3156,13.2728,13.2728,13.3299,13.217,13.1885,13.1943,13.1599,13.1599,13.1457,13.0886,13.0088,12.9374,12.8148,12.7363,12.6079,12.4308,12.1822,11.9027,11.7576,11.6067,11.4486,11.3307,11.2747,11.2747,11.2747,11.2747,11.2747,11.1924,11.1737,11.1084,11.0859,11.1084,11.1364,11.1634,11.2232,11.2616,11.2747,11.2747,11.2747,11.2747,11.2747,11.2747,11.2747,11.2747,11.2747,11.2747,11.2747,11.2747,11.2747,11.2747,11.2747,11.2747,11.2747,11.2747,11.2747,11.2747,11.2747,11.283,11.3397,11.3479,11.3206,11.3206,11.3359,11.3287,11.2914,11.287,11.277,11.303,11.3636,11.485,11.5895,11.6618,11.7068,11.7137,11.6835,11.6303,11.5294,11.4049,11.4204,11.453,11.5548,11.6257,11.7353,11.8097,11.8149,11.8149,11.8149,11.8149,11.8149,11.8149,11.2747,11.2747,11.2747,11.452,11.7636,12.0704,12.2059,12.2285,12.3141,12.4782,12.691,12.7922,12.9504,13.1385,13.1599,13.1599,13.1599,13.1599,13.217,13.2514,13.3072,13.337,13.4226,13.5011,13.4726,13.4869,13.494,13.494,13.4512,13.3798,13.3,13.2942,13.1885,13.1742,13.1457,13.1015,13.0587,13.0016,12.9076,12.7565,12.5936,12.3951,12.1239,11.9229,11.7445,11.5853,11.4426,11.3093,11.2819,11.2747,11.2747,11.2747,11.2522,11.2237,11.1809,11.1655,11.1655,11.165,11.1612,11.2342,11.2616,11.2747,11.2747,11.2747,11.2747,11.2747,11.2747,11.2747,11.2747,11.2747,11.2747,11.2747,11.2747,11.2747,11.2747,11.2747,11.2747,11.2747,11.2747,11.2747,11.2747,11.2747,11.3078,11.3716,11.3943,11.3708,11.3721,11.4025,11.3999,11.3528,11.3299,11.3073,11.3389,11.3874,11.4932,11.6016,11.6879,11.7534,11.7528,11.7258,11.6659,11.5837,11.484,11.4783,11.4904,11.5219,11.5692,11.701,11.8074,11.8149,11.8149,11.8149,11.8149,11.8149,11.8149,11.2747,11.2747,11.2747,11.452,11.7517,11.9776,12.1262,12.2273,12.3867,12.5437,12.7065,12.8564,13.0016,13.1515,13.1599,13.1599,13.1599,13.1813,13.2657,13.3,13.3072,13.4583,13.5511,13.6068,13.6211,13.6282,13.6496,13.6639,13.5997,13.5283,13.4641,13.4356,13.3227,13.2585,13.2228,13.18,13.1528,13.1015,12.9802,12.8278,12.6709,12.508,12.2452,12.0311,11.8516,11.6863,11.5342,11.3998,11.3224,11.2879,11.2747,11.2747,11.2747,11.2747,11.2747,11.2747,11.2676,11.2511,11.2192,11.2428,11.2747,11.2747,11.2747,11.2747,11.2747,11.2747,11.2747,11.2747,11.2747,11.2747,11.2747,11.2747,11.2747,11.2747,11.2747,11.2747,11.2747,11.283,11.3078,11.2995,11.2759,11.283,11.2995,11.3684,11.4626,11.4425,11.4445,11.4873,11.4923,11.4252,11.3925,11.3565,11.3782,11.4221,11.5194,11.6275,11.7177,11.7919,11.7982,11.7834,11.7254,11.6552,11.5569,11.5055,11.4736,11.4914,11.5372,11.6415,11.7637,11.7844,11.8149,11.8149,11.8149,11.8149,11.8149,11.2747,11.2747,11.2747,11.4531,11.7148,11.7719,11.9491,12.2202,12.3951,12.5521,12.7053,12.8719,13.023,13.1385,13.1599,13.1599,13.1599,13.1599,13.2728,13.3428,13.3442,13.4855,13.5997,13.6853,13.721,13.7196,13.7553,13.8066,13.6581,13.6568,13.6425,13.5854,13.4356,13.3856,13.3286,13.2728,13.1872,13.1372,13.0302,12.9004,12.7493,12.5722,12.3451,12.131,11.9598,11.7945,11.6495,11.4962,11.4047,11.3345,11.2736,11.2747,11.2747,11.2747,11.2747,11.2747,11.2747,11.2027,11.1544,11.2346,11.2665,11.2995,11.2912,11.2747,11.2747,11.2747,11.2747,11.2747,11.2747,11.2747,11.2747,11.2747,11.2747,11.2747,11.2747,11.2747,11.2747,11.2841,11.3149,11.3332,11.3106,11.3317,11.3528,11.4254,11.54,11.5341,11.5652,11.6005,11.5798,11.5133,11.4391,11.404,11.4149,11.4622,11.5415,11.6425,11.7344,11.7994,11.8132,11.8155,11.7815,11.7243,11.6378,11.5525,11.4811,11.4741,11.5381,11.6237,11.7267,11.7764,11.8149,11.8149,11.8149,11.8149,11.8149,11.2747,11.2747,11.2747,11.452,11.7148,11.7434,11.9146,12.2202,12.4925,12.6423,12.7422,12.966,13.1171,13.1385,13.1599,13.1599,13.1599,13.1671,13.2585,13.5141,13.4726,13.6439,13.8209,13.9422,13.878,13.9479,13.9907,13.9907,13.9065,13.9208,13.8708,13.7339,13.527,13.5056,13.4784,13.3785,13.2643,13.1658,13.1015,12.9861,12.8278,12.6709,12.4937,12.2868,12.087,11.9312,11.7862,11.6317,11.4785,11.4169,11.3442,11.2747,11.2747,11.2747,11.2747,11.2747,11.2747,11.2522,11.2089,11.2689,11.3145,11.3442,11.3633,11.3314,11.2841,11.2747,11.2747,11.2747,11.2747,11.2747,11.2747,11.2747,11.2747,11.2747,11.2747,11.2747,11.2747,11.2747,11.3017,11.3689,11.3823,11.4238,11.4581,11.546,11.6153,11.6505,11.6815,11.6837,11.6696,11.5813,11.4959,11.4625,11.4603,11.5086,11.5797,11.6742,11.7443,11.804,11.8149,11.8143,11.7922,11.7613,11.701,11.6298,11.5261,11.4677,11.539,11.6164,11.7053,11.7626,11.8051,11.8149,11.8149,11.8149,11.8149,11.2747,11.2747,11.2747,11.452,11.722,11.7434,11.9217,12.213,12.4271,12.5911,12.7422,13.023,13.1599,13.1599,13.1599,13.1599,13.1599,13.1671,13.3312,13.5796,13.5355,13.7852,13.9636,14.0121,14.0179,14.0764,14.0906,14.0849,14.0992,14.0635,14.005,13.9394,13.7838,13.6711,13.6425,13.4855,13.3558,13.2572,13.1729,13.0886,12.929,12.7636,12.6067,12.445,12.1941,12.03,11.9372,11.7208,11.5689,11.4861,11.3442,11.2808,11.2747,11.2747,11.2747,11.2747,11.2747,11.281,11.3206,11.3628,11.3842,11.3917,11.3915,11.3562,11.2912,11.2747,11.2747,11.2747,11.2747,11.2747,11.2747,11.2819,11.2819,11.2819,11.2995,11.2995,11.2995,11.2995,11.3522,11.4244,11.4225,11.4511,11.5397,11.625,11.6741,11.7168,11.7438,11.7517,11.7701,11.6748,11.5904,11.5547,11.5341,11.572,11.6168,11.7213,11.7994,11.8143,11.8149,11.8149,11.8019,11.7757,11.725,11.6673,11.5665,11.4593,11.5019,11.5547,11.658,11.7505,11.7959,11.8149,11.8149,11.8149,11.8149,11.2747,11.2747,11.2747,11.452,11.7291,11.7434,11.9146,12.1988,12.2487,12.4128,12.7208,13.023,13.1599,13.1599,13.1599,13.1599,13.1599,13.1671,13.3312,13.5368,13.5498,13.7196,13.9051,14.0135,14.0121,14.0778,14.0992,14.0992,14.0992,14.0992,14.0992,14.0407,13.9907,13.9479,13.8395,13.5627,13.4129,13.37,13.2358,13.1158,12.9647,12.8136,12.6566,12.5009,12.3082,12.1441,12.03,11.8361,11.6865,11.5619,11.4095,11.3082,11.2819,11.2747,11.2747,11.2743,11.2765,11.326,11.4014,11.4987,11.4949,11.4663,11.4791,11.4208,11.3243,11.2854,11.2936,11.3116,11.3051,11.3022,11.2819,11.295,11.2961,11.3115,11.3551,11.3716,11.3716,11.3749,11.4739,11.5633,11.5099,11.4932,11.617,11.7162,11.764,11.8149,11.8206,11.839,11.8628,11.8031,11.7252,11.6836,11.6502,11.6651,11.6549,11.7568,11.8126,11.8143,11.8149,11.8149,11.8079,11.7898,11.7563,11.7043,11.6281,11.5514,11.5251,11.4998,11.6016,11.7125,11.7649,11.8149,11.8149,11.8149,11.8149,11.2747,11.2747,11.2747,11.4591,11.722,11.7434,11.9146,12.1786,12.2059,12.3914,12.7137,13.0088,13.1599,13.1599,13.1599,13.1599,13.1742,13.1885,13.3669,13.5011,13.614,13.7852,13.9622,14.055,14.0349,14.0778,14.0992,14.0992,14.0992,14.0992,14.0992,14.0992,14.092,14.0778,13.9693,13.811,13.6055,13.4485,13.3286,13.2501,13.0944,12.9361,12.772,12.6293,12.4593,12.294,12.1441,11.9729,11.8183,11.6734,11.5328,11.3972,11.3176,11.2747,11.2747,11.2964,11.3292,11.3822,11.4413,11.5344,11.6235,11.5922,11.5899,11.5399,11.4758,11.4081,11.4142,11.3988,11.4202,11.3938,11.2819,11.4509,11.5151,11.4009,11.4445,11.513,11.5058,11.5155,11.6097,11.7186,11.7686,11.7927,11.8755,11.8804,11.9673,12.08,12.0766,12.0616,12.0489,11.9762,11.8869,11.8302,11.7835,11.7395,11.6887,11.7568,11.8137,11.8149,11.8149,11.8149,11.8149,11.8109,11.784,11.7449,11.6932,11.645,11.6205,11.6178,11.6465,11.6872,11.7482,11.8149,11.8149,11.8149,11.8149,11.2747,11.2747,11.2747,11.452,11.7434,11.7434,11.9206,12.1774,12.213,12.3629,12.6222,12.9219,13.1015,13.1457,13.1599,13.1885,13.2371,13.2027,13.4155,13.5939,13.6853,13.8209,13.9921,14.092,14.0992,14.0992,14.0992,14.0992,14.0992,14.0992,14.0992,14.0992,14.0992,14.0992,14.0764,13.968,13.8052,13.6198,13.4628,13.3629,13.2144,13.0574,12.879,12.7649,12.5949,12.4093,12.294,12.0954,11.9479,11.8277,11.7233,11.564,11.4207,11.4408,11.4095,11.3554,11.3782,11.4471,11.5297,11.647,11.7269,11.733,11.6969,11.6675,11.6451,11.5982,11.5871,11.6293,11.6699,11.6552,11.5237,11.6313,11.7124,11.5853,11.5756,11.6607,11.6925,11.6917,11.7711,11.9162,11.9964,12.0504,12.06,12.0691,12.2181,12.3365,12.3171,12.2883,12.2289,12.164,12.0638,11.991,11.9401,11.8909,11.7711,11.7822,11.8126,11.8149,11.8149,11.8149,11.8149,11.8149,11.8091,11.7854,11.741,11.693,11.676,11.71,11.7323,11.7532,11.7821,11.8149,11.8149,11.8149,11.8149,11.2747,11.2747,11.2747,11.452,11.7434,11.7434,11.9217,12.2,12.2059,12.3213,12.5437,12.7792,13.0003,13.1242,13.1658,13.23,13.3558,13.2371,13.4499,13.6483,13.7482,13.8481,13.9993,14.0992,14.0992,14.0992,14.0992,14.0992,14.0992,14.0992,14.0992,14.0992,14.0992,14.0992,14.0835,14.0621,13.9622,13.8338,13.5698,13.4271,13.2987,13.1288,12.9433,12.8576,12.6591,12.4748,12.4463,12.2108,12.0264,11.9466,11.9036,11.7852,11.6244,11.6428,11.6025,11.5315,11.5156,11.6086,11.6793,11.7835,11.8195,11.7957,11.7621,11.7361,11.8091,11.8111,11.8782,11.9624,11.9305,11.8909,11.8426,11.8382,11.8203,11.7525,11.7541,11.8349,11.8799,11.8916,12.0026,12.1215,12.1886,12.2343,12.2454,12.3422,12.4798,12.5384,12.5184,12.4966,12.4301,12.3604,12.2522,12.1769,12.1201,12.0098,11.8839,11.8333,11.8442,11.8528,11.8304,11.8149,11.8149,11.8149,11.8149,11.7971,11.7835,11.7357,11.7034,11.7463,11.7797,11.8068,11.8149,11.8149,11.8149,11.8149,11.8149,11.2747,11.2747,11.2747,11.452,11.7374,11.7434,11.9206,12.1916,12.2059,12.3629,12.5983,12.7208,12.9147,13.11,13.1599,13.1956,13.2371,13.3072,13.4855,13.6496,13.7767,13.9051,14.0336,14.0992,14.0992,14.0992,14.0992,14.0992,14.0992,14.0992,14.0992,14.0992,14.0992,14.0992,14.0992,14.092,14.0778,13.9907,13.7281,13.5355,13.3843,13.2001,13.0503,12.9433,12.8375,12.7019,12.495,12.3451,12.1725,12.0704,12.0379,11.9964,11.8409,11.8746,11.8599,11.7534,11.785,11.8672,11.9117,11.8969,11.827,11.813,11.8005,11.8613,11.9626,11.9375,11.9721,12.143,12.1473,12.0711,11.9925,12.1156,12.0155,11.9518,11.9479,12.018,12.0928,12.1954,12.3037,12.3574,12.3908,12.4226,12.4863,12.5964,12.6673,12.7185,12.7259,12.7035,12.6356,12.5677,12.4762,12.4002,12.3198,12.1858,12.0748,11.9782,11.904,11.8827,11.8379,11.8149,11.8149,11.8149,11.8149,11.8132,11.8045,11.7762,11.7547,11.7815,11.8149,11.8149,11.8149,11.8149,11.8149,11.8149,11.8149,11.2747,11.2747,11.2747,11.452,11.722,11.7434,11.9206,12.1631,12.2143,12.3129,12.477,12.6197,12.785,12.9517,13.1171,13.1872,13.2728,13.35,13.5069,13.7196,13.8267,13.9394,14.0621,14.0992,14.0992,14.0992,14.0992,14.0992,14.0992,14.0992,14.0992,14.0992,14.0992,14.0992,14.0992,14.0992,14.0992,14.0421,13.9208,13.7139,13.4927,13.2799,13.1171,13.0302,12.9588,12.7934,12.6079,12.508,12.3247,12.1704,12.2311,12.2033,12.0771,12.1105,12.1327,11.9982,12.1024,12.1799,12.1616,12.0904,12.057,12.0346,12.0438,12.03,12.0507,12.0908,12.1667,12.3164,12.3972,12.3809,12.3232,12.3605,12.231,12.1605,12.1763,12.2417,12.3287,12.4516,12.5199,12.5571,12.5893,12.6138,12.6543,12.7203,12.7502,12.7789,12.7789,12.7795,12.7571,12.7203,12.6754,12.6075,12.4873,12.3533,12.2492,12.1376,12.0622,11.9541,11.9092,11.8367,11.8298,11.8149,11.8149,11.8137,11.812,11.8126,11.8137,11.8149,11.8149,11.8149,11.8149,11.8149,11.8149,11.8149,11.8149,11.2747,11.2747,11.2747,11.4509,11.7148,11.7434,11.9217,12.1929,12.2059,12.213,12.3213,12.5555,12.7137,12.822,13.0516,13.23,13.3357,13.4129,13.5712,13.7624,13.8695,13.9822,14.0764,14.092,14.0992,14.0992,14.0992,14.0992,14.0992,14.0992,14.0992,14.0992,14.0992,14.0992,14.0992,14.0992,14.0992,14.0992,14.0849,13.9422,13.6568,13.3584,13.2086,13.1229,13.0315,12.8976,12.7741,12.6214,12.4626,12.3113,12.4373,12.4001,12.2596,12.3589,12.3628,12.3581,12.3973,12.4897,12.3625,12.2773,12.2399,12.2377,12.2556,12.2193,12.1968,12.2404,12.3935,12.5671,12.6298,12.6095,12.5606,12.5655,12.4858,12.4107,12.3573,12.4165,12.4907,12.5536,12.5976,12.64,12.6836,12.7372,12.787,12.81,12.8331,12.8325,12.8325,12.8555,12.8561,12.8493,12.8194,12.7502,12.6449,12.5178,12.4062,12.294,12.1876,12.0552,11.9673,11.873,11.8442,11.8149,11.8149,11.8149,11.8149,11.8149,11.8149,11.8149,11.8149,11.8149,11.8149,11.8149,11.8149,11.8149,11.8149,11.2747,11.2747,11.2747,11.4509,11.7148,11.7434,11.9206,12.1631,12.2059,12.2785,12.4224,12.6067,12.7565,12.9004,13.0587,13.1813,13.2228,13.4784,13.5854,13.7281,13.898,14.0407,14.0906,14.0992,14.0992,14.0992,14.0992,14.0992,14.0992,14.0992,14.0992,14.0992,14.0992,14.0992,14.0992,14.0992,14.0992,14.0992,14.092,14.005,13.791,13.5141,13.2942,13.1671,13.1314,13.0655,12.959,12.8169,12.6771,12.5709,12.5669,12.5727,12.493,12.6247,12.709,12.673,12.5915,12.5558,12.481,12.4158,12.3604,12.3646,12.3237,12.2926,12.292,12.3957,12.5552,12.7191,12.7675,12.7433,12.678,12.6419,12.5886,12.5221,12.5088,12.5186,12.5931,12.6411,12.6985,12.7702,12.7714,12.8244,12.8767,12.9072,12.9658,12.9652,13.025,13.0337,13.01,13.0026,12.9839,12.9072,12.8169,12.6898,12.5552,12.4436,12.306,12.1661,12.0403,11.9173,11.8666,11.8224,11.8149,11.8149,11.8304,11.8689,11.8304,11.8149,11.8534,11.8689,11.8304,11.8149,11.8149,11.8149,11.8149,11.2747,11.2747,11.2747,11.452,11.7077,11.7434,11.9206,12.1845,12.213,12.2571,12.3855,12.5852,12.7422,12.8576,13.0444,13.1528,13.217,13.4155,13.5498,13.6639,13.8623,14.0121,14.0906,14.092,14.0992,14.0992,14.0992,14.0992,14.0992,14.0992,14.0992,14.0992,14.0992,14.0992,14.0992,14.0992,14.0992,14.0992,14.0835,14.0121,13.8467,13.6425,13.3798,13.2313,13.1535,13.1018,13.031,12.9378,12.8487,12.6806,12.7124,12.693,12.6614,12.7079,12.8013,12.7851,12.7265,12.6829,12.6524,12.612,12.5404,12.5404,12.5559,12.5167,12.4806,12.501,12.5725,12.6742,12.7253,12.787,12.7328,12.7303,12.7253,12.7061,12.7081,12.7335,12.7647,12.7748,12.8947,13.0331,13.0263,13.0188,13.0337,13.0474,13.091,13.1434,13.2032,13.2014,13.1715,13.1684,13.1702,13.0942,13.0045,12.8624,12.7203,12.5776,12.4331,12.2633,12.1207,11.9759,11.8966,11.8442,11.8224,11.8528,11.9075,11.969,11.9454,11.942,11.9443,11.946,11.8994,11.8603,11.8379,11.8224,11.8149,11.2747,11.2747,11.2747,11.4591,11.7148,11.7434,11.9146,12.1774,12.2059,12.2059,12.2558,12.5127,12.6566,12.772,13.0088,13.1372,13.1943,13.3357,13.4699,13.5854,13.791,13.9265,14.0336,14.0635,14.0992,14.0992,14.0992,14.0992,14.0992,14.0992,14.0992,14.0992,14.0992,14.0992,14.0992,14.0992,14.0992,14.0992,14.092,14.0407,13.9109,13.741,13.5283,13.2585,13.1813,13.1215,13.0459,13.0585,12.9872,12.7554,12.8505,12.8412,12.7882,12.7795,12.8026,12.8026,12.7876,12.7726,12.7801,12.787,12.8026,12.81,12.772,12.7098,12.6344,12.6156,12.6386,12.673,12.7409,12.81,12.81,12.7945,12.8331,12.8705,12.8817,12.9203,12.9356,13.002,13.1241,13.197,13.2419,13.2574,13.2493,13.248,13.2455,13.2504,13.3732,13.4408,13.3698,13.3361,13.341,13.2743,13.1914,13.0337,12.8848,12.734,12.5534,12.3834,12.2701,12.1329,11.965,11.8897,11.8747,11.9431,12.0047,12.0789,12.1082,12.1071,12.1019,12.099,12.0064,11.9058,11.95,11.9949,11.95,11.2747,11.2747,11.2747,11.452,11.7148,11.7434,11.9217,12.1845,12.2059,12.2059,12.2499,12.401,12.5865,12.7137,12.8933,13.0444,13.1658,13.3143,13.3914,13.4842,13.7196,13.8538,13.9337,14.0207,14.0778,14.092,14.0992,14.0992,14.0992,14.0992,14.0992,14.0992,14.0992,14.0992,14.0992,14.0992,14.0992,14.0992,14.0992,14.0621,14.0193,13.8823,13.6554,13.3856,13.2469,13.1679,13.2106,13.2054,13.1785,13.1419,13.0635,13.0139,12.9546,12.8948,12.81,12.81,12.81,12.81,12.81,12.81,12.81,12.81,12.81,12.787,12.7714,12.7502,12.7427,12.7646,12.7714,12.81,12.81,12.8256,12.8331,12.8692,12.9632,13.0123,13.0704,13.2893,13.3416,13.3683,13.3758,13.3914,13.3982,13.4424,13.3842,13.3735,13.575,13.6775,13.5721,13.511,13.513,13.4613,13.3459,13.2026,13.0786,12.9291,12.711,12.5578,12.48,12.2917,12.0801,12.0605,12.0776,12.0967,12.1358,12.2139,12.2719,12.2687,12.2751,12.2671,12.1969,12.0979,12.1042,12.1514,12.0398,11.2747,11.2747,11.2747,11.452,11.7148,11.7434,11.9146,12.1714,12.2059,12.2059,12.2428,12.3867,12.5437,12.7065,12.8564,13.0088,13.1528,13.2443,13.3072,13.4343,13.6126,13.7753,13.8623,13.9323,14.0193,14.092,14.0992,14.0992,14.0992,14.0992,14.0992,14.0992,14.0992,14.0992,14.0992,14.0992,14.0992,14.0992,14.0992,14.0992,14.0706,13.9394,13.7325,13.5283,13.2936,13.2096,13.314,13.3269,13.3363,13.2977,13.2295,13.1403,13.0394,12.9029,12.8181,12.81,12.81,12.81,12.81,12.81,12.81,12.81,12.81,12.81,12.81,12.81,12.81,12.81,12.81,12.81,12.8175,12.8642,12.9876,13.0624,13.2176,13.3091,13.3501,13.5185,13.6333,13.5865,13.5328,13.5409,13.5565,13.6307,13.5975,13.5506,13.7435,13.7516,13.6531,13.6456,13.6476,13.6095,13.5016,13.3888,13.2649,13.1017,12.8836,12.7397,12.64,12.4281,12.2366,12.2376,12.2746,12.3006,12.3285,12.3978,12.4352,12.4394,12.4379,12.4184,12.3724,12.2818,12.2495,12.2946,12.2153,11.2747,11.2747,11.2747,11.452,11.7148,11.7434,11.9217,12.1988,12.2059,12.2059,12.2344,12.3427,12.4866,12.6423,12.7922,12.9647,13.0873,13.1528,13.2157,13.3629,13.5069,13.6554,13.7838,13.8538,13.9479,14.0635,14.0992,14.0992,14.0992,14.0992,14.0992,14.0992,14.0992,14.0992,14.0992,14.0992,14.0992,14.0992,14.0992,14.0992,14.0706,13.9765,13.8267,13.614,13.4012,13.3019,13.343,13.4145,13.4507,13.4033,13.3277,13.1995,13.0468,12.8948,12.8175,12.81,12.81,12.81,12.81,12.81,12.81,12.81,12.81,12.81,12.81,12.81,12.81,12.81,12.81,12.81,12.8256,12.949,13.0612,13.1877,13.3779,13.5344,13.6008,13.7041,13.7591,13.7584,13.7584,13.7734,13.7659,13.7584,13.7659,13.7734,13.7809,13.7809,13.7659,13.7584,13.7441,13.7292,13.6293,13.5546,13.4382,13.313,13.0724,12.883,12.7409,12.5564,12.4137,12.3715,12.4307,12.483,12.5135,12.5584,12.6107,12.6138,12.6006,12.5695,12.5234,12.46,12.4152,12.446,12.4127,11.2747,11.2747,11.2747,11.4591,11.7077,11.7434,11.9146,12.1631,12.2071,12.2059,12.213,12.2285,12.351,12.4962,12.6579,12.8064,12.966,13.0873,13.1599,13.2384,13.3442,13.4998,13.6496,13.7696,13.9051,14.0278,14.0849,14.092,14.0764,14.0835,14.0906,14.0992,14.0992,14.0992,14.0992,14.0992,14.0992,14.0992,14.0992,14.0992,14.0849,14.0564,13.9123,13.6853,13.5511,13.4703,13.3925,13.4227,13.4902,13.5297,13.3738,13.2151,13.0549,12.8948,12.8181,12.81,12.81,12.81,12.81,12.81,12.81,12.81,12.81,12.81,12.81,12.81,12.81,12.81,12.81,12.8175,12.848,12.9564,13.0724,13.1825,13.4011,13.6001,13.7197,13.7734,13.7809,13.7809,13.7809,13.7809,13.7809,13.7809,13.7809,13.7809,13.7809,13.7809,13.7809,13.7809,13.7809,13.7809,13.7435,13.6905,13.6034,13.5012,13.2525,13.0637,12.9291,12.7484,12.5982,12.5546,12.6075,12.6293,12.6512,12.6954,12.7334,12.7484,12.7571,12.7272,12.6742,12.6188,12.5796,12.5956,12.5986,11.2747,11.2747,11.2747,11.4009,11.6067,11.6994,11.8647,12.0573,12.1643,12.2059,12.2059,12.2059,12.2999,12.4605,12.5307,12.6935,12.9089,12.9932,13.073,13.1528,13.23,13.3513,13.4998,13.6496,13.7567,13.8365,14.0064,14.0336,13.9907,14.055,14.0906,14.0992,14.0992,14.0992,14.0976,14.0992,14.0992,14.0934,14.0992,14.0992,14.0992,14.0992,13.9565,13.8066,13.6608,13.5786,13.4849,13.5202,13.5545,13.5105,13.3839,13.217,13.0555,12.8948,12.81,12.81,12.81,12.81,12.81,12.81,12.81,12.81,12.81,12.81,12.81,12.81,12.81,12.81,12.81,12.8549,12.9309,13.0013,13.131,13.3075,13.5418,13.7041,13.7734,13.7809,13.7809,13.7809,13.7809,13.7809,13.7809,13.7809,13.7809,13.7809,13.7809,13.7809,13.7809,13.7809,13.7809,13.7809,13.7584,13.7435,13.6775,13.5829,13.3803,13.3179,13.182,12.9558,12.8375,12.7801,12.7726,12.7427,12.7801,12.8026,12.787,12.787,12.81,12.81,12.81,12.7639,12.7334,12.7296,12.7221,11.2747,11.2747,11.2747,11.3664,11.5128,11.6209,11.7933,11.9812,12.1001,12.1631,12.2059,12.2059,12.2713,12.3938,12.4379,12.5735,12.7733,12.8862,13.0016,13.0873,13.1301,13.23,13.3428,13.4927,13.5868,13.6724,13.8922,13.968,13.8823,14.0193,14.092,14.0992,14.092,14.1073,14.1264,14.1057,14.1101,14.1359,14.114,14.0992,14.0992,14.0992,14.0288,13.9027,13.7513,13.6479,13.6051,13.6144,13.6183,13.5901,13.417,13.2039,12.9938,12.8717,12.81,12.81,12.81,12.81,12.81,12.81,12.81,12.81,12.81,12.81,12.81,12.81,12.81,12.8175,12.8624,12.9222,13.02,13.0874,13.2493,13.5064,13.6654,13.7734,13.7809,13.7809,13.7809,13.7809,13.7809,13.7809,13.7809,13.7809,13.7809,13.7809,13.7809,13.7809,13.7809,13.7809,13.7809,13.7809,13.7809,13.7809,13.7523,13.657,13.5822,13.5266,13.3826,13.1571,13.1141,13.0057,12.9091,12.825,12.8325,12.81,12.81,12.81,12.81,12.81,12.81,12.81,12.8026,12.8026,12.7876,11.2747,11.2747,11.2747,11.3653,11.4914,11.5282,11.6934,11.9372,11.9955,12.0787,12.1916,12.2059,12.2214,12.2642,12.3796,12.4605,12.539,12.772,12.9219,12.9647,13.0944,13.1671,13.2086,13.3428,13.4713,13.6068,13.7838,13.8609,13.8681,13.9979,14.0906,14.092,14.0962,14.1396,14.203,14.1396,14.1409,14.2094,14.1467,14.0934,14.0992,14.0976,14.0706,14.0233,13.8655,13.761,13.7272,13.6733,13.6811,13.7185,13.4694,13.1871,12.901,12.8181,12.81,12.81,12.81,12.81,12.81,12.81,12.81,12.81,12.81,12.81,12.81,12.81,12.81,12.8175,12.9297,13.0269,13.078,13.185,13.3612,13.5344,13.696,13.7734,13.7809,13.7809,13.7809,13.7809,13.7809,13.7809,13.7809,13.7809,13.7809,13.7809,13.7809,13.7809,13.7809,13.7809,13.7809,13.7809,13.7809,13.7809,13.7809,13.7012,13.6782,13.6232,13.5396,13.435,13.407,13.2164,13.0693,12.939,12.8624,12.8325,12.81,12.81,12.81,12.81,12.81,12.81,12.81,12.81,12.7951,11.2747,11.2747,11.2747,11.3093,11.3653,11.47,11.6364,11.823,11.9312,12.0585,12.1845,12.2059,12.2059,12.2214,12.2713,12.3582,12.4819,12.6793,12.7792,12.8148,13.0302,13.1528,13.1671,13.2228,13.3286,13.4842,13.6412,13.7624,13.8609,13.918,13.9979,14.0778,14.0992,14.153,14.2426,14.1597,14.1503,14.2361,14.1544,14.0992,14.1101,14.1677,14.1946,14.1551,13.9953,13.9261,13.9545,13.8093,13.74,13.7381,13.5783,13.2961,12.9858,12.8642,12.81,12.81,12.81,12.81,12.81,12.81,12.81,12.81,12.81,12.81,12.81,12.81,12.81,12.825,12.9527,13.0874,13.197,13.3563,13.5194,13.6735,13.7428,13.7734,13.7809,13.7809,13.7809,13.7809,13.7809,13.7809,13.7809,13.7809,13.7809,13.7809,13.7809,13.7809,13.7809,13.7809,13.7809,13.7809,13.7809,13.7809,13.7809,13.7659,13.7516,13.7129,13.6674,13.6381,13.5871,13.3816,13.2494,13.1266,12.9521,12.9297,12.81,12.81,12.81,12.81,12.81,12.81,12.81,12.81,12.81,11.2747,11.2747,11.2747,11.2747,11.2879,11.3867,11.5211,11.6709,11.7802,11.9431,12.1144,12.1358,12.1643,12.1988,12.2059,12.2713,12.3867,12.5437,12.6482,12.7338,12.966,13.1087,13.1457,13.1599,13.2157,13.3299,13.4784,13.6126,13.6969,13.7611,13.8623,13.9907,14.0121,14.1195,14.3071,14.1751,14.1724,14.2844,14.1698,14.0934,14.1046,14.2043,14.2578,14.2301,14.0884,14.0237,14.0744,13.8953,13.787,13.7809,13.5812,13.3209,13.0294,12.8717,12.81,12.81,12.81,12.81,12.81,12.81,12.81,12.81,12.81,12.81,12.81,12.81,12.81,12.825,12.9521,13.1166,13.2792,13.4499,13.5783,13.7012,13.7136,13.7116,13.7659,13.7809,13.7809,13.7809,13.7809,13.7809,13.7809,13.7809,13.7809,13.7809,13.7809,13.7809,13.7809,13.7809,13.7809,13.7809,13.7809,13.7809,13.7809,13.7734,13.7659,13.7435,13.736,13.7142,13.6557,13.5312,13.457,13.3361,13.1478,13.0045,12.8624,12.81,12.81,12.81,12.81,12.81,12.81,12.81,12.81,11.2747,11.2747,11.2747,11.2747,11.2747,11.289,11.3713,11.5128,11.5413,11.7137,11.9586,11.9883,12.0716,12.1774,12.1988,12.213,12.2666,12.4253,12.5598,12.6855,12.8792,13.0356,13.1398,13.1599,13.1865,13.1956,13.3286,13.4129,13.4641,13.5783,13.7067,13.8395,13.8681,14.0533,14.4192,14.2162,14.2094,14.3212,14.2166,14.096,14.1101,14.1954,14.2301,14.1816,14.1234,14.0686,14.0262,13.8693,13.7734,13.7347,13.4801,13.1587,12.8991,12.8181,12.81,12.81,12.81,12.81,12.81,12.81,12.81,12.81,12.81,12.81,12.81,12.81,12.81,12.8325,12.9521,13.1017,13.2649,13.4027,13.5107,13.5481,13.5708,13.6348,13.7272,13.7734,13.7809,13.7809,13.7809,13.7809,13.7809,13.7809,13.7809,13.7809,13.7809,13.7809,13.7809,13.7809,13.7809,13.7809,13.7809,13.7809,13.7809,13.7809,13.7809,13.7815,13.7815,13.7747,13.7081,13.6713,13.5897,13.5224,13.326,13.116,12.9814,12.8474,12.8399,12.81,12.81,12.81,12.81,12.81,12.81,11.2747,11.2747,11.2747,11.2747,11.2747,11.2747,11.3664,11.4985,11.5128,11.6221,11.8088,11.9312,12.0014,12.0585,12.1643,12.2059,12.2358,12.4453,12.54,12.5719,12.9431,13.0813,13.0437,13.1806,13.2272,13.1931,13.3143,13.4485,13.5355,13.4927,13.5555,13.7081,13.811,13.9673,14.1393,14.2079,14.2339,14.2977,14.2501,14.1097,13.9805,14.1128,14.1603,14.0563,14.0514,13.9973,13.8699,13.8114,13.7347,13.6192,13.4108,13.1968,12.9851,12.8717,12.81,12.81,12.81,12.81,12.81,12.81,12.81,12.81,12.81,12.81,12.81,12.81,12.81,12.8399,12.9521,13.0568,13.1247,13.1728,13.2594,13.3729,13.4831,13.573,13.6192,13.7197,13.7734,13.7809,13.7809,13.7809,13.7809,13.7809,13.7809,13.7809,13.7809,13.7809,13.7809,13.7809,13.7809,13.7809,13.7809,13.7809,13.7809,13.7809,13.7809,13.7809,13.7815,13.7815,13.7516,13.7373,13.6999,13.6401,13.4974,13.2805,13.0936,12.9365,12.8624,12.8175,12.81,12.81,12.81,12.81,12.81,11.2747,11.2747,11.2747,11.2747,11.2747,11.2747,11.3307,11.4212,11.4283,11.5068,11.6649,11.823,11.9229,11.9776,12.0509,12.1745,12.3167,12.3477,12.442,12.5976,12.853,12.9776,12.9608,13.1307,13.188,13.1488,13.2521,13.3642,13.4409,13.4022,13.4454,13.5986,13.7387,13.8943,14.0406,14.122,14.2044,14.2773,14.1524,14.0608,13.999,14.0592,14.0196,13.8594,13.9031,13.8869,13.7809,13.7285,13.6518,13.5574,13.3264,13.1509,13.0394,12.8948,12.81,12.81,12.81,12.81,12.81,12.81,12.81,12.81,12.81,12.81,12.81,12.81,12.81,12.825,12.9079,12.9527,12.9608,12.9621,13.0262,13.1865,13.3536,13.4743,13.5601,13.6885,13.7809,13.7809,13.7809,13.7809,13.7809,13.7809,13.7809,13.7809,13.7809,13.7809,13.7809,13.7809,13.7809,13.7809,13.7809,13.7809,13.7809,13.7809,13.7809,13.7809,13.7809,13.7809,13.7809,13.7666,13.6843,13.6164,13.4593,13.25,13.0861,12.9372,12.8399,12.81,12.81,12.81,12.81,12.81,12.81,11.2747,11.2747,11.2747,11.2747,11.2747,11.2747,11.2747,11.2961,11.2919,11.3705,11.5167,11.683,11.8286,11.9532,11.9308,12.116,12.4186,12.1808,12.2909,12.6789,12.6792,12.7573,12.97,13.04,13.0696,13.0683,13.1508,13.1919,13.1953,13.2686,13.3994,13.5428,13.6516,13.8312,14.0228,13.9988,14.0797,14.2544,14.0149,13.9184,14.101,14.0003,13.8446,13.6888,13.7301,13.789,13.7666,13.632,13.5478,13.5357,13.2301,13.0331,13.0026,12.8642,12.7801,12.7726,12.7801,12.7876,12.7882,12.8032,12.81,12.81,12.81,12.81,12.81,12.81,12.81,12.81,12.8175,12.825,12.825,12.8406,12.8948,13.0262,13.1796,13.3386,13.4908,13.6117,13.7428,13.7578,13.751,13.7516,13.7809,13.7809,13.7809,13.7809,13.7809,13.7809,13.7809,13.7809,13.7809,13.7809,13.7809,13.7809,13.7809,13.7809,13.7809,13.7809,13.7809,13.7734,13.7809,13.7584,13.6612,13.5559,13.3696,13.2057,13.0637,12.9446,12.8399,12.81,12.81,12.81,12.81,12.81,12.81,11.2747,11.2747,11.2747,11.2747,11.2747,11.2747,11.2747,11.2765,11.342,11.3978,11.4626,11.6699,11.7943,11.8481,11.9365,12.1041,12.3135,12.3011,12.3984,12.5876,12.8207,12.8792,12.8408,13.0145,13.0769,13.0386,13.1393,13.2016,13.214,13.281,13.377,13.4875,13.5562,13.6688,13.814,13.9988,14.0643,14.0566,14.0445,13.9551,13.8447,13.7572,13.7209,13.745,13.7647,13.7809,13.774,13.632,13.4961,13.3677,13.1572,12.9409,12.7098,12.6481,12.574,12.4717,12.5552,12.6312,12.6267,12.7446,12.81,12.81,12.81,12.81,12.81,12.81,12.81,12.7951,12.81,12.8026,12.81,12.81,12.8256,12.8717,13.0181,13.1254,13.1915,13.326,13.4882,13.5887,13.6076,13.6469,13.751,13.7734,13.7734,13.7809,13.7809,13.7809,13.7809,13.7809,13.7809,13.7809,13.7809,13.7809,13.7809,13.7809,13.7809,13.7809,13.7809,13.7428,13.6348,13.6199,13.5601,13.3982,13.2282,13.0792,13.0119,12.9147,12.81,12.81,12.81,12.81,12.81,12.81,12.81,11.2747,11.2747,11.2747,11.2747,11.2747,11.2747,11.2747,11.2859,11.3669,11.4066,11.4425,11.6836,11.8361,11.8938,11.8796,12.0319,12.2613,12.1857,12.2833,12.544,12.7009,12.782,12.7862,12.9577,13.0074,12.9607,13.0657,13.1218,13.1404,13.2299,13.3652,13.5203,13.6077,13.6742,13.7373,13.8939,13.9846,13.9767,13.9331,13.8607,13.7451,13.704,13.7228,13.7694,13.721,13.6843,13.6619,13.46,13.2961,13.1933,12.9683,12.7558,12.5634,12.4899,12.4089,12.3216,12.3975,12.4511,12.4535,12.5489,12.6057,12.602,12.6637,12.6718,12.6176,12.7328,12.7427,12.6455,12.6679,12.7059,12.7059,12.7726,12.81,12.8256,12.949,13.045,13.0473,13.1968,13.3244,13.4249,13.4499,13.5042,13.6463,13.6837,13.7142,13.774,13.7809,13.7809,13.7809,13.7809,13.7809,13.7809,13.7809,13.7809,13.7809,13.7809,13.7809,13.7809,13.7809,13.7272,13.6049,13.5526,13.4574,13.2318,13.1222,13.0419,12.9671,12.8624,12.81,12.81,12.81,12.81,12.81,12.81,12.81,11.2747,11.2747,11.2747,11.2747,11.2747,11.2747,11.2747,11.2843,11.3801,11.4241,11.4713,11.7025,11.9017,12.0029,11.8044,11.9125,12.238,11.952,12.0782,12.4831,12.4509,12.545,12.7645,12.8503,12.8813,12.886,12.9618,13.0126,13.0191,13.1588,13.3508,13.5907,13.7161,13.7585,13.7558,13.7789,13.8624,13.997,13.7668,13.6909,13.7775,13.7666,13.7591,13.7591,13.6089,13.5266,13.5198,13.2064,13.0213,12.9945,12.711,12.5273,12.4974,12.3658,12.2779,12.2549,12.2555,12.2698,12.2854,12.2929,12.321,12.3125,12.4588,12.4737,12.3475,12.5871,12.6225,12.3975,12.4424,12.5259,12.5426,12.6841,12.7652,12.772,12.9103,13.0181,13.0313,13.1553,13.2568,13.2724,13.2718,13.3316,13.4818,13.5273,13.5871,13.7149,13.7523,13.7809,13.7809,13.7809,13.774,13.7591,13.7516,13.7516,13.7809,13.7809,13.7659,13.7503,13.7503,13.6498,13.5064,13.4424,13.404,13.0929,13.0032,12.9596,12.8699,12.81,12.81,12.81,12.81,12.81,12.81,12.81,12.81,11.2747,11.2747,11.2747,11.2747,11.2747,11.2747,11.2747,11.2887,11.448,11.5544,11.634,11.7587,11.8379,11.8666,11.8171,11.9073,12.0949,12.039,12.1378,12.3572,12.4719,12.5547,12.6263,12.7645,12.8226,12.8417,12.9632,13.0294,13.0518,13.2,13.336,13.43,13.5854,13.6418,13.6001,13.7217,13.804,13.8332,13.7735,13.7579,13.7809,13.6612,13.6014,13.5865,13.4369,13.354,13.3397,13.0344,12.863,12.8493,12.5426,12.3039,12.1934,12.1416,12.0657,11.9426,11.9276,11.98,12.1151,12.2337,12.3039,12.3097,12.3402,12.3413,12.3119,12.3772,12.3302,12.1744,12.271,12.3602,12.3838,12.5133,12.6174,12.6257,12.7639,12.8487,12.8642,12.8929,12.959,13.0774,13.1004,13.1609,13.3017,13.354,13.4232,13.5754,13.7094,13.774,13.7809,13.7809,13.7292,13.6469,13.6034,13.6333,13.7591,13.7659,13.7197,13.6117,13.5968,13.4739,13.2682,13.1726,13.0674,12.9378,12.8699,12.8474,12.825,12.81,12.81,12.81,12.81,12.81,12.81,12.81,12.81,11.2308,11.1809,11.2451,11.2747,11.2747,11.2747,11.2975,11.3483,11.4832,11.5733,11.634,11.7599,11.8149,11.8149,11.8149,11.8678,11.9581,11.9575,12.0404,12.1962,12.294,12.3757,12.4499,12.5396,12.5776,12.5851,12.7421,12.8175,12.8468,13.0637,13.193,13.2308,13.3917,13.5021,13.5546,13.632,13.7142,13.7747,13.5572,13.4457,13.4375,13.3628,13.3179,13.3185,13.2282,13.1534,13.078,12.8319,12.6548,12.5848,12.335,12.1629,12.0691,12.0001,11.9155,11.8229,11.8149,11.8609,11.9512,12.0375,12.0772,12.0846,12.1543,12.1652,12.0851,12.0812,12.0461,11.9731,12.1071,12.1968,12.2066,12.346,12.4403,12.442,12.5174,12.579,12.5865,12.6406,12.7247,12.8094,12.8848,12.997,13.1609,13.1833,13.2457,13.401,13.4938,13.5478,13.5581,13.5533,13.5273,13.4519,13.4382,13.4749,13.5341,13.5565,13.5253,13.4541,13.4369,13.3228,13.1113,13.0449,12.9783,12.8487,12.81,12.81,12.81,12.81,12.81,12.81,12.81,12.81,12.81,12.81,12.81,11.1309,11.0228,11.1809,11.2451,11.2462,11.2676,11.3163,11.3991,11.4914,11.5401,11.5815,11.7404,11.8149,11.8149,11.8149,11.8149,11.8149,11.8149,11.8977,12.0329,12.0634,12.1445,12.2698,12.2923,12.3072,12.3147,12.4574,12.5247,12.5546,12.8244,12.9901,13.0263,13.1534,13.3241,13.4974,13.5117,13.579,13.6993,13.2961,13.0792,13.0792,13.0574,13.0119,12.9446,12.9596,12.8854,12.6754,12.5483,12.3942,12.1767,12.0197,11.9351,11.9236,11.7642,11.7113,11.7706,11.7631,11.7487,11.7481,11.7481,11.7481,11.7551,11.9011,11.946,11.7994,11.7844,11.7919,11.8229,11.95,12.0346,12.0455,12.1767,12.2711,12.2701,12.2901,12.3045,12.3269,12.4408,12.5273,12.5333,12.653,12.7945,12.9297,12.9677,13.0306,13.2083,13.2794,13.2786,13.3027,13.2598,13.2344,13.2574,13.2649,13.2718,13.3241,13.3017,13.3017,13.2624,13.2569,13.2058,13.0206,12.9895,12.9484,12.8331,12.81,12.7945,12.7639,12.772,12.7571,12.7558,12.7496,12.772,12.81,12.7502,12.7191,10.8751,10.8609,11.0168,11.0799,11.0941,11.2165,11.2787,11.3062,0.0,0.0,0.0,11.768,11.8149,11.8149,11.8149,11.8149,11.8149,11.8149,11.8304,11.8684,12.011,12.0852,12.1151,12.2405,12.3072,12.3072,12.3371,12.3446,12.3596,12.5471,12.7128,12.8406,12.8773,13.0412,13.3247,13.3391,13.3547,13.3771,13.2948,13.2493,13.25,13.1166,12.8468,12.4418,12.5695,12.4355,12.0099,12.1002,11.9552,11.5303,11.3416,11.2572,11.2541,11.0916,11.1793,11.5606,11.4853,11.418,11.4186,11.4186,11.418,11.418,11.5653,11.6453,11.6148,11.6143,11.6683,11.8074,11.8459,11.8609,11.8689,12.0156,12.1146,12.1117,12.2268,12.2993,12.3054,12.3368,12.3505,12.3509,12.3883,12.455,12.6219,12.6524,12.7514,13.0107,13.0705,13.1341,13.2269,13.0692,12.9515,13.0643,13.0861,13.1384,13.25,13.2792,13.2363,13.1123,13.0855,13.0331,12.8998,12.8549,12.8412,12.7801,12.81,12.7409,12.6332,12.6051,12.5988,12.6026,12.6051,12.6374,12.7421,12.5926,12.4182,10.7865,10.7567,10.8701,10.9469,0.0,11.111,11.1318,11.1026,11.1923,11.3056,11.4412,11.533,11.5756,11.5756,11.6578,11.6878,11.6958,11.7775,11.8149,11.8229,11.9058,11.9431,11.9426,12.0243,12.0616,12.0616,12.1439,12.1893,12.1962,12.3533,12.4723,12.5552,12.6374,12.7197,12.8007,13.0406,13.131,13.0487,12.9658,12.9203,12.921,12.8393,12.6823,12.4493,12.5097,0.0,0.0,0.0,0.0,0.0,0.0,0.0,0.0,0.0,0.0,10.6857,10.2296,9.9524,9.9529,9.9605,10.1392,10.5493,10.7306,10.751,10.5819,11.1116,11.3435,11.1109,11.3812,11.6061,11.6836,11.7681,11.8516,11.9391,12.0081,12.0599,12.0685,12.1332,12.1825,12.1933,12.2537,12.3347,12.4194,12.4269,12.5339,12.7557,12.7937,12.8517,12.9895,12.8375,12.7397,12.8923,12.9297,12.9596,13.0331,13.0481,13.0126,12.939,12.8487,12.7714,12.6948,12.6095,12.5572,12.554,12.5584,12.5341,12.4457,12.4331,12.4269,12.4251,12.4257,12.4666,12.5169,12.4235,12.3054,10.6298,10.5664,10.6761,10.7752,10.8609,10.8891,10.8972,10.8891,10.9923,11.1082,11.2273,11.2983,11.3277,11.3427,11.4629,11.5227,11.5307,11.6958,11.7706,11.7711,11.8085,11.8149,11.8149,11.8149,11.8149,11.8229,11.9581,12.0254,12.0254,12.1813,12.2629,12.2629,12.4275,12.4574,12.3826,0.0,0.0,0.0,12.6449,12.6075,12.6075,12.6069,12.5477,12.4281,12.4729,0.0,12.1352,12.0547,11.9046,11.6533,11.6343,0.0,0.0,0.0,0.0,0.0,0.0,0.0,0.0,0.0,0.0,0.0,9.5215,9.5318,9.4502,10.3314,10.6902,10.1897,10.8273,11.3091,11.3775,11.4641,11.5789,11.7091,11.7229,11.7378,11.7758,11.893,11.9958,12.0168,12.1278,12.2232,12.2549,12.2629,12.3251,12.4875,12.5088,12.5663,12.6973,12.5952,12.5647,12.6817,12.6973,12.7122,12.7122,12.7122,12.7122,12.7041,12.5889,12.5198,12.5049,12.3984,12.3105,12.3204,12.3012,12.3069,12.2629,12.2635,12.2624,12.2606,12.2624,12.2584,12.2366,12.232,12.2262,10.1479,10.0864,10.3077,10.4813,10.6096,10.4823,10.5475,10.7483,10.8807,11.082,11.3092,11.3244,11.3277,11.3352,11.3582,11.3657,11.3731,11.5302,11.598,11.6055,11.7481,11.8149,11.8149,11.8149,11.8149,11.8149,11.8384,11.8534,11.8528,12.0179,12.1008,12.1077,12.2629,12.4044,12.5172,12.5851,12.5327,12.3751,12.6374,12.7807,12.772,12.7801,12.5034,11.9575,12.1882,12.0605,11.4928,11.7102,11.5757,10.9981,10.9533,10.8108,10.5102,10.2614,9.9066,0.0,9.0485,0.0,0.0,0.0,0.0,0.0,0.0,0.0,0.0,9.1422,9.3668,9.2759,10.3871,11.0022,10.7456,11.1101,11.3704,11.3925,11.3982,11.4448,11.5763,11.6125,11.689,11.8304,11.8672,11.9426,12.0772,12.1002,12.156,12.3045,12.3292,12.3383,12.3664,12.3598,12.3499,12.359,12.367,12.4125,12.4125,12.3895,12.3895,12.3826,12.3521,12.344,12.344,12.3131,12.2942,12.2946,12.2836,12.2474,12.1272,12.1025,12.0984,12.1087,12.1031,12.0822,12.007,11.9921,11.9523,10.009,10.0446,10.0746,10.1155,10.1708,10.101,10.1878,10.3858,10.4888,10.5791,10.6582,10.7405,10.7819,10.7899,10.8796,10.9694,11.0596,11.223,11.3507,11.4404,11.5152,11.5975,11.6803,11.6803,11.7257,11.8149,11.8149,11.8149,11.8229,11.8977,11.9351,11.9357,12.0921,11.9794,11.636,12.1433,12.4275,12.4424,12.6829,12.81,12.8026,12.6225,12.4349,12.2336,12.1962,12.0398,11.7556,11.6958,11.5406,11.2529,11.0617,10.8599,10.6075,9.594,8.9795,0.0,0.0,0.0,0.0,0.0,0.0,0.0,0.0,0.0,0.0,0.0,8.293,8.9352,10.0119,10.4614,9.9689,10.2794,10.5931,10.7847,10.5441,10.6192,11.2303,11.1473,11.207,11.6262,11.6935,11.7528,11.9058,11.9282,11.9903,12.1537,12.0967,12.068,12.1536,12.1912,12.236,12.324,12.3314,12.344,12.3608,12.3452,12.3314,12.2993,12.232,12.1785,12.194,12.1203,12.068,12.0795,12.0927,12.064,11.9995,11.9828,11.9811,11.9874,11.9831,11.9683,11.9232,11.9183,11.9132,9.8033,9.8531,9.6216,9.556,9.6224,9.6164,9.7608,9.9925,10.0683,10.0867,10.0575,10.1698,10.1623,10.0496,10.1025,10.2525,10.4843,10.6927,10.9389,11.2086,11.254,11.3587,11.5083,11.5077,11.5756,11.6878,11.621,11.621,11.6952,11.621,11.5462,11.4784,11.5991,11.3593,10.8283,11.5606,12.1134,12.4355,12.6075,12.6904,12.6823,12.4349,12.3521,12.4436,12.2043,12.0335,11.95,11.7027,11.5141,11.3912,11.0067,10.6553,10.3582,8.8735,0.0,0.0,0.0,0.0,0.0,0.0,0.0,0.0,0.0,6.6455,5.868,0.0,7.3542,0.0,9.3955,9.8295,9.4309,9.5639,0.0,0.0,9.5869,9.5851,10.408,10.45,10.6299,11.2191,11.4417,11.6068,11.7534,11.7994,11.8534,11.9385,11.8919,11.8891,11.9966,12.0424,12.0979,12.2169,12.2254,12.248,12.2647,12.2561,12.2198,12.1992,12.1002,12.0311,12.0616,11.9486,11.8756,11.906,11.9214,11.9192,11.9194,11.9171,11.8978,11.8384,11.8175,11.8208,11.8218,11.8148,11.829,9.346,9.1726,8.7112,8.6765,8.9399,8.9424,9.212,9.6436,9.7274,9.8032,9.874,9.8912,9.6393,9.1968,8.906,0.0,9.4814,9.8038,10.2749,10.8732,11.0238,11.1873,11.3507,11.3507,11.3582,11.3662,11.0527,11.0602,11.3432,11.0676,10.7535,10.4684,10.4758,10.5287,10.6189,10.8358,11.3294,12.0933,12.2635,12.3446,12.3446,12.3147,12.2411,12.1157,12.0858,11.9201,11.6199,11.5825,11.3587,10.8951,10.2904,9.6692,9.0376,0.0,0.0,0.0,0.0,0.0,0.0,0.0,0.0,0.0,0.0,0.0,0.0,0.0,0.0,0.0,8.3283,0.0,9.3647,9.2628,0.0,0.0,0.0,8.422,8.8162,9.3833,9.9366,10.4338,0.0,0.0,11.5993,11.7384,11.7764,11.6533,11.7994,11.9,11.8764,11.8862,11.89,11.9639,11.9077,11.8925,11.9823,11.92,11.8837,11.9247,11.8845,11.8828,11.9091,11.8942,11.9093,11.9008,11.9136,11.9068,11.9147,11.8824,11.8388,11.582,11.534,11.5415,11.5491,11.5491,11.5835,8.5735,7.8454,7.6294,7.7694,8.1133,8.0761,8.4495,9.0869,9.1209,9.0415,8.8956,8.9447,8.6298,8.0606,7.9335,0.0,0.0,0.0,9.2724,10.095,10.1558,10.4395,10.8652,10.8871,10.9325,11.0222,10.8887,10.8951,11.0302,10.9928,10.073,8.3444,0.0,0.0,9.1299,10.1548,11.0003,11.613,12.0685,12.2549,12.1669,12.2555,12.233,12.0709,11.8678,11.7027,11.5676,11.2765,10.845,10.2657,9.6108,8.9101,0.0,0.0,0.0,0.0,0.0,0.0,0.0,0.0,0.0,0.0,0.0,5.1384,4.5947,0.0,0.0,0.0,6.4665,6.8951,7.4276,7.9415,0.0,0.0,0.0,0.0,0.0,0.0,0.0,9.4051,10.0085,10.5252,10.9752,11.2595,11.476,11.6222,11.7126,11.7919,11.877,0.0,11.9224,11.9366,11.9143,11.9155,11.9546,11.7485,11.6517,11.8743,11.8227,11.7235,11.65,11.6333,11.6397,11.6574,11.6684,11.6679,11.6702,11.5016,11.3247,11.2226,11.1999,11.2454,11.3441,11.3517,11.4041,7.6924,0.0,0.0,0.0,0.0,7.2267,7.5896,8.2186,8.2181,8.0825,7.8752,7.9319,0.0,0.0,0.0,0.0,0.0,0.0,8.4648,9.3103,9.5122,9.8786,10.3796,10.3801,10.4395,10.5442,10.4464,10.3577,10.268,10.1488,8.9891,6.8867,0.0,0.0,0.0,0.0,10.4619,11.1793,11.8367,12.114,12.0035,12.1065,12.1134,11.9955,11.7182,11.5227,11.4255,10.8577,10.2435,9.5953,8.7097,0.0,0.0,0.0,0.0,0.0,0.0,0.0,0.0,0.0,0.0,0.0,0.0,0.0,0.0,0.0,0.0,0.0,0.0,0.0,6.1695,6.8737,7.2428,0.0,0.0,0.0,0.0,0.0,0.0,0.0,0.0,0.0,9.9972,10.4865,10.9806,0.0,0.0,11.6066,11.7593,11.7968,11.8104,11.8235,11.7676,0.0,11.7711,11.5361,11.4314,11.6957,11.619,11.4504,11.215,11.2606,11.2986,11.2226,11.291,11.291,11.1163,10.805,10.6,10.6304,10.6,10.638,10.843,10.9417,11.0252,0.0,0.0,0.0,0.0,0.0,0.0,0.0,0.0,6.972,6.9717,0.0,6.9591,0.0,0.0,0.0,0.0,6.5057,7.2616,0.0,0.0,9.2724,9.6991,9.8571,9.8641,9.8721,9.8646,9.5416,9.2201,8.8774,8.137,0.0,0.0,0.0,0.0,0.0,0.0,9.5505,10.8134,11.5014,11.8304,11.8304,11.8304,11.8379,11.8304,11.6578,11.41,11.0805,10.3123,9.5786,8.9075,7.513,0.0,0.0,0.0,0.0,0.0,0.0,0.0,0.0,0.0,0.0,0.0,0.0,0.0,0.0,0.0,0.0,0.0,0.0,0.0,0.0,6.3537,0.0,0.0,0.0,0.0,0.0,0.0,0.0,0.0,0.0,0.0,8.6363,9.4231,10.2659,10.9037,0.0,0.0,0.0,0.0,11.4851,11.5231,11.3335,11.2133,11.2818,11.2129,11.1738,11.2145,0.0,0.0,10.6076,10.7898,10.8961,10.5924,10.7898,10.8126,10.1444,9.742,9.5901,9.7268,9.6433,9.666,9.947,10.1064,10.3266,0.0,0.0,0.0,0.0,0.0,0.0,0.0,0.0,0.0,6.4524,0.0,6.258,0.0,0.0,0.0,0.0,0.0,0.0,0.0,0.0,8.0685,8.4058,8.5708,8.8919,8.8246,0.0,8.2936,7.7847,0.0,0.0,0.0,0.0,0.0,0.0,0.0,0.0,9.2425,10.3263,11.3139,11.8149,11.8149,11.8149,11.8149,11.8154,11.6578,11.1114,10.1468,9.5271,8.8574,0.0,0.0,0.0,0.0,0.0,0.0,0.0,0.0,0.0,0.0,0.0,0.0,0.0,0.0,0.0,0.0,0.0,0.0,0.0,0.0,0.0,0.0,0.0,6.3109,0.0,0.0,0.0,0.0,0.0,0.0,0.0,0.0,0.0,7.6916,8.6562,9.6281,10.395,10.843,11.1847,11.4504,0.0,0.0,0.0,0.0,0.0,0.0,0.0,10.7654,10.8823,10.4509,10.0761,10.0229,10.1064,10.114,9.8938,0.0,0.0,8.6106,8.2765,8.2158,8.2765,8.4208,8.5575,8.6713,8.9143,9.1421,0.0,0.0,0.0,0.0,0.0,0.0,0.0,0.0,0.0,5.7795,5.5843,0.0,0.0,0.0,0.0,0.0,0.0,0.0,0.0,0.0,0.0,0.0,7.5608,7.889,0.0,0.0,0.0,0.0,0.0,0.0,0.0,0.0,0.0,0.0,0.0,0.0,8.9953,9.937,11.1718,11.8149,11.8149,11.8149,11.8149,11.8149,11.6504,10.9993,9.8029,0.0,0.0,0.0,0.0,0.0,0.0,0.0,0.0,0.0,0.0,0.0,0.0,0.0,0.0,0.0,0.0,0.0,0.0,0.0,0.0,0.0,0.0,0.0,0.0,0.0,5.9608,0.0,0.0,0.0,0.0,0.0,0.0,0.0,0.0,0.0,0.0,0.0,8.7625,9.704,10.2659,10.7443,11.1923,11.253,11.253,0.0,0.0,0.0,0.0,0.0,0.0,0.0,0.0,0.0,0.0,0.0,0.0,0.0,0.0,8.641,7.54,7.2438,7.1831,7.2362,0.0,0.0,0.0,0.0,0.0,0.0,0.0,0.0,0.0,0.0,0.0,0.0,0.0,0.0,0.0,4.9269,0.0,0.0,4.9194,0.0,0.0,0.0,0.0,0.0,0.0,0.0,0.0,0.0,0.0,0.0,0.0,0.0,0.0,0.0,0.0,0.0,0.0,0.0,0.0,0.0,0.0,8.7868,9.6089,11.0676,11.8149,11.8149,11.8149,11.8149,11.8154,11.6504,11.0885,10.0861,0.0,0.0,0.0,0.0,0.0,0.0,0.0,0.0,0.0,0.0,0.0,0.0,0.0,0.0,0.0,0.0,0.0,0.0,0.0,0.0,0.0,0.0,0.0,0.0,0.0,0.0,5.3456,5.8771,6.2112,0.0,0.0,0.0,0.0,0.0,0.0,0.0,0.0,0.0,0.0,9.4307,10.0001,10.6532,10.7443,10.7519,10.7595,10.6152,10.4481,10.3115,10.3874,10.2583,0.0,0.0,0.0,0.0,0.0,0.0,0.0,0.0,0.0,0.0,0.0,0.0,0.0,0.0,0.0,0.0,0.0,0.0,0.0,0.0,0.0,0.0,0.0,0.0,0.0,0.0,0.0,0.0,0.0,0.0,0.0,0.0,0.0,0.0,0.0,0.0,0.0,0.0,0.0,0.0,0.0,0.0,0.0,0.0,0.0,0.0,0.0,0.0,0.0,0.0,0.0,0.0,0.0,0.0,8.7793,9.6019,11.0676,11.8149,11.8149,11.8149,11.8149,11.808,11.5457,10.8796,0.0,0.0,0.0,0.0,0.0,0.0,0.0,0.0,0.0,0.0,0.0,0.0,0.0,0.0,0.0,0.0,0.0,0.0,0.0,0.0,0.0,0.0,0.0,0.0,0.0,0.0,0.0,0.0,6.5149,6.6212,6.2264,0.0,0.0,0.0,0.0,0.0,0.0,0.0,0.0,0.0,0.0,9.7799,10.3191,10.395,10.433,10.5544,10.4254,10.3418,10.4102,10.1748,9.8711,9.5522,0.0,0.0,0.0,0.0,0.0,0.0,0.0,0.0,0.0,0.0,0.0,0.0,0.0,0.0,0.0,0.0,0.0,0.0,0.0,0.0,0.0,0.0,0.0,0.0,0.0,0.0,0.0,0.0,0.0,0.0,0.0,0.0,0.0,0.0,0.0,0.0,0.0,0.0,0.0,0.0,0.0,0.0,0.0,0.0,0.0,0.0,0.0,0.0,0.0,0.0,0.0,0.0,0.0,8.6817,9.5042,10.9704,11.7556,11.8154,11.8149,11.7855,11.7257,11.4709,10.6409,0.0,0.0,0.0,0.0,0.0,0.0,0.0,0.0,0.0,0.0,0.0,0.0,0.0,0.0,0.0,0.0,0.0,0.0,0.0,0.0,0.0,0.0,0.0,0.0,0.0,0.0,0.0,0.0,6.2036,6.401,6.0973,0.0,0.0,0.0,0.0,0.0,0.0,0.0,0.0,0.0,0.0,9.2256,9.7875,9.9166,0.0,0.0,10.0685,10.0001,10.0989,9.9166,9.5749,9.0206,8.565,0.0,0.0,0.0,0.0,0.0,0.0,0.0,0.0,0.0,0.0,0.0,0.0,0.0,0.0,0.0,0.0,0.0,0.0,0.0,0.0,0.0,0.0,0.0,0.0,0.0,0.0,0.0,0.0,0.0,0.0,0.0,0.0,0.0,0.0,0.0,0.0,0.0,0.0,0.0,0.0,0.0,0.0,0.0,0.0,0.0,0.0,0.0,0.0,0.0,0.0,0.0,0.0,0.0,9.3692,10.8123,11.6504,11.8074,11.8149,11.7332,11.5681,11.41,10.4081,0.0,0.0,0.0,0.0,0.0,0.0,0.0,0.0,0.0,0.0,0.0,0.0,0.0,0.0,0.0,0.0,0.0,0.0,0.0,0.0,0.0,0.0,0.0,0.0,0.0,0.0,0.0,0.0,0.0,0.0,0.0,0.0,0.0,0.0,0.0,0.0,0.0,0.0,0.0,0.0,0.0,8.4891,9.1573,9.3623,9.5066,0.0,9.5597,9.4534,9.4838,9.5977,9.3016,8.2082,0.0,0.0,0.0,0.0,0.0,0.0,0.0,0.0,0.0,0.0,0.0,0.0,0.0,0.0,0.0,0.0,0.0,0.0,0.0,0.0,0.0,0.0,0.0,0.0,0.0,0.0,0.0,0.0,0.0,0.0,0.0,0.0,0.0,0.0,0.0,0.0,0.0,0.0,0.0,0.0,0.0,0.0,0.0,0.0,0.0,0.0,0.0,0.0,0.0,0.0,0.0,0.0,0.0,0.0,9.3538,10.8123,11.6504,11.816,11.8149,11.7407,11.5681,11.418,0.0,0.0,0.0,0.0,0.0,0.0,0.0,0.0,0.0,0.0,0.0,0.0,0.0,0.0,0.0,0.0,0.0,0.0,0.0,0.0,0.0,0.0,0.0,0.0,0.0,0.0,0.0,4.3357,0.0,0.0,0.0,0.0,0.0,0.0,0.0,0.0,0.0,0.0,0.0,0.0,0.0,0.0,8.4891,9.1573,8.9599,8.8991,0.0,0.0,8.884,9.256,9.0358,8.6638,0.0,0.0,0.0,0.0,0.0,0.0,0.0,0.0,0.0,0.0,0.0,0.0,0.0,0.0,0.0,0.0,0.0,0.0,0.0,0.0,0.0,0.0,0.0,0.0,0.0,0.0,0.0,0.0,0.0,0.0,0.0,0.0,0.0,0.0,0.0,0.0,0.0,0.0,0.0,0.0,0.0,0.0,0.0,0.0,0.0,0.0,0.0,0.0,0.0,0.0,0.0,0.0,0.0,0.0,8.2098,9.2416,10.4235,11.2236,11.5905,11.6055,11.5313,11.3598,11.1942,10.2221,0.0,0.0,0.0,0.0,0.0,0.0,0.0,0.0,0.0,0.0,0.0,0.0,0.0,0.0,0.0,0.0,0.0,0.0,0.0,0.0,0.0,0.0,0.0,0.0,0.0,0.0,0.0,0.0,0.0,0.0,0.0,0.0,0.0,0.0,0.0,0.0,0.0,0.0,0.0,0.0,0.0,0.0,8.7625,8.5119,0.0,0.0,0.0,8.4056,8.7625,0.0,0.0,0.0,0.0,0.0,0.0,0.0,0.0,0.0,0.0,0.0,0.0,0.0,0.0,0.0,0.0,0.0,0.0,0.0,0.0,0.0,0.0,0.0,0.0,0.0,0.0,0.0,0.0,0.0,0.0,0.0,0.0,0.0,0.0,0.0,0.0,0.0,0.0,0.0,0.0,0.0,0.0,0.0,0.0,0.0,0.0,0.0,0.0,0.0,0.0,0.0,0.0,0.0,0.0,0.0,0.0,0.0,9.0666,9.9515,10.7002,11.2903,11.3352,11.2546,11.0836,10.9181,9.9828,0.0,0.0,0.0,0.0,0.0,0.0,0.0,0.0,0.0,0.0,0.0,0.0,0.0,0.0,0.0,0.0,0.0,0.0,0.0,0.0,0.0,0.0,0.0,0.0,0.0,0.0,0.0,0.0,0.0,0.0,0.0,0.0,0.0,0.0,0.0,0.0,0.0,0.0,0.0,0.0,0.0,8.1702,8.2082,8.0259,7.8969,0.0,0.0,7.9348,8.155,8.1398,0.0,0.0,0.0,0.0,0.0,0.0,0.0,0.0,0.0,0.0,0.0,0.0,0.0,0.0,0.0,0.0,0.0,0.0,0.0,0.0,0.0,0.0,0.0,0.0,0.0,0.0,0.0,0.0,0.0,0.0,0.0,0.0,0.0,0.0,0.0,0.0,0.0,0.0,0.0,0.0,0.0,0.0,0.0,0.0,0.0,0.0,0.0,0.0,0.0,0.0,0.0,0.0,0.0,0.0,0.0,0.0,8.9365,10.1175,10.925,11.3053,11.3277,11.254,11.0836,10.9111,10.0431,0.0,0.0,0.0,0.0,0.0,0.0,0.0,0.0,0.0,0.0,0.0,0.0,0.0,0.0,0.0,0.0,0.0,0.0,0.0,0.0,0.0,0.0,0.0,0.0,0.0,0.0,0.0,0.0,0.0,0.0,0.0,0.0,0.0,0.0,0.0,0.0,0.0,0.0,0.0,0.0,0.0,7.7526,8.0107,7.5703,0.0,0.0,0.0,0.0,7.7678,7.5096,0.0,0.0,0.0,0.0,0.0,0.0,0.0,0.0,0.0,0.0,0.0,0.0,0.0,0.0,0.0,0.0,0.0,0.0,0.0,0.0,0.0,0.0,0.0,0.0,0.0,0.0,0.0,0.0,0.0,0.0,0.0,0.0,0.0,0.0,0.0,0.0,0.0,0.0,0.0,0.0,0.0,0.0,0.0,0.0,0.0,0.0,0.0,0.0,0.0,0.0,0.0,0.0,0.0,0.0,0.0,0.0,8.9671,9.8136,10.4769,10.9549,11.0602,11.0228,10.8513,10.615,9.7837,0.0,0.0,0.0,0.0,0.0,0.0,0.0,0.0,0.0,0.0,0.0,0.0,0.0,0.0,0.0,0.0,0.0,0.0,0.0,0.0,0.0,0.0,0.0,0.0,0.0,0.0,0.0,0.0,0.0,0.0,0.0,0.0,0.0,0.0,0.0,0.0,0.0,0.0,0.0,0.0,7.1831,7.6007,7.8513,0.0,0.0,0.0,0.0,0.0,0.0,7.1527,6.849,0.0,0.0,0.0,0.0,0.0,0.0,0.0,0.0,0.0,0.0,0.0,0.0,0.0,0.0,0.0,0.0,0.0,0.0,0.0,0.0,0.0,0.0,0.0,0.0,0.0,0.0,0.0,0.0,0.0,0.0,0.0,0.0,0.0,0.0,0.0,0.0,0.0,0.0,0.0,0.0,0.0,0.0,0.0,0.0,0.0,0.0,0.0,0.0,0.0,0.0,0.0,0.0,0.0,0.0,0.0,8.9056,9.3749,9.9286,10.5805,10.7301,10.7301,10.5965,10.2649,9.4498,8.1209,0.0,0.0,0.0,0.0,0.0,0.0,0.0,0.0,0.0,0.0,0.0,0.0,0.0,0.0,0.0,0.0,0.0,0.0,0.0,0.0,0.0,0.0,0.0,0.0,0.0,0.0,0.0,0.0,0.0,0.0,0.0,0.0,0.0,0.0,0.0,0.0,0.0,0.0,0.0,7.0009,7.3881,0.0,0.0,0.0,0.0,0.0,0.0,0.0,0.0,6.7275,0.0,0.0,0.0,0.0,0.0,0.0,0.0,0.0,0.0,0.0,0.0,0.0,0.0,0.0,0.0,0.0,0.0,0.0,0.0,0.0,0.0,0.0,0.0,0.0,0.0,0.0,0.0,0.0,0.0,0.0,0.0,0.0,0.0,0.0,0.0,0.0,0.0,0.0,0.0,0.0,0.0,0.0,0.0,0.0,0.0,0.0,0.0,0.0,0.0,0.0,0.0,0.0,0.0,0.0,0.0,0.0,9.1266,9.9691,10.5914,10.5354,10.522,10.5816,10.1647,9.2302,7.7776,0.0,0.0,0.0,0.0,0.0,0.0,0.0,0.0,0.0,0.0,0.0,0.0,0.0,0.0,0.0,0.0,0.0,0.0,0.0,0.0,0.0,0.0,0.0,0.0,0.0,0.0,0.0,0.0,0.0,0.0,0.0,0.0,0.0,0.0,0.0,0.0,0.0,0.0,5.6341,6.2415,0.0,0.0,0.0,0.0,0.0,0.0,0.0,0.0,6.6895,0.0,0.0,0.0,0.0,0.0,0.0,0.0,0.0,0.0,0.0,0.0,0.0,0.0,0.0,0.0,0.0,0.0,0.0,0.0,0.0,0.0,0.0,0.0,0.0,0.0,0.0,0.0,0.0,0.0,0.0,0.0,0.0,0.0,0.0,0.0,0.0,0.0,0.0,0.0,0.0,0.0,0.0,0.0,0.0,0.0,0.0,0.0,0.0,0.0,0.0,0.0,0.0,0.0,0.0,0.0,0.0,0.0,0.0,9.6705,10.2296,10.362,10.3537,10.2081,9.679,8.8059,0.0,0.0,0.0,0.0,0.0,0.0,0.0,0.0,0.0,0.0,0.0,0.0,0.0,0.0,0.0,0.0,0.0,0.0,0.0,0.0,0.0,0.0,0.0,0.0,0.0,0.0,0.0,0.0,0.0,0.0,0.0,0.0,0.0,0.0,0.0,0.0,0.0,0.0,0.0,0.0,0.0,0.0,0.0,0.0,0.0,0.0,0.0,0.0,0.0,0.0,0.0,0.0,0.0,0.0,0.0,0.0,0.0,0.0,0.0,0.0,0.0,0.0,0.0,0.0,0.0,0.0,0.0,0.0,0.0,0.0,0.0,0.0,0.0,0.0,0.0,0.0,0.0,0.0,0.0,0.0,0.0,0.0,0.0,0.0,0.0,0.0,0.0,0.0,0.0,0.0,0.0,0.0,0.0,0.0,0.0,0.0,0.0,0.0,0.0,0.0,0.0,0.0,0.0,0.0,0.0,0.0,0.0,0.0,9.3782,9.9098,10.1897,10.1872,9.9034,9.2104,8.3767,0.0,0.0,0.0,0.0,0.0,0.0,0.0,0.0,0.0,0.0,0.0,0.0,0.0,0.0,0.0,0.0,0.0,0.0,0.0,0.0,0.0,0.0,0.0,0.0,0.0,0.0,0.0,0.0,0.0,0.0,0.0,0.0,0.0,0.0,0.0,0.0,0.0,0.0,0.0,0.0,0.0,0.0,0.0,0.0,0.0,0.0,0.0,0.0,6.363,0.0,0.0,0.0,0.0,0.0,0.0,0.0,0.0,0.0,0.0,0.0,0.0,0.0,0.0,0.0,0.0,0.0,0.0,0.0,0.0,0.0,0.0,0.0,0.0,0.0,0.0,0.0,0.0,0.0,0.0,0.0,0.0,0.0,0.0,0.0,0.0,0.0,0.0,0.0,0.0,0.0,0.0,0.0,0.0,0.0,0.0,0.0,0.0,0.0,0.0,0.0,0.0,0.0,0.0,0.0,0.0,0.0,0.0,0.0,9.2963,9.9307,10.0057,9.9946,9.8889,8.9926,8.0843,0.0,0.0,0.0,0.0,0.0,0.0,0.0,0.0,0.0,0.0,0.0,0.0,0.0,0.0,0.0,0.0,0.0,0.0,0.0,0.0,0.0,0.0,0.0,0.0,0.0,0.0,0.0,0.0,0.0,0.0,0.0,0.0,0.0,0.0,0.0,0.0,0.0,0.0,0.0,0.0,0.0,0.0,0.0,0.0,0.0,0.0,0.0,0.0,0.0,0.0,0.0,0.0,0.0,0.0,0.0,0.0,0.0,0.0,0.0,0.0,0.0,0.0,0.0,0.0,0.0,0.0,0.0,0.0,0.0,0.0,0.0,0.0,0.0,0.0,0.0,0.0,0.0,0.0,0.0,0.0,0.0,0.0,0.0,0.0,0.0,0.0,0.0,0.0,0.0,0.0,0.0,0.0,0.0,0.0,0.0,0.0,0.0,0.0,0.0,0.0,0.0,0.0,0.0,0.0,0.0,0.0,0.0,0.0,8.7125,9.3883,9.5855,9.6317,9.508,8.5412,7.711,0.0,0.0,0.0,0.0,0.0,0.0,0.0,0.0,0.0,0.0,0.0,0.0,0.0,0.0,0.0,0.0,0.0,0.0,0.0,0.0,0.0,0.0,0.0,0.0,0.0,0.0,0.0,0.0,0.0,0.0,0.0,0.0,0.0,0.0,0.0,0.0,0.0,0.0,0.0,0.0,0.0,0.0,0.0,0.0,0.0,0.0,0.0,0.0,0.0,0.0,0.0,0.0,0.0,0.0,0.0,0.0,0.0,0.0,0.0,0.0,0.0,0.0,0.0,0.0,0.0,0.0,0.0,0.0,0.0,0.0,0.0,0.0,0.0,0.0,0.0,0.0,0.0,0.0,0.0,0.0,0.0,0.0,0.0,0.0,0.0,0.0,0.0,0.0,0.0,0.0,0.0,0.0,0.0,0.0,0.0,0.0,0.0,0.0,0.0,0.0,0.0,0.0,0.0,0.0,0.0,0.0,0.0,0.0,0.0,8.8459,9.1803,9.1997,8.8913,8.0503,7.3109,0.0,0.0,0.0,0.0,0.0,0.0,0.0,0.0,0.0,0.0,0.0,0.0,0.0,0.0,0.0,0.0,0.0,0.0,0.0,0.0,0.0,0.0,0.0,0.0,0.0,0.0,0.0,0.0,0.0,0.0,0.0,0.0,0.0,0.0,0.0,0.0,0.0,0.0,0.0,0.0,0.0,0.0,0.0,0.0,0.0,0.0,0.0,0.0,0.0,0.0,0.0,0.0,0.0,0.0,0.0,0.0,0.0,0.0,0.0,0.0,0.0,0.0,0.0,0.0,0.0,0.0,0.0,0.0,0.0,0.0,0.0,0.0,0.0,0.0,0.0,0.0,0.0,0.0,0.0,0.0,0.0,0.0,0.0,0.0,0.0,0.0,0.0,0.0,0.0,0.0,0.0,0.0,0.0,0.0,0.0,0.0,0.0,0.0,0.0,0.0,0.0,0.0,0.0,0.0,0.0,0.0,0.0,0.0,0.0,8.5195,8.8536,8.7166,8.1018,7.5467,6.8742,0.0,0.0,0.0,0.0,0.0,0.0,0.0,0.0,0.0,0.0,0.0,0.0,0.0,0.0,0.0,0.0,0.0,0.0,0.0,0.0,0.0,0.0,0.0,0.0,0.0,0.0,0.0,0.0,0.0,0.0,0.0,0.0,0.0,0.0,0.0,0.0,0.0,0.0,0.0,0.0,0.0,0.0,0.0,0.0,0.0,0.0,0.0,0.0,0.0,0.0,0.0,0.0,0.0,0.0,0.0,0.0,0.0,0.0,0.0,0.0,0.0,0.0,0.0,0.0,0.0,0.0,0.0,0.0,0.0,0.0,0.0,0.0,0.0,0.0,0.0,0.0,0.0,0.0,0.0,0.0,0.0,0.0,0.0,0.0,0.0,0.0,0.0,0.0,0.0,0.0,0.0,0.0,0.0,0.0,0.0,0.0,0.0,0.0,0.0,0.0,0.0,0.0,0.0,0.0,0.0,0.0,0.0,0.0,0.0,7.4261,7.8361,8.0351,7.9838,7.0977,6.5576,6.4231,0.0,0.0,0.0,0.0,0.0,0.0,0.0,0.0,0.0,0.0,0.0,0.0,0.0,0.0,0.0,0.0,0.0,0.0,0.0,0.0,0.0,0.0,0.0,0.0,0.0,0.0,0.0,0.0,0.0,0.0,0.0,0.0,0.0,0.0,0.0,0.0,0.0,0.0,0.0,0.0,0.0,0.0,0.0,0.0,0.0,0.0,0.0,0.0,0.0,0.0,0.0,0.0,0.0,0.0,0.0,0.0,0.0,0.0,0.0,0.0,0.0,0.0,0.0,0.0,0.0,0.0,0.0,0.0,0.0,0.0,0.0,0.0,0.0,0.0,0.0,0.0,0.0,0.0,0.0,0.0,0.0,0.0,0.0,0.0,0.0,0.0,0.0,0.0,0.0,0.0,0.0,0.0,0.0,0.0,0.0,0.0,0.0,0.0,0.0,0.0,0.0,0.0,0.0,0.0,0.0,0.0,0.0,0.0,6.9097,7.3957,7.6385,7.5717,6.9224,6.4466,0.0,0.0,0.0,0.0,0.0,0.0,0.0,0.0,0.0,0.0,0.0,0.0,0.0,0.0,0.0,0.0,0.0,0.0,0.0,0.0,0.0,0.0,0.0,0.0,0.0,0.0,0.0,0.0,0.0,0.0,0.0,0.0,0.0,0.0,0.0,0.0,0.0,0.0,0.0,0.0,0.0,0.0,0.0,0.0,0.0,0.0,0.0,0.0,0.0,0.0,0.0,0.0,0.0,0.0,0.0,0.0,0.0,0.0,0.0,0.0,0.0,0.0,0.0,0.0,0.0,0.0,0.0,0.0,0.0,0.0,0.0,0.0,0.0,0.0,0.0,0.0,0.0,0.0,0.0,0.0,0.0,0.0,0.0,0.0,0.0,0.0,0.0,0.0,0.0,0.0,0.0,0.0,0.0,0.0,0.0,0.0,0.0,0.0,0.0,0.0,0.0,0.0,0.0,0.0,0.0,0.0,0.0,0.0,6.4238,7.1983,7.6994,7.5779,6.8186,7.0388,6.5225,0.0,0.0,0.0,0.0,0.0,0.0,0.0,0.0,0.0,0.0,0.0,0.0,0.0,0.0,0.0,0.0,0.0,0.0,0.0,0.0,0.0,0.0,0.0,0.0,0.0,0.0,0.0,0.0,0.0,0.0,0.0,0.0,0.0,0.0,0.0,0.0,0.0,0.0,0.0,0.0,0.0,0.0,0.0,0.0,0.0,0.0,0.0,0.0,0.0,0.0,0.0,0.0,0.0,0.0,0.0,0.0,0.0,0.0,0.0,0.0,0.0,0.0,0.0,0.0,0.0,0.0,0.0,0.0,0.0,0.0,0.0,0.0,0.0,0.0,0.0,0.0,0.0,0.0,0.0,0.0,0.0,0.0,0.0,0.0,0.0,0.0,0.0,0.0,0.0,0.0,0.0,0.0,0.0,0.0,0.0,0.0,0.0,0.0,0.0,0.0,0.0,0.0,0.0,0.0,0.0,0.0,0.0,0.0,0.0,6.4086,0.0,7.0844,0.0,6.7275,6.2188,0.0,0.0,0.0,0.0,0.0,0.0,0.0,0.0,0.0,0.0,0.0,0.0,0.0,0.0,0.0,0.0,0.0,0.0,0.0,0.0,0.0,0.0,0.0,0.0,0.0,0.0,0.0,0.0,0.0,0.0,0.0,0.0,0.0,0.0,0.0,0.0,0.0,0.0,0.0,0.0,0.0,0.0,0.0,0.0,0.0,0.0,0.0,0.0,0.0,0.0,0.0,0.0,0.0,0.0,0.0,0.0,0.0,0.0,0.0,0.0,0.0,0.0,0.0,0.0,0.0,0.0,0.0,0.0,0.0,0.0,0.0,0.0,0.0,0.0,0.0,0.0,0.0,0.0,0.0,0.0,0.0,0.0,0.0,0.0,0.0,0.0,0.0,0.0,0.0,0.0,0.0,0.0,0.0,0.0,0.0,0.0,0.0,0.0,0.0,0.0,0.0,0.0,0.0,0.0,0.0,0.0,0.0,0.0,0.0,6.2643,6.3175,6.7047,7.4033,6.7731,6.3554,0.0,0.0,0.0,0.0,0.0,0.0,0.0,0.0,0.0,0.0,0.0,0.0,0.0,0.0,0.0,0.0,0.0,0.0,0.0,0.0,0.0,0.0,0.0,0.0,0.0,0.0,0.0,0.0,0.0,0.0,0.0,0.0,0.0,0.0,0.0,0.0,0.0,0.0,0.0,0.0,0.0,0.0,0.0,0.0,0.0,0.0,0.0,0.0,0.0,0.0,0.0,0.0,0.0,0.0,0.0,0.0,0.0,0.0,0.0,0.0,0.0,0.0,0.0,0.0,0.0,0.0,0.0,0.0,0.0,0.0,0.0,0.0,0.0,0.0,0.0,0.0,0.0,0.0,0.0,0.0,0.0,0.0,0.0,0.0,0.0,0.0,0.0,0.0,0.0,0.0,0.0,0.0,0.0,0.0,0.0,0.0,0.0,0.0,0.0,0.0,0.0,0.0,0.0,0.0,0.0,0.0,0.0,0.0,0.0,0.0,6.5832,6.5073,6.5149,7.0844,6.8338,0.0,0.0,0.0,0.0,0.0,0.0,0.0,0.0,0.0,0.0,0.0,0.0,0.0,0.0,0.0,0.0,0.0,0.0,0.0,0.0,0.0,0.0,0.0,0.0,0.0,0.0,0.0,0.0,0.0,0.0,0.0,0.0,0.0,0.0,0.0,0.0,0.0,0.0,0.0,0.0,0.0,0.0,0.0,0.0,0.0,0.0,0.0,0.0,0.0,0.0,0.0,0.0,0.0,0.0,0.0,0.0,0.0,0.0,0.0,0.0,0.0,0.0,0.0,0.0,0.0,0.0,0.0,0.0,0.0,0.0,0.0,0.0,0.0,0.0,0.0,0.0,0.0,0.0,0.0,0.0,0.0,0.0,0.0,0.0,0.0,0.0,0.0,0.0,0.0,0.0,0.0,0.0,0.0,0.0,0.0,0.0,0.0,0.0,0.0,0.0,0.0,0.0,0.0,0.0,0.0,0.0,0.0,0.0,0.0,0.0,6.6364,0.0,6.3479,6.2643,6.1808,6.0517,0.0,0.0,0.0,0.0,0.0,0.0,0.0,0.0,0.0,0.0,0.0,0.0,0.0,0.0,0.0,0.0,0.0,0.0,0.0,0.0,0.0,0.0,0.0,0.0,0.0,0.0,0.0,0.0,0.0,0.0,0.0,0.0,0.0,0.0,0.0,0.0,0.0,0.0,0.0,0.0,0.0,0.0,0.0,0.0,0.0,0.0,0.0,0.0,0.0,0.0,0.0,0.0,0.0,0.0,0.0,0.0,0.0,0.0,0.0,0.0,0.0,0.0,0.0,0.0,0.0,0.0,0.0,0.0,0.0,0.0,0.0,0.0,0.0,0.0,0.0,0.0,0.0,0.0,0.0,0.0,0.0,0.0,0.0,0.0,0.0,0.0,0.0,0.0,0.0,0.0,0.0,0.0,0.0,0.0,0.0,0.0,0.0,0.0,0.0,0.0,0.0,0.0,0.0,0.0,0.0,0.0,0.0,0.0,0.0,0.0,0.0,6.363,6.158,6.0593,0.0,0.0,0.0,0.0,0.0,0.0,0.0,0.0,0.0,0.0,0.0,0.0,0.0,0.0,0.0,0.0,0.0,0.0,0.0,0.0,0.0,0.0,0.0,0.0,0.0,0.0,0.0,0.0,0.0,0.0,0.0,0.0,0.0,0.0,0.0,0.0,0.0,0.0,0.0,0.0,0.0,0.0,0.0,0.0,0.0,0.0,0.0,0.0,0.0,0.0,0.0,0.0,0.0,0.0,0.0,0.0,0.0,0.0,0.0,0.0,0.0,0.0,0.0,0.0,0.0,0.0,0.0,0.0,0.0,0.0,0.0,0.0,0.0,0.0,0.0,0.0,0.0,0.0,0.0,0.0,0.0,0.0,0.0,0.0,0.0,0.0,0.0,0.0,0.0,0.0,0.0,0.0,0.0,0.0,0.0,0.0,0.0,0.0,0.0,0.0,0.0,0.0,0.0,0.0,0.0,0.0,0.0,0.0,0.0,0.0,0.0,6.4997,6.4769,6.4921,0.0,5.7784,0.0,0.0,0.0,0.0,0.0,0.0,0.0,0.0,0.0,0.0,0.0,0.0,0.0,0.0,0.0,0.0,0.0,0.0,0.0,0.0,0.0,0.0,0.0,0.0,0.0,0.0,0.0,0.0,0.0,0.0,0.0,0.0,0.0,0.0,0.0,0.0,0.0,0.0,0.0,0.0,0.0,0.0,0.0,0.0,0.0,0.0,0.0,0.0,0.0,0.0,0.0,0.0,0.0,0.0,0.0,0.0,0.0,0.0,0.0,0.0,0.0,0.0,0.0,0.0,0.0,0.0,0.0,0.0,0.0,0.0,0.0,0.0,0.0,0.0,0.0,0.0,0.0,0.0,0.0,0.0,0.0,0.0,0.0,0.0,0.0,0.0,0.0,0.0,0.0,0.0,0.0,0.0,0.0,0.0,0.0,0.0,0.0,0.0,0.0,0.0,0.0,0.0,0.0,0.0,0.0,0.0,0.0,0.0,0.0,0.0,0.0,0.0,6.5605,6.3327,5.5961,0.0,0.0,0.0,0.0,0.0,0.0,0.0,0.0,0.0,0.0,0.0,0.0,0.0,0.0,0.0,0.0,0.0,0.0,0.0,0.0,0.0,0.0,0.0,0.0,0.0,0.0,0.0,0.0,0.0,0.0,0.0,0.0,0.0,0.0,0.0,0.0,0.0,0.0,0.0,0.0,0.0,0.0,0.0,0.0,0.0,0.0,0.0,0.0,0.0,0.0,0.0,0.0,0.0,0.0,0.0,0.0,0.0,0.0,0.0,0.0,0.0,0.0,0.0,0.0,0.0,0.0,0.0,0.0,0.0,0.0,0.0,0.0,0.0,0.0,0.0,0.0,0.0,0.0,0.0,0.0,0.0,0.0,0.0,0.0,0.0,0.0,0.0,0.0,0.0,0.0,0.0,0.0,0.0,0.0,0.0,0.0,0.0,0.0,0.0,0.0,0.0,0.0,0.0,0.0,0.0,0.0,0.0,0.0,0.0,0.0,6.6212,6.3782,6.4693,6.2036,5.5354,0.0,0.0,0.0,0.0,0.0,0.0,0.0,0.0,0.0,0.0,0.0,0.0,0.0,0.0,0.0,0.0,0.0,0.0,0.0,0.0,0.0,0.0,0.0,0.0,0.0,0.0,0.0,0.0,0.0,0.0,0.0,0.0,0.0,0.0,0.0,0.0,0.0,0.0,0.0,0.0,0.0,0.0,0.0,0.0,0.0,0.0,0.0,0.0,0.0,0.0,0.0,0.0,0.0,0.0,0.0,0.0,0.0,0.0,0.0,0.0,0.0,0.0,0.0,0.0,0.0,0.0,0.0,0.0,0.0,0.0,0.0,0.0,0.0,0.0,0.0,0.0,0.0,0.0,0.0,0.0,0.0,0.0,0.0,0.0,0.0,0.0,0.0,0.0,0.0,0.0,0.0,0.0,0.0,0.0,0.0,0.0,0.0,0.0,0.0,0.0,0.0,0.0,0.0,0.0,0.0,0.0,0.0,0.0,0.0,0.0,0.0,0.0,0.0,0.0,5.5582,0.0,0.0,0.0,0.0,0.0,0.0,0.0,0.0,0.0,0.0,0.0,0.0,0.0,0.0,0.0,0.0,0.0,0.0,0.0,0.0,0.0,0.0,0.0,0.0,0.0,0.0,0.0,0.0,0.0,0.0,0.0,0.0,0.0,0.0,0.0,0.0,0.0,0.0,0.0,0.0,0.0,0.0,0.0,0.0,0.0,0.0,0.0,0.0,0.0,0.0,0.0,0.0,0.0,0.0,0.0,0.0,0.0,0.0,0.0,0.0,0.0,0.0,0.0,0.0,0.0,0.0,0.0,0.0,0.0,0.0,0.0,0.0,0.0,0.0,0.0,0.0,0.0,0.0,0.0,0.0,0.0,0.0,0.0,0.0,0.0,0.0,0.0,0.0,0.0,0.0,0.0,0.0,0.0,0.0,0.0,0.0,0.0,0.0,0.0,0.0,0.0,0.0,0.0,0.0,0.0,0.0,0.0,0.0,0.0,0.0,0.0,0.0,0.0,0.0,0.0,0.0,0.0,0.0,0.0,0.0,0.0,0.0,0.0,0.0,0.0,0.0,0.0,0.0,0.0,0.0,0.0,0.0,0.0,0.0,0.0,0.0,0.0,0.0,0.0,0.0,0.0,0.0,0.0,0.0,0.0,0.0,0.0,0.0,0.0,0.0,0.0,0.0,0.0,0.0,0.0,0.0,0.0,0.0,0.0,0.0,0.0,0.0,0.0,0.0,0.0,0.0,0.0,0.0,0.0,0.0,0.0,0.0,0.0,0.0,0.0,0.0,0.0,0.0,0.0,0.0,0.0,0.0,0.0,0.0,0.0,0.0,0.0,0.0,0.0,0.0,0.0,0.0,0.0,0.0,0.0,0.0,0.0,0.0,0.0,0.0,0.0,0.0,0.0,0.0,0.0,0.0,0.0,0.0,0.0,0.0,0.0,0.0,0.0,0.0,0.0,0.0,0.0,0.0,0.0,0.0,0.0,0.0,0.0,0.0,0.0,0.0,0.0,0.0,0.0,0.0,0.0,0.0,0.0,0.0,0.0,0.0,0.0,0.0,0.0,0.0,0.0,0.0,0.0,0.0,0.0,0.0,0.0,0.0,0.0,0.0,0.0,0.0,0.0,0.0,0.0,0.0,0.0,0.0,0.0,0.0,0.0,0.0,0.0,0.0,0.0,0.0,0.0,0.0,0.0,0.0,0.0,0.0,0.0,0.0,0.0,0.0,0.0,0.0,0.0,0.0,0.0,0.0,0.0,0.0,0.0,0.0,0.0,0.0,0.0,0.0,0.0,0.0,0.0,0.0,0.0,0.0,0.0,0.0,0.0,0.0,0.0,0.0,0.0,0.0,0.0,0.0,0.0,0.0,0.0,0.0,0.0,0.0,0.0,0.0,0.0,0.0,0.0,0.0,0.0,0.0,0.0,0.0,0.0,0.0,0.0,0.0,0.0,0.0,0.0,0.0,0.0,0.0,0.0,0.0,0.0,0.0,0.0,0.0,0.0,0.0,0.0,0.0,0.0,0.0,0.0,0.0,0.0,0.0,0.0,0.0,0.0,0.0,0.0,0.0,0.0,0.0,0.0,0.0,0.0,0.0,0.0,0.0,0.0,0.0,0.0,0.0,0.0,0.0,0.0,0.0,0.0,0.0,0.0,0.0,0.0,0.0,0.0,0.0,0.0,0.0,0.0,0.0,0.0,0.0,0.0,0.0,0.0,0.0,0.0,0.0,0.0,0.0,0.0,0.0,0.0,0.0,0.0,0.0,0.0,0.0,0.0,0.0,0.0,0.0,0.0,0.0,0.0,0.0,0.0,0.0,0.0,0.0,0.0,0.0,0.0,0.0,0.0,0.0,0.0,0.0,0.0,0.0,0.0,0.0,0.0,0.0,0.0,0.0,0.0,0.0,0.0,0.0,0.0,0.0,0.0,0.0,0.0,0.0,0.0,0.0,0.0,0.0,0.0,0.0,0.0,0.0,0.0,0.0,0.0,0.0,0.0,0.0,0.0,0.0,0.0,0.0,0.0,0.0,0.0,0.0,0.0,0.0,0.0,0.0,0.0,0.0,0.0,0.0,0.0,0.0,0.0,0.0,0.0,0.0,0.0,0.0,0.0,0.0,0.0,0.0,0.0,0.0,0.0,0.0,0.0,0.0,0.0,0.0,0.0,0.0,0.0,0.0,0.0,0.0,0.0,0.0,0.0,0.0,0.0,0.0,0.0,0.0,0.0,0.0,0.0,0.0,0.0,0.0,0.0,0.0,0.0,0.0,0.0,0.0,0.0,0.0,0.0,0.0,0.0,0.0,0.0,0.0,0.0,0.0,0.0,0.0,0.0,0.0,0.0,0.0,0.0,0.0,0.0,0.0,0.0,0.0,0.0,0.0,0.0,0.0,0.0,0.0,0.0,0.0,0.0,0.0,0.0,0.0,0.0,0.0,0.0,0.0,0.0,0.0,0.0,0.0,0.0,0.0,0.0,0.0,0.0,0.0,0.0,0.0,0.0,0.0,0.0,0.0,0.0,0.0,0.0,0.0,0.0,0.0,0.0,0.0,0.0,0.0,0.0,0.0,0.0,0.0,0.0,0.0,0.0,0.0,0.0,0.0,0.0,0.0,0.0,0.0,0.0,0.0,0.0,0.0,0.0,0.0,0.0,0.0,0.0,0.0,0.0,0.0,0.0,0.0,0.0,0.0,0.0,0.0,0.0,0.0,0.0,0.0,0.0,0.0,0.0,0.0,0.0,0.0,0.0,0.0,0.0,0.0,0.0,0.0,0.0,0.0,0.0,0.0,0.0,0.0,0.0,0.0,0.0,0.0,0.0,0.0,0.0,0.0,0.0,0.0,0.0,0.0,0.0,0.0,0.0,0.0,0.0,0.0,0.0,0.0,0.0,0.0,0.0,0.0,0.0,0.0,0.0,0.0,0.0,0.0,0.0,0.0,0.0,0.0,0.0,0.0,0.0,0.0,0.0,0.0,0.0,0.0,0.0,0.0,0.0,0.0,0.0,0.0,0.0,0.0,0.0,0.0,0.0,0.0,0.0,0.0,0.0,0.0,0.0,0.0,0.0,0.0,0.0,0.0,0.0,0.0,0.0,0.0,0.0,0.0,0.0,0.0,0.0,0.0,0.0,0.0,0.0,0.0,0.0,0.0,0.0,0.0,0.0,0.0,0.0,0.0,0.0,0.0,0.0,0.0,0.0,0.0,0.0,0.0,0.0,0.0,0.0,0.0,0.0,0.0,0.0,0.0,0.0,0.0,0.0,0.0,0.0,0.0,0.0,0.0,0.0,0.0,0.0,0.0,0.0,0.0,0.0,0.0,0.0,0.0,0.0,0.0,0.0,0.0,0.0,0.0,0.0,0.0,0.0,0.0,0.0,0.0,0.0,0.0,0.0,0.0,0.0,0.0,0.0,0.0,0.0,0.0,0.0,0.0,0.0,0.0,0.0,0.0,0.0,0.0,0.0,0.0,0.0,0.0,0.0,0.0,0.0,0.0,0.0,0.0,0.0,0.0,0.0,0.0,0.0,0.0,0.0,0.0,0.0,0.0,0.0,0.0,0.0,0.0,0.0,0.0,0.0,0.0,0.0,0.0,0.0,0.0,0.0,0.0,0.0,0.0,0.0,0.0,0.0,0.0,0.0,0.0,0.0,0.0,0.0,0.0,0.0,0.0,0.0,0.0,0.0,0.0,0.0,0.0,0.0,0.0,0.0,0.0,0.0,0.0,0.0,0.0,0.0,0.0,0.0,0.0,0.0,0.0,0.0,0.0,0.0,0.0,0.0,0.0,0.0,0.0,0.0,0.0,0.0,0.0,0.0,0.0,0.0,0.0,0.0,0.0,0.0,0.0,0.0,0.0,0.0,0.0,0.0,0.0,0.0,0.0,0.0,0.0,0.0,0.0,0.0,0.0,0.0,0.0,0.0,0.0,0.0,0.0,0.0,0.0,0.0,0.0,0.0,0.0,0.0,0.0,0.0,0.0,0.0,0.0,0.0,0.0,0.0,0.0,0.0,0.0,0.0,0.0,0.0,0.0,0.0,0.0,0.0,0.0,0.0,0.0,0.0,0.0,0.0,0.0,0.0,0.0,0.0,0.0,0.0,0.0,0.0,0.0,0.0,0.0,0.0,0.0,0.0,0.0,0.0,0.0,0.0,0.0,0.0,0.0,0.0,0.0,0.0,0.0,0.0,0.0,0.0,0.0,0.0,0.0,0.0,0.0,0.0,0.0,0.0,0.0,0.0,0.0,0.0,0.0,0.0,0.0,0.0,0.0,0.0,0.0,0.0,0.0,0.0,0.0,0.0,0.0,0.0,0.0,0.0,0.0,0.0,0.0,0.0,0.0,0.0,0.0,0.0,0.0,0.0,0.0]}],[{"header":{"parameterUnit":"kt","parameterCategory":2,"dx":1,"dy":1,"la1":29.587661999999998,"la2":31.0,"lo1":-88.76705300000003,"lo2":-86.6583820000003,"nx":115,"ny":88,"refTime":"2022-10-07T12:00:00:Z","depth":0,"parameterNumber":2,"parameterNumberName":"V-component_of_WINDS"},"data":[4.1002,4.1085,4.1718,4.2354,4.2901,4.3383,4.5404,4.8301,4.8583,4.8957,4.9237,4.8801,4.8231,4.6617,4.6495,4.672,4.723,4.7317,4.7541,4.7765,4.7791,4.7817,4.7817,4.7817,4.7817,4.7817,4.7817,4.7817,4.7765,4.7765,4.7791,4.7749,4.7204,4.6772,4.6287,4.5629,4.5058,4.4806,4.4605,4.4241,4.3981,4.3357,4.2603,4.2025,4.1422,4.1106,4.1002,4.1002,4.1002,4.1002,4.1007,4.0978,4.0856,4.0617,4.0522,4.0539,4.0414,4.0622,4.0877,4.0976,4.1002,4.1002,4.1002,4.1002,4.1002,4.1002,4.1002,4.1002,4.1002,4.1002,4.1002,4.1002,4.1002,4.1002,4.1002,4.1002,4.1002,4.1002,4.1002,4.1002,4.1002,4.1002,4.1002,4.1002,4.1002,4.1002,4.1002,4.1002,4.1002,4.1002,4.1002,4.1002,4.1002,3.8917,3.5557,3.2994,3.0041,2.9816,3.0513,3.4623,3.782,3.9761,4.0022,3.8948,3.7041,3.4569,3.1939,2.9685,2.7633,2.5263,2.2193,2.092,2.115,2.081,2.0812,4.1002,4.1111,4.1744,4.2291,4.2805,4.3311,4.4277,4.5187,4.5206,4.561,4.6248,4.6188,4.6711,4.7006,4.7204,4.7412,4.7506,4.7567,4.7671,4.7791,4.7817,4.7817,4.7817,4.7817,4.7817,4.7817,4.7817,4.7817,4.7817,4.7817,4.7765,4.7723,4.7386,4.6971,4.6642,4.5984,4.5284,4.5058,4.478,4.4312,4.374,4.3091,4.2831,4.2337,4.1651,4.1054,4.1002,4.1002,4.1002,4.1002,4.1007,4.0907,4.0726,4.0522,4.0509,4.0565,4.0466,4.0617,4.0877,4.1002,4.1002,4.1002,4.1002,4.1002,4.1002,4.1002,4.1002,4.1002,4.1002,4.1002,4.1002,4.1002,4.1002,4.1002,4.1002,4.1002,4.1002,4.1002,4.1002,4.1002,4.1002,4.1002,4.1002,4.1002,4.1002,4.1002,4.1002,4.1002,4.1002,4.1002,4.1002,4.1002,4.1002,3.6925,3.2295,2.8892,2.4974,2.5007,2.6574,3.1705,3.6181,3.9182,4.0207,3.8336,3.5464,3.2766,3.0126,2.7234,2.4657,2.2363,2.1021,2.0866,2.0818,2.0818,2.0825,4.1002,4.1137,4.1999,4.2545,4.2876,4.3714,4.4267,4.4475,4.4501,4.4988,4.5759,4.5915,4.6555,4.7593,4.7593,4.7671,4.7739,4.7817,4.7817,4.7817,4.7817,4.7817,4.7817,4.7817,4.7843,4.7817,4.7817,4.7817,4.7817,4.7817,4.7817,4.7765,4.7635,4.7334,4.6919,4.6616,4.601,4.5362,4.511,4.4843,4.4601,4.3734,4.3169,4.2623,4.1994,4.1422,4.1214,4.1002,4.1002,4.1002,4.1002,4.0837,4.0343,4.0444,4.0617,4.0591,4.0643,4.0773,4.0898,4.1002,4.1002,4.1002,4.1002,4.1002,4.1002,4.1002,4.1002,4.1002,4.1002,4.1002,4.1002,4.1002,4.1002,4.1002,4.1002,4.1002,4.1002,4.1002,4.1002,4.1002,4.1002,4.1002,4.1002,4.1002,4.0997,4.0997,4.1002,4.1002,4.1002,4.1002,4.1002,4.1002,4.1002,3.7909,3.1816,2.676,2.2386,2.1586,2.2179,2.6998,3.1839,3.6723,4.0392,3.8459,3.5837,3.2139,2.8104,2.4833,2.2175,2.1174,2.0929,2.0833,2.0833,2.082,2.0833,4.1002,4.108,4.1999,4.2545,4.2876,4.4033,4.4501,4.4501,4.4501,4.5152,4.6114,4.6348,4.6824,4.7713,4.7739,4.7739,4.7817,4.7817,4.7817,4.7817,4.7817,4.7817,4.7817,4.8034,4.7947,4.7921,4.7947,4.8034,4.7869,4.7817,4.7817,4.7817,4.7765,4.7609,4.7282,4.6971,4.659,4.6019,4.5681,4.5413,4.499,4.4168,4.3318,4.2779,4.2239,4.1609,4.1188,4.1002,4.1002,4.1002,4.1002,4.0528,3.9726,4.043,4.0535,4.0388,4.0539,4.0495,4.062,4.0724,4.0919,4.1002,4.1002,4.1002,4.1002,4.1002,4.1002,4.1002,4.1002,4.1002,4.1002,4.1002,4.1002,4.1002,4.1002,4.1002,4.1002,4.1002,4.1002,4.1002,4.1002,4.1002,4.0997,4.0997,4.0992,4.0905,4.0843,4.0992,4.0987,4.0817,4.0787,4.0971,4.0971,3.8188,3.1755,2.6477,2.2553,2.11,2.1127,2.3548,2.686,3.3694,4.0174,3.8402,3.586,3.1845,2.7774,2.3794,2.1707,2.1155,2.0833,2.0833,2.0833,2.0833,2.0833,4.1002,4.1028,4.1137,4.1843,4.2857,4.4007,4.4501,4.4501,4.4553,4.5178,4.6114,4.6296,4.6876,4.7661,4.7817,4.7817,4.7817,4.7817,4.7817,4.7879,4.7983,4.805,4.819,4.8346,4.8424,4.8268,4.8268,4.8476,4.8024,4.7921,4.7983,4.7817,4.7817,4.7765,4.7558,4.7308,4.7048,4.6642,4.6356,4.5889,4.5206,4.4264,4.3286,4.2831,4.2317,4.1776,4.124,4.1002,4.1002,4.1002,4.1002,4.1002,4.0599,4.0669,4.0466,4.0418,4.0466,4.0361,4.0287,4.0641,4.0919,4.1002,4.1002,4.1002,4.1002,4.1002,4.1002,4.1002,4.1002,4.1002,4.1002,4.1002,4.1002,4.1002,4.1002,4.1002,4.1002,4.1002,4.1002,4.1002,4.1002,4.1002,4.0997,4.0993,4.0988,4.0401,4.0401,4.0875,4.0849,4.054,4.0663,4.094,4.0443,3.8471,3.1952,2.6258,2.2437,2.084,2.0885,2.2909,2.6517,3.2618,3.9375,3.7486,3.4947,3.113,2.8045,2.3809,2.1123,2.0833,2.0833,2.0833,2.0833,2.0833,2.0833,4.1002,4.1002,4.1002,4.1682,4.2889,4.4007,4.4501,4.4546,4.4858,4.5456,4.627,4.6599,4.7136,4.7739,4.7817,4.7817,4.7817,4.7817,4.8024,4.819,4.8434,4.8502,4.8813,4.9098,4.8995,4.9047,4.9073,4.9073,4.8917,4.8657,4.8408,4.8346,4.7921,4.7869,4.7765,4.7645,4.749,4.7282,4.698,4.6469,4.5837,4.5076,4.409,4.3396,4.2747,4.2239,4.1718,4.1162,4.1028,4.1002,4.1002,4.1002,4.0955,4.0851,4.0695,4.0674,4.0674,4.0465,4.0348,4.0785,4.0919,4.1002,4.1002,4.1002,4.1002,4.1002,4.1002,4.1002,4.1002,4.1002,4.1002,4.1002,4.1002,4.1002,4.1002,4.1002,4.1002,4.1002,4.1002,4.1002,4.1002,4.1002,4.0982,4.1003,4.0594,3.8495,3.774,3.8741,3.9288,3.9022,3.922,3.9868,3.9424,3.824,3.1941,2.572,2.2686,2.0823,2.0856,2.2726,2.6665,3.1513,3.6002,3.5675,3.3968,3.2326,3.0291,2.5439,2.082,2.0833,2.0833,2.0833,2.0833,2.0833,2.0833,4.1002,4.1002,4.1002,4.1682,4.2773,4.3669,4.4248,4.4579,4.5084,4.5655,4.6287,4.6833,4.7282,4.7827,4.7817,4.7817,4.7817,4.7895,4.8242,4.8408,4.8434,4.8943,4.928,4.9525,4.9577,4.9603,4.9681,4.9733,4.9499,4.9239,4.9005,4.8902,4.845,4.8216,4.8086,4.7931,4.7791,4.7645,4.7204,4.6729,4.6157,4.5525,4.4531,4.3753,4.3136,4.2571,4.2088,4.1562,4.1245,4.1085,4.1002,4.1002,4.1002,4.1002,4.1002,4.1002,4.0976,4.0985,4.0973,4.099,4.1002,4.1002,4.1002,4.1002,4.1002,4.1002,4.1002,4.1002,4.1002,4.1002,4.1002,4.1002,4.1002,4.1002,4.1002,4.1002,4.1002,4.0997,4.0982,4.0987,4.0971,4.0997,4.0987,4.0642,3.8145,3.5291,3.4444,3.615,3.6995,3.6847,3.7119,3.8205,3.7795,3.5945,3.0395,2.5246,2.2744,2.0825,2.0903,2.2138,2.5391,2.8756,3.2764,3.4525,3.4532,3.3392,3.1488,2.6709,2.1107,2.0812,2.0833,2.0833,2.0833,2.0833,2.0833,4.1002,4.1002,4.1002,4.1651,4.2675,4.2883,4.3565,4.4553,4.5076,4.5647,4.6322,4.685,4.736,4.7739,4.7817,4.7817,4.7817,4.7817,4.8268,4.8564,4.8528,4.9083,4.9499,4.981,4.994,4.9978,5.0108,5.0252,4.9669,4.9707,4.9655,4.9447,4.8902,4.872,4.8512,4.8268,4.7957,4.7775,4.7386,4.6954,4.6443,4.5759,4.4894,4.4116,4.3493,4.2928,4.2473,4.202,4.165,4.1359,4.1033,4.1002,4.1002,4.1002,4.1002,4.1002,4.1002,4.0982,4.0978,4.0995,4.1007,4.0987,4.0992,4.1002,4.1002,4.1002,4.1002,4.1002,4.1002,4.1002,4.1002,4.1002,4.1002,4.1002,4.1002,4.1002,4.1002,4.0966,4.1008,4.0725,4.0679,3.9399,3.9022,3.8541,3.6247,3.2733,2.9842,3.1763,3.3068,3.3184,3.5143,3.6265,3.5923,3.3851,2.9848,2.4913,2.2278,2.0839,2.0929,2.1233,2.3435,2.6496,3.0368,3.3194,3.4281,3.3444,3.0579,2.6468,2.1866,2.0831,2.0833,2.0833,2.0833,2.0833,2.0833,4.1002,4.1002,4.1002,4.1682,4.2675,4.2779,4.3402,4.4553,4.5508,4.6053,4.6417,4.7152,4.7661,4.7739,4.7817,4.7817,4.7817,4.7843,4.8216,4.9187,4.8995,4.9617,5.0304,5.0745,5.0512,5.0809,5.0965,5.0965,5.0616,5.0668,5.0486,5.003,4.9276,4.9198,4.9057,4.8694,4.8278,4.7879,4.7645,4.7265,4.6729,4.6157,4.5473,4.472,4.3993,4.3389,4.2935,4.2516,4.2062,4.1978,4.1535,4.1002,4.1002,4.1002,4.1002,4.1002,4.1002,4.0955,4.059,4.0494,3.9201,3.9963,4.1009,4.0998,4.0966,4.1002,4.1002,4.1002,4.1002,4.1002,4.1002,4.1002,4.1002,4.1002,4.1002,4.1002,4.1002,4.1002,4.0926,3.9946,3.9331,3.6396,3.4519,3.3961,3.293,2.8947,2.5263,2.6907,2.8488,3.0727,3.2964,3.4635,3.4969,3.2797,2.9274,2.4515,2.2164,2.1013,2.0833,2.0865,2.2888,2.4798,2.8159,3.1264,3.3289,3.3663,3.0245,2.6785,2.2985,2.1171,2.0948,2.0833,2.0833,2.0833,2.0833,4.1002,4.1002,4.1002,4.1682,4.2701,4.2779,4.3428,4.4527,4.5308,4.5906,4.6417,4.736,4.7817,4.7817,4.7817,4.7817,4.7817,4.7843,4.8439,4.9384,4.9265,5.0174,5.0823,5.1043,5.1108,5.1277,5.1329,5.1265,5.1317,5.1187,5.1017,5.0821,5.0212,4.9759,4.9655,4.9083,4.8652,4.8252,4.7905,4.7558,4.7058,4.6495,4.5923,4.5258,4.4383,4.3785,4.3448,4.2733,4.2465,4.2517,4.1535,4.1059,4.1002,4.1002,4.1002,4.1002,4.1002,4.0607,3.9256,3.5554,3.4601,3.5645,3.7151,4.0983,4.0992,4.1002,4.1002,4.1002,4.1002,4.1002,4.1002,4.1028,4.1028,4.1028,4.0987,4.0987,4.0987,4.0987,3.9505,3.833,3.7666,3.501,3.0516,2.8715,2.6985,2.3572,2.2994,2.4143,2.5119,2.7625,3.038,3.2282,3.2733,3.1075,2.8729,2.4114,2.127,2.0865,2.0833,2.0833,2.1973,2.3724,2.6464,2.8583,3.1568,3.4216,3.1627,2.8709,2.4547,2.1414,2.1032,2.0833,2.0833,2.0833,2.0833,4.1002,4.1002,4.1002,4.1682,4.2727,4.2779,4.3402,4.4475,4.4657,4.5256,4.6339,4.736,4.7817,4.7817,4.7817,4.7817,4.7817,4.7843,4.8439,4.9228,4.9317,4.9978,5.0653,5.1005,5.1043,5.1239,5.1317,5.1317,5.1317,5.1317,5.1317,5.1147,5.0965,5.0809,5.0457,4.9406,4.886,4.8704,4.8174,4.7697,4.7188,4.6677,4.6105,4.5499,4.4798,4.4201,4.3785,4.3117,4.2788,4.2654,4.1739,4.1193,4.1028,4.1002,4.1002,4.0792,4.073,3.9102,3.5846,2.6481,2.3811,2.4798,3.6159,4.0303,4.0972,4.0484,4.0027,3.9744,4.0833,4.1137,4.1028,4.1111,4.108,4.1101,4.1014,4.1003,4.1003,4.091,3.7316,3.4974,3.4641,3.333,2.7756,2.3604,2.1936,2.1265,2.0943,2.1208,2.202,2.4282,2.7137,2.8556,2.8643,2.7703,2.7142,2.3119,2.0962,2.0865,2.0833,2.0833,2.1652,2.2617,2.3918,2.5647,2.8588,3.1831,3.1354,3.0243,2.572,2.1378,2.1043,2.0833,2.0833,2.0833,2.0833,4.1002,4.1002,4.1002,4.1708,4.2701,4.2779,4.3402,4.4364,4.4501,4.5178,4.6313,4.7308,4.7817,4.7817,4.7817,4.7817,4.7869,4.7921,4.8569,4.9098,4.9551,5.0174,5.0861,5.1199,5.1083,5.1239,5.1317,5.1317,5.1317,5.1317,5.1317,5.1317,5.1291,5.1239,5.0887,5.0353,4.9562,4.899,4.8512,4.8226,4.7619,4.7084,4.6486,4.5967,4.531,4.4746,4.4201,4.3578,4.3161,4.2704,4.1905,4.1412,4.1158,4.1002,4.1002,4.0176,3.9009,3.7189,3.3755,2.7293,2.1182,2.2435,3.3268,3.9418,4.011,3.8102,3.7432,3.7657,4.0091,4.1505,4.1028,4.1713,4.1947,4.1531,4.1443,4.1336,4.131,4.0814,3.6814,3.1469,3.0162,2.8891,2.4532,2.2321,2.1371,2.1538,2.1294,2.1268,2.1551,2.2974,2.5097,2.5213,2.5215,2.5455,2.5646,2.3119,2.0897,2.0833,2.0833,2.0833,2.0833,2.1058,2.2106,2.4096,2.6493,2.9169,2.9209,2.7724,2.4722,2.1496,2.1112,2.0833,2.0833,2.0833,2.0833,4.1002,4.1002,4.1002,4.1682,4.2779,4.2779,4.3461,4.4397,4.4527,4.5073,4.5941,4.7032,4.7645,4.7765,4.7817,4.7921,4.8138,4.7973,4.8787,4.9436,4.981,5.0304,5.0927,5.1291,5.1317,5.1317,5.1317,5.1317,5.1317,5.1317,5.1317,5.1317,5.1317,5.1317,5.1277,5.0925,5.029,4.9614,4.9042,4.8678,4.8096,4.7525,4.6876,4.646,4.5803,4.5128,4.4746,4.3986,4.3598,4.2903,4.1083,4.0808,4.0759,3.9499,3.9008,3.8477,3.7313,3.4622,3.0894,2.5421,2.1008,2.3538,3.2267,3.9677,3.6194,3.5909,3.4976,3.5416,3.7672,3.8609,3.9188,4.0725,4.2521,4.2239,4.206,4.1938,4.1728,4.1295,3.775,2.8952,2.615,2.5442,2.3442,2.1281,2.1578,2.1857,2.1649,2.1529,2.1838,2.2854,2.3245,2.341,2.3243,2.3383,2.3181,2.2203,2.0962,2.0833,2.0833,2.0833,2.0833,2.0833,2.1155,2.2842,2.5023,2.6157,2.6219,2.5024,2.357,2.1684,2.0941,2.0833,2.0833,2.0833,2.0833,4.1002,4.1002,4.1002,4.1682,4.2779,4.2779,4.3428,4.4442,4.4501,4.4884,4.5655,4.6512,4.7317,4.7687,4.7879,4.8112,4.8652,4.8138,4.8953,4.9718,5.0082,5.0446,5.0953,5.1317,5.1317,5.1317,5.1317,5.1317,5.1317,5.1317,5.1317,5.1317,5.1317,5.1317,5.1303,5.1225,5.0861,5.0394,4.9432,4.8912,4.8444,4.7785,4.711,4.6798,4.6036,4.5328,4.5224,4.4368,4.3884,4.4073,4.0516,3.879,3.8332,3.7024,3.6027,3.5496,3.4453,3.1173,2.7434,2.2938,2.1007,2.4267,2.9804,3.4764,3.1022,3.2409,3.3116,3.2053,3.488,3.5682,3.6489,3.8144,4.1532,4.2304,4.2927,4.2929,4.28,4.1564,3.3462,2.6111,2.3589,2.4023,2.2627,2.1971,2.204,2.2214,2.2038,2.1965,2.2232,2.2247,2.2259,2.2157,2.1883,2.1582,2.1289,2.1098,2.0918,2.0866,2.0827,2.0833,2.0833,2.0833,2.0833,2.2231,2.2938,2.3011,2.308,2.2866,2.2331,2.1284,2.0833,2.0833,2.0833,2.0833,2.0833,4.1002,4.1002,4.1002,4.1682,4.2721,4.2779,4.3461,4.4449,4.4501,4.5073,4.5932,4.6339,4.7006,4.7635,4.7817,4.7947,4.8138,4.8434,4.9083,4.9681,5.0186,5.0653,5.1121,5.1317,5.1317,5.1317,5.1317,5.1317,5.1317,5.1317,5.1317,5.1317,5.1317,5.1317,5.1317,5.1291,5.1239,5.0965,4.9966,4.9265,4.8756,4.8045,4.7499,4.711,4.6685,4.6192,4.5439,4.4894,4.453,4.3784,4.0096,3.6391,3.4969,3.3805,3.2925,3.2216,3.0135,2.7057,2.3896,2.1848,2.102,2.1794,2.478,2.6975,2.444,2.7389,2.9226,2.8279,3.1592,3.3264,3.3822,3.4491,3.9077,4.214,4.3819,4.4113,4.2934,3.4179,2.5942,2.3252,2.3525,2.348,2.2966,2.2423,2.2336,2.2498,2.2511,2.2471,2.2387,2.2302,2.2245,2.2179,2.1931,2.1658,2.1393,2.1188,2.1023,2.0919,2.084,2.0833,2.0833,2.0833,2.0833,2.0929,2.1413,2.1693,2.2018,2.1404,2.0833,2.0833,2.0833,2.0833,2.0833,2.0833,2.0833,4.1002,4.1002,4.1002,4.1682,4.2701,4.2779,4.3461,4.4345,4.4494,4.4891,4.549,4.601,4.6573,4.71,4.7661,4.7957,4.8268,4.859,4.9161,4.9978,5.0368,5.0821,5.1225,5.1317,5.1317,5.1317,5.1317,5.1317,5.1317,5.1317,5.1317,5.1317,5.1317,5.1317,5.1317,5.1317,5.1317,5.1109,5.0668,4.9914,4.9109,4.8294,4.7661,4.7386,4.7126,4.6564,4.5889,4.5525,4.5011,4.3696,3.8821,3.474,3.2466,3.0581,2.9689,2.9117,2.6277,2.3641,2.1718,2.1387,2.109,2.1051,2.0966,2.0874,2.1452,2.3844,2.5445,2.4953,2.8408,2.9438,2.8911,3.1535,3.7029,4.1687,4.4205,4.305,3.7729,2.8068,2.2816,2.3309,2.3653,2.3165,2.2633,2.2394,2.2446,2.2569,2.2569,2.2534,2.2494,2.2394,2.2315,2.223,2.2054,2.1782,2.1564,2.1334,2.1235,2.1246,2.1167,2.0905,2.0859,2.0833,2.0833,2.0897,2.0994,2.0962,2.0897,2.0833,2.0833,2.0833,2.0833,2.0833,2.0833,2.0833,2.0833,4.1002,4.1002,4.1002,4.1713,4.2675,4.2779,4.3428,4.4416,4.4501,4.4527,4.4884,4.5776,4.6313,4.6668,4.7464,4.8112,4.8538,4.886,4.9395,5.0134,5.0524,5.0978,5.1277,5.1291,5.1317,5.1317,5.1317,5.1317,5.1317,5.1317,5.1317,5.1317,5.1317,5.1317,5.1317,5.1317,5.1317,5.1317,5.1265,5.0745,4.9707,4.8579,4.8034,4.7723,4.735,4.6585,4.5079,4.4385,4.3407,4.2204,3.6215,3.243,3.0567,2.8036,2.6807,2.5564,2.3993,2.1917,2.1694,2.1717,2.1651,2.1338,2.1197,2.1065,2.1472,2.2479,2.297,2.2336,2.5158,2.6156,2.5519,2.8541,3.4223,3.8165,4.1797,4.0981,3.4897,2.7328,2.3206,2.2999,2.315,2.2746,2.2547,2.2552,2.2556,2.2591,2.2591,2.2595,2.256,2.2512,2.246,2.2446,2.2296,2.2072,2.1841,2.1643,2.1559,2.163,2.1371,2.1035,2.0918,2.0833,2.0833,2.0833,2.0833,2.0833,2.0833,2.0833,2.0833,2.0833,2.0833,2.0833,2.0833,2.0833,2.0833,4.1002,4.1002,4.1002,4.1713,4.2675,4.2779,4.3461,4.4345,4.4501,4.4728,4.5214,4.5923,4.6469,4.6954,4.749,4.7895,4.8086,4.9057,4.9447,4.9966,5.0627,5.1147,5.1329,5.1317,5.1317,5.1317,5.1317,5.1317,5.1317,5.1317,5.1317,5.1317,5.1317,5.1317,5.1317,5.1317,5.1317,5.1317,5.1291,5.1017,5.0238,4.9187,4.8346,4.7843,4.7713,4.5947,4.3439,4.2419,4.058,3.679,3.2354,2.7873,2.5027,2.3826,2.3447,2.3309,2.2698,2.2104,2.1972,2.2172,2.2247,2.2011,2.2146,2.2159,2.2193,2.1996,2.2138,2.2463,2.3627,2.3259,2.3033,2.4144,2.6041,2.9738,3.7016,4.128,3.3155,2.7591,2.3177,2.2625,2.2555,2.2613,2.2705,2.2723,2.2899,2.2934,2.304,2.2982,2.2575,2.2562,2.2748,2.2723,2.26,2.2375,2.2138,2.1906,2.1837,2.1897,2.1603,2.1147,2.0957,2.0846,2.0833,2.0833,2.0827,2.0828,2.0827,2.0833,2.0834,2.0828,2.0827,2.0833,2.0833,2.0833,2.0833,4.1002,4.1002,4.1002,4.1682,4.2649,4.2779,4.3461,4.4423,4.4527,4.465,4.5118,4.5845,4.6417,4.6798,4.7438,4.7791,4.8024,4.8787,4.9317,4.9733,5.0498,5.1043,5.1329,5.1291,5.1317,5.1317,5.1317,5.1317,5.1317,5.1317,5.1317,5.1317,5.1317,5.1317,5.1317,5.1317,5.1317,5.1317,5.1303,5.1043,5.0483,4.9655,4.8657,4.8076,4.755,4.6516,4.3917,4.2389,3.89,3.4869,3.0593,2.6618,2.3931,2.2658,2.2608,2.2652,2.2476,2.2328,2.231,2.2416,2.2535,2.2535,2.2528,2.2563,2.2428,2.2148,2.2027,2.2384,2.2546,2.2547,2.2559,2.2698,2.2546,2.4016,2.8428,3.1012,2.8335,2.4868,2.3426,2.3018,2.2969,2.2956,2.2982,2.308,2.323,2.3323,2.3429,2.3092,2.2596,2.2775,2.3112,2.3052,2.2894,2.2644,2.2394,2.2178,2.2063,2.2072,2.185,2.1319,2.101,2.0918,2.0846,2.0866,2.0829,2.0835,2.0862,2.1057,2.0927,2.0829,2.0848,2.088,2.084,2.0846,2.0833,4.1002,4.1002,4.1002,4.1708,4.2675,4.2779,4.3402,4.4397,4.4501,4.4501,4.4683,4.562,4.6105,4.6486,4.7308,4.7775,4.7983,4.8538,4.9068,4.9447,5.0238,5.0731,5.1121,5.1187,5.1317,5.1317,5.1317,5.1317,5.1317,5.1317,5.1317,5.1317,5.1317,5.1317,5.1317,5.1317,5.1317,5.1317,5.1291,5.1147,5.0717,5.0056,4.9239,4.8216,4.7895,4.6869,4.5359,4.2115,3.8778,3.5299,3.037,2.6199,2.3341,2.2534,2.2538,2.2538,2.2512,2.2486,2.2499,2.2547,2.2538,2.2552,2.2521,2.2554,2.2455,2.2209,2.2214,2.2453,2.2537,2.2552,2.2552,2.256,2.2556,2.2622,2.4129,2.4129,2.3719,2.3036,2.3104,2.3344,2.3423,2.3414,2.3437,2.3509,2.3653,2.3811,2.3844,2.3511,2.3161,2.3328,2.3486,2.3332,2.3223,2.2982,2.2683,2.2489,2.2241,2.2253,2.2119,2.1598,2.1064,2.0965,2.0938,2.0992,2.0999,2.1163,2.1248,2.1314,2.1169,2.0892,2.0901,2.0926,2.1038,2.1117,2.1038,4.1002,4.1002,4.1002,4.1682,4.2675,4.2779,4.3428,4.4423,4.4501,4.4501,4.4624,4.5136,4.5811,4.6313,4.6928,4.7438,4.7879,4.846,4.8782,4.912,4.9978,5.0509,5.0757,5.1031,5.1239,5.1291,5.1317,5.1317,5.1317,5.1317,5.1317,5.1317,5.1317,5.1317,5.1317,5.1317,5.1317,5.1317,5.1317,5.1225,5.1069,5.0613,4.9744,4.872,4.8092,4.6468,4.3083,3.943,3.6238,3.556,2.8177,2.4083,2.266,2.2556,2.2552,2.2552,2.2552,2.2552,2.2552,2.2552,2.2552,2.2552,2.2552,2.2547,2.2555,2.2446,2.2433,2.2507,2.2555,2.2552,2.2552,2.2543,2.2556,2.2692,2.3478,2.375,2.3525,2.3358,2.345,2.3685,2.3698,2.3688,2.3738,2.3854,2.409,2.4258,2.4204,2.4079,2.3931,2.39,2.3789,2.366,2.3645,2.3465,2.3061,2.2797,2.2484,2.2425,2.2462,2.1777,2.1097,2.1334,2.167,2.1466,2.1433,2.1811,2.2019,2.1771,2.1403,2.0975,2.1027,2.14,2.1479,2.1426,2.1196,4.1002,4.1002,4.1002,4.1682,4.2675,4.2779,4.3402,4.4338,4.4501,4.4501,4.4598,4.5084,4.5655,4.6287,4.6833,4.7308,4.7791,4.8164,4.8434,4.8938,4.9588,5.0223,5.0498,5.0795,5.1069,5.1291,5.1317,5.1317,5.1317,5.1317,5.1317,5.1317,5.1317,5.1317,5.1317,5.1317,5.1317,5.1317,5.1317,5.1317,5.1213,5.0821,5.0067,4.9239,4.8139,4.5968,4.2099,3.7978,3.4141,2.9899,2.5753,2.3059,2.2662,2.2534,2.253,2.2552,2.2552,2.2552,2.2552,2.2552,2.2552,2.2552,2.2552,2.2552,2.2552,2.2552,2.2552,2.2552,2.2552,2.2552,2.2565,2.2538,2.2536,2.2665,2.3046,2.3542,2.384,2.3913,2.3962,2.3995,2.3976,2.3952,2.3942,2.4111,2.4244,2.4275,2.4272,2.4248,2.4151,2.4138,2.4026,2.3997,2.3997,2.3834,2.3427,2.3065,2.2753,2.2607,2.2572,2.1914,2.1404,2.1785,2.23,2.2139,2.1877,2.2314,2.2381,2.2144,2.1792,2.1583,2.1572,2.1898,2.1978,2.161,2.1298,4.1002,4.1002,4.1002,4.1682,4.2675,4.2779,4.3428,4.4475,4.4501,4.4501,4.4605,4.4962,4.5448,4.6053,4.6599,4.7188,4.7593,4.7791,4.806,4.8678,4.9161,4.9744,5.0212,5.0509,5.0809,5.1187,5.1317,5.1317,5.1317,5.1317,5.1317,5.1317,5.1317,5.1317,5.1317,5.1317,5.1317,5.1317,5.1317,5.1317,5.1213,5.0913,5.0368,4.9551,4.8735,4.6086,4.219,3.8228,3.237,2.6357,2.38,2.32,2.2675,2.2556,2.2565,2.2552,2.2552,2.2552,2.2552,2.2552,2.2552,2.2552,2.2552,2.2552,2.2552,2.2552,2.2552,2.2552,2.2552,2.2552,2.2543,2.2541,2.2737,2.2994,2.3138,2.3446,2.4058,2.4318,2.4261,2.4299,2.4299,2.4325,2.4312,2.4299,2.4312,2.4325,2.4338,2.4338,2.4312,2.4299,2.4235,2.4208,2.4186,2.4053,2.3657,2.3325,2.2977,2.2789,2.2537,2.207,2.1854,2.2058,2.2198,2.2292,2.2311,2.2391,2.2484,2.2312,2.2183,2.2199,2.2188,2.2286,2.2206,2.1771,2.1468,4.1002,4.1002,4.1002,4.1708,4.2649,4.2779,4.3402,4.4345,4.4468,4.4501,4.4527,4.4546,4.4954,4.5405,4.6071,4.6651,4.7152,4.7593,4.7817,4.8102,4.8528,4.9135,4.9681,5.016,5.0653,5.1057,5.1265,5.1291,5.1277,5.1303,5.1329,5.1317,5.1317,5.1317,5.1317,5.1317,5.1317,5.1317,5.1317,5.1317,5.1265,5.1161,5.0679,4.981,4.928,4.6793,4.2387,3.7658,3.2348,2.458,2.3807,2.319,2.2652,2.2556,2.253,2.2552,2.2552,2.2552,2.2552,2.2552,2.2552,2.2552,2.2552,2.2552,2.2552,2.2552,2.2552,2.2552,2.2552,2.2565,2.2582,2.2554,2.2977,2.3726,2.4007,2.4095,2.4307,2.4325,2.4338,2.4338,2.4338,2.4338,2.4338,2.4338,2.4338,2.4338,2.4338,2.4338,2.4338,2.4338,2.4338,2.4338,2.4272,2.4217,2.391,2.3579,2.3256,2.3035,2.2797,2.2551,2.232,2.2172,2.223,2.2304,2.2379,2.2493,2.2524,2.2551,2.2494,2.2441,2.2384,2.2463,2.25,2.2032,2.1861,4.1002,4.1002,4.1002,4.1531,4.2317,4.2655,4.322,4.3922,4.4312,4.4501,4.4501,4.4501,4.4806,4.5276,4.5569,4.6201,4.6945,4.7291,4.7541,4.7791,4.8112,4.8553,4.9135,4.9681,5.007,5.0318,5.0979,5.1121,5.0965,5.1199,5.1329,5.1317,5.1317,5.1317,5.1137,5.1317,5.1317,5.1252,5.1317,5.1317,5.1317,5.1317,5.0797,5.0252,4.9595,4.7377,4.2235,3.6109,3.0244,2.5612,2.3675,2.3082,2.2617,2.2556,2.2552,2.2552,2.2552,2.2552,2.2552,2.2552,2.2552,2.2552,2.2552,2.2552,2.2552,2.2552,2.2552,2.2552,2.2552,2.2631,2.2692,2.2633,2.3153,2.4064,2.4335,2.4318,2.4325,2.4338,2.4338,2.4338,2.4338,2.4338,2.4338,2.4338,2.4338,2.4338,2.4338,2.4338,2.4338,2.4338,2.4338,2.4338,2.4299,2.4272,2.4079,2.3759,2.3443,2.3483,2.3318,2.3027,2.2744,2.2499,2.2486,2.2433,2.2499,2.2538,2.2547,2.2547,2.2552,2.2552,2.2552,2.2542,2.2524,2.2303,2.2289,4.1002,4.1002,4.1002,4.137,4.201,4.2369,4.2961,4.3571,4.4078,4.4345,4.4501,4.4501,4.4702,4.511,4.5232,4.5725,4.6452,4.6902,4.7282,4.7593,4.7749,4.8112,4.8564,4.9109,4.941,4.9721,5.0564,5.0925,5.0613,5.1069,5.1291,5.1317,5.1291,5.0868,5.0111,5.0688,5.0791,4.9841,5.0457,5.1317,5.1317,5.1317,5.0585,4.9147,4.819,4.5582,4.0906,3.3984,2.8365,2.4651,2.3545,2.2948,2.2619,2.2552,2.2552,2.2552,2.2552,2.2552,2.2552,2.2552,2.2552,2.2552,2.2552,2.2552,2.2552,2.2552,2.2552,2.2565,2.2644,2.2749,2.2885,2.3003,2.3437,2.4157,2.4326,2.4325,2.4338,2.4338,2.4338,2.4338,2.4338,2.4338,2.4338,2.4338,2.4338,2.4338,2.4338,2.4338,2.4338,2.4338,2.4338,2.4338,2.4338,2.4338,2.421,2.3927,2.3796,2.3889,2.3748,2.3421,2.3234,2.2823,2.2617,2.2578,2.2591,2.2552,2.2552,2.2552,2.2552,2.2552,2.2552,2.2552,2.2538,2.2538,2.2512,4.1002,4.1002,4.1002,4.1401,4.1932,4.203,4.2597,4.3448,4.3623,4.4,4.4449,4.4501,4.452,4.4676,4.5058,4.5276,4.5561,4.6486,4.7032,4.7188,4.7619,4.7843,4.8034,4.8564,4.9031,4.9525,5.0212,5.0535,5.0561,5.0991,5.1329,5.1291,5.1175,4.9507,4.7178,4.9507,4.9469,4.6985,4.9533,5.1252,5.1317,5.1137,4.918,4.51,4.43,4.1784,3.7184,3.2196,2.7951,2.4807,2.3637,2.303,2.2639,2.253,2.2552,2.2552,2.2552,2.2552,2.2552,2.2552,2.2552,2.2552,2.2552,2.2552,2.2552,2.2552,2.2552,2.2565,2.2762,2.2933,2.3097,2.3583,2.4086,2.4322,2.4342,2.4325,2.4338,2.4338,2.4338,2.4338,2.4338,2.4338,2.4338,2.4338,2.4338,2.4338,2.4338,2.4338,2.4338,2.4338,2.4338,2.4338,2.4338,2.4338,2.4338,2.4043,2.4041,2.4098,2.4026,2.3841,2.3678,2.3118,2.2714,2.2669,2.2644,2.2591,2.2552,2.2552,2.2552,2.2552,2.2552,2.2552,2.2552,2.2552,2.2525,4.1002,4.1002,4.1002,4.1162,4.1401,4.1854,4.2389,4.3032,4.3389,4.3889,4.4423,4.4501,4.4501,4.452,4.4702,4.498,4.5353,4.6149,4.6512,4.6642,4.7386,4.7791,4.7843,4.8086,4.8512,4.912,4.9692,5.0134,5.0535,5.0743,5.0991,5.1239,5.1317,4.9122,4.572,4.8929,4.9199,4.617,4.9083,5.1317,5.0791,4.8697,4.6464,4.4461,4.1373,3.7682,3.3502,2.888,2.5737,2.4572,2.4019,2.3407,2.2642,2.2538,2.2552,2.2552,2.2552,2.2552,2.2552,2.2552,2.2552,2.2552,2.2552,2.2552,2.2552,2.2552,2.2552,2.2578,2.2766,2.3003,2.3344,2.3926,2.4295,2.4302,2.431,2.4325,2.4338,2.4338,2.4338,2.4338,2.4338,2.4338,2.4338,2.4338,2.4338,2.4338,2.4338,2.4338,2.4338,2.4338,2.4338,2.4338,2.4338,2.4338,2.4338,2.4312,2.4248,2.4257,2.4215,2.4124,2.3958,2.337,2.299,2.2961,2.2802,2.2762,2.2552,2.2552,2.2552,2.2552,2.2552,2.2552,2.2552,2.2552,2.2552,4.1002,4.1002,4.1002,4.1002,4.1085,4.1479,4.2004,4.2551,4.2876,4.3506,4.413,4.4208,4.4312,4.4475,4.4501,4.4702,4.5084,4.5655,4.6114,4.6426,4.7152,4.7671,4.7765,4.7817,4.806,4.8476,4.9057,4.9588,4.9937,5.0171,5.0498,5.0965,5.1043,4.823,4.34,4.8247,4.8324,4.4397,4.8402,5.1252,5.0945,4.7139,4.4229,4.2532,3.8079,3.3547,2.9555,2.6106,2.4427,2.4338,2.4291,2.3751,2.2791,2.2552,2.2552,2.2552,2.2552,2.2552,2.2552,2.2552,2.2552,2.2552,2.2552,2.2552,2.2552,2.2552,2.2552,2.2578,2.2802,2.3091,2.349,2.3867,2.4019,2.4043,2.4219,2.4331,2.4312,2.4338,2.4338,2.4338,2.4338,2.4338,2.4338,2.4338,2.4338,2.4338,2.4338,2.4338,2.4338,2.4338,2.4338,2.4338,2.4338,2.4338,2.4338,2.4325,2.4312,2.4272,2.4259,2.4182,2.4002,2.3631,2.3464,2.3328,2.3072,2.2894,2.2644,2.2552,2.2552,2.2552,2.2552,2.2552,2.2552,2.2552,2.2552,4.1002,4.1002,4.1002,4.1002,4.1002,4.1054,4.1458,4.201,4.2114,4.2707,4.3526,4.3597,4.3974,4.4397,4.4475,4.4527,4.4609,4.4688,4.521,4.5976,4.6201,4.6562,4.7703,4.7371,4.7304,4.7947,4.8512,4.886,4.9005,4.9421,4.9888,5.0457,5.0561,4.7107,3.9227,4.6534,4.6985,4.2932,4.7008,5.0957,5.0791,4.6681,4.2532,3.8705,3.3948,2.9463,2.5285,2.4572,2.4325,2.4334,2.4338,2.3758,2.2745,2.253,2.2552,2.2552,2.2552,2.2552,2.2552,2.2552,2.2552,2.2552,2.2552,2.2552,2.2552,2.2552,2.2552,2.2591,2.2802,2.3065,2.3427,2.3482,2.3481,2.3546,2.4005,2.431,2.4321,2.4325,2.4338,2.4338,2.4338,2.4338,2.4338,2.4338,2.4338,2.4338,2.4338,2.4338,2.4338,2.4338,2.4338,2.4338,2.4338,2.4338,2.4338,2.4338,2.4338,2.4301,2.4301,2.425,2.4094,2.3991,2.381,2.3692,2.346,2.3127,2.289,2.2617,2.2604,2.2552,2.2552,2.2552,2.2552,2.2552,2.2552,4.1002,4.1002,4.1002,4.1002,4.1002,4.1002,4.137,4.1958,4.201,4.2337,4.298,4.3389,4.3682,4.3889,4.4312,4.4501,4.4346,4.2511,4.3026,4.5099,4.1237,4.2149,4.611,4.4943,4.5223,4.7571,4.846,4.899,4.9265,4.9109,4.938,4.9851,5.0353,4.7753,4.3692,4.5309,4.5991,4.3968,4.5486,4.8282,4.9679,4.4033,3.9478,3.6925,3.0629,2.6021,2.4534,2.4353,2.4334,2.4321,2.4326,2.3789,2.2677,2.2552,2.2552,2.2552,2.2552,2.2552,2.2552,2.2552,2.2552,2.2552,2.2552,2.2552,2.2552,2.2552,2.2552,2.2604,2.2802,2.2986,2.3069,2.2968,2.2858,2.2979,2.3736,2.4315,2.4321,2.4307,2.4325,2.4338,2.4338,2.4338,2.4338,2.4338,2.4338,2.4338,2.4338,2.4338,2.4338,2.4338,2.4338,2.4338,2.4338,2.4338,2.4338,2.4338,2.4338,2.4338,2.4301,2.4301,2.4248,2.4184,2.4118,2.4013,2.38,2.3417,2.3088,2.2811,2.2644,2.2565,2.2552,2.2552,2.2552,2.2552,2.2552,4.1002,4.1002,4.1002,4.1002,4.1002,4.1002,4.124,4.164,4.1666,4.1952,4.2493,4.3032,4.3396,4.3447,4.2527,4.1512,4.0614,4.1128,4.1178,4.0818,3.8492,3.9097,4.266,4.2348,4.3288,4.5636,4.7498,4.8642,4.8755,4.7131,4.6584,4.7031,4.6219,4.3642,4.0634,4.1371,4.1528,4.0645,4.3268,4.4924,4.5359,4.0812,3.6829,3.4515,2.8089,2.4447,2.4338,2.4246,2.4225,2.4325,2.3873,2.3336,2.2662,2.2556,2.2552,2.2552,2.2552,2.2552,2.2552,2.2552,2.2552,2.2552,2.2552,2.2552,2.2552,2.2552,2.2552,2.2578,2.2687,2.2766,2.2744,2.2673,2.2529,2.2621,2.3208,2.3797,2.4177,2.4329,2.4338,2.4338,2.4338,2.4338,2.4338,2.4338,2.4338,2.4338,2.4338,2.4338,2.4338,2.4338,2.4338,2.4338,2.4338,2.4338,2.4338,2.4338,2.4338,2.4338,2.4338,2.4338,2.4338,2.4274,2.4129,2.4048,2.377,2.3401,2.3074,2.2775,2.2604,2.2552,2.2552,2.2552,2.2552,2.2552,2.2552,4.1002,4.1002,4.1002,4.1002,4.1002,4.1002,4.1002,4.108,4.0751,4.1034,4.1456,4.1767,4.2432,4.2328,3.8981,3.6105,3.4659,3.9394,3.9196,3.5497,3.7144,3.7448,3.5512,3.913,4.1013,4.1557,4.4641,4.6472,4.6605,4.3753,4.2168,4.2416,3.9872,3.5931,3.3585,3.6122,3.5717,3.4345,3.932,4.1559,3.8774,3.7555,3.4478,3.0152,2.6261,2.4314,2.4274,2.4037,2.4003,2.4248,2.3217,2.2578,2.2562,2.2538,2.2499,2.2486,2.2499,2.2512,2.2477,2.2503,2.2552,2.2552,2.2552,2.2552,2.2552,2.2552,2.2552,2.2552,2.2565,2.2578,2.2578,2.2569,2.2556,2.2529,2.2573,2.3182,2.4168,2.4307,2.431,2.4336,2.4285,2.4248,2.4338,2.4338,2.4338,2.4338,2.4338,2.4338,2.4338,2.4338,2.4338,2.4338,2.4338,2.4338,2.4338,2.4338,2.4338,2.4338,2.4338,2.4325,2.4338,2.4299,2.4127,2.3979,2.3612,2.3285,2.3035,2.2788,2.2604,2.2552,2.2552,2.2552,2.2552,2.2552,2.2552,4.1002,4.1002,4.1002,4.1002,4.1002,4.1002,4.1002,4.073,3.8398,3.7446,3.7417,3.5644,3.4936,3.499,3.4403,3.3781,3.303,3.2314,3.2498,3.3361,2.9304,3.0141,3.4182,3.3544,3.4162,3.6734,3.8453,3.9027,3.9142,4.0604,4.0579,3.8714,4.0155,3.9275,3.5685,3.3608,3.4131,3.5699,3.4936,3.5685,3.6612,3.3902,3.0105,2.629,2.4813,2.4338,2.4287,2.4037,2.3873,2.3721,2.2978,2.2564,2.2554,2.2551,2.2383,2.2061,2.2138,2.2201,2.2016,2.2329,2.2552,2.2552,2.2552,2.2552,2.2552,2.2552,2.2552,2.2525,2.2552,2.2538,2.2552,2.2552,2.2543,2.2552,2.2552,2.3033,2.4077,2.4323,2.4315,2.4305,2.4109,2.4063,2.4285,2.4325,2.4325,2.4338,2.4338,2.4338,2.4338,2.4338,2.4338,2.4338,2.4338,2.4338,2.4338,2.4338,2.4338,2.4338,2.4338,2.431,2.431,2.4284,2.4177,2.3738,2.3325,2.3025,2.2907,2.2736,2.2552,2.2552,2.2552,2.2552,2.2552,2.2552,2.2552,4.1002,4.1002,4.1002,4.1002,4.1002,4.1002,4.1002,4.0694,3.7414,3.5931,3.5291,2.9808,2.7394,2.7596,2.9172,2.9338,2.8554,2.9115,2.9277,2.8456,2.6237,2.6441,2.9446,2.9097,3.0329,3.2578,3.459,3.5428,3.5902,3.8053,3.7458,3.4298,3.4559,3.4094,3.1794,2.9651,2.9765,3.2228,3.1408,3.1165,3.1457,2.909,2.6636,2.455,2.4232,2.4129,2.409,2.3734,2.3407,2.3115,2.2757,2.2564,2.2542,2.2339,2.2125,2.183,2.1895,2.192,2.1784,2.2057,2.2334,2.254,2.2543,2.2522,2.2532,2.2559,2.2433,2.2262,2.2301,2.2333,2.2333,2.2486,2.2552,2.2543,2.2541,2.2782,2.352,2.3789,2.3982,2.3974,2.3867,2.385,2.41,2.4166,2.4182,2.4287,2.4338,2.4338,2.4338,2.4338,2.4338,2.4338,2.4338,2.4338,2.4338,2.4338,2.4338,2.4338,2.4338,2.4321,2.4257,2.4164,2.388,2.3555,2.3212,2.296,2.2828,2.2644,2.2552,2.2552,2.2552,2.2552,2.2552,2.2552,2.2552,4.1002,4.1002,4.1002,4.1002,4.1002,4.1002,4.1002,4.0515,3.701,3.537,3.3809,2.5008,2.1153,2.1536,2.4218,2.4236,2.2613,2.8109,2.7711,2.3136,2.5579,2.5523,2.337,2.6509,2.8336,2.8826,3.1905,3.3312,3.3367,3.4031,3.2939,3.0013,2.6584,2.5151,2.4449,2.4451,2.4521,2.4759,2.7931,2.7854,2.4526,2.4274,2.4261,2.4261,2.4034,2.3889,2.3839,2.3249,2.2814,2.2584,2.2484,2.2406,2.2353,2.1943,2.1684,2.1678,2.1644,2.1704,2.1697,2.171,2.1864,2.2334,2.2354,2.2381,2.2537,2.2513,2.2257,2.1895,2.1974,2.2051,2.1975,2.2259,2.2473,2.2521,2.2547,2.2552,2.2685,2.3085,2.345,2.344,2.3476,2.3582,2.381,2.3852,2.3958,2.4144,2.421,2.4338,2.4338,2.4338,2.4287,2.4261,2.4248,2.4248,2.4338,2.4338,2.4312,2.4323,2.4323,2.4337,2.4157,2.3854,2.3409,2.3123,2.2965,2.2815,2.2657,2.2552,2.2552,2.2552,2.2552,2.2552,2.2552,2.2552,2.2552,4.1002,4.1002,4.1002,4.1002,4.1002,4.1002,4.1002,4.0392,3.4591,3.0555,2.7696,2.3023,2.084,2.0957,2.1569,2.17,2.1565,2.2925,2.301,2.1998,2.2904,2.3021,2.2477,2.337,2.3982,2.4199,2.5125,2.5696,2.574,2.6069,2.7398,2.9543,2.9187,2.7213,2.4095,2.4195,2.434,2.4431,2.5178,2.5188,2.4338,2.4127,2.4021,2.3995,2.3731,2.3622,2.3559,2.2946,2.2609,2.2512,2.1975,2.1522,2.1226,2.1102,2.1038,2.1024,2.0998,2.109,2.1294,2.1124,2.1073,2.1186,2.1204,2.1588,2.2368,2.2173,2.1776,2.1433,2.1637,2.1829,2.1801,2.1888,2.2106,2.2511,2.2542,2.2547,2.2538,2.2661,2.285,2.3132,2.3136,2.3206,2.3529,2.3622,2.3631,2.3746,2.4019,2.4287,2.4338,2.4338,2.4208,2.4063,2.391,2.3962,2.4261,2.4312,2.4307,2.4307,2.4281,2.4251,2.4105,2.3412,2.2821,2.274,2.2657,2.2617,2.2578,2.2552,2.2552,2.2552,2.2552,2.2552,2.2552,2.2552,2.2552,4.0877,4.0695,4.0929,4.1002,4.1002,4.1002,4.0145,3.8212,3.3131,2.983,2.7696,2.2959,2.0833,2.0833,2.0833,2.0893,2.1018,2.1051,2.1163,2.1505,2.1643,2.1822,2.1988,2.2146,2.2178,2.2191,2.2468,2.2565,2.2652,2.3035,2.4415,2.6468,2.6942,2.6054,2.4053,2.4037,2.4182,2.425,2.3905,2.3671,2.3694,2.3562,2.3483,2.3447,2.3325,2.3193,2.3097,2.2626,2.2172,2.1766,2.1507,2.1207,2.084,2.0822,2.0809,2.0814,2.0833,2.0847,2.0972,2.0887,2.082,2.0833,2.0817,2.1075,2.1683,2.1472,2.1274,2.1044,2.1314,2.1472,2.1352,2.1318,2.1656,2.2429,2.2529,2.2534,2.2547,2.2538,2.258,2.2586,2.2683,2.2881,2.3206,2.3246,2.3207,2.314,2.3566,2.4003,2.4288,2.4127,2.3852,2.3757,2.3657,2.376,2.3902,2.3942,2.3963,2.4064,2.3731,2.3642,2.382,2.3222,2.2629,2.2547,2.2552,2.2552,2.2552,2.2552,2.2552,2.2552,2.2552,2.2552,2.2552,2.2552,2.2552,4.0513,4.0154,4.0695,4.0929,4.0898,4.0976,3.938,3.642,3.3121,3.109,2.9817,2.3553,2.0833,2.0833,2.0833,2.0833,2.0833,2.0833,2.0945,2.115,2.1169,2.138,2.1704,2.1744,2.177,2.1783,2.2001,2.212,2.2172,2.2613,2.2832,2.2969,2.3193,2.3569,2.38,2.3863,2.3982,2.4156,2.3407,2.3025,2.3025,2.295,2.2907,2.2788,2.2815,2.2648,2.2315,2.2091,2.1645,2.0855,2.1025,2.1011,2.079,2.0644,2.0584,2.0722,2.0708,2.065,2.0682,2.0682,2.0682,2.0727,2.0751,2.0829,2.0839,2.0812,2.0825,2.0814,2.1038,2.1051,2.0867,2.0855,2.1189,2.2119,2.2293,2.2354,2.2395,2.2497,2.2406,2.2064,2.2275,2.256,2.2762,2.2793,2.272,2.2696,2.3042,2.3526,2.3905,2.3716,2.341,2.3414,2.3427,2.3476,2.3569,2.3529,2.3529,2.3572,2.3003,2.284,2.3288,2.2867,2.2577,2.2556,2.2552,2.256,2.2542,2.2521,2.2494,2.2564,2.2481,2.2521,2.2552,2.2446,2.2463,3.9549,3.9497,4.0098,4.0362,4.0414,4.0825,4.0669,3.9899,0.0,0.0,0.0,2.2542,2.0833,2.0833,2.0833,2.0833,2.0833,2.0833,2.0827,2.086,2.1077,2.1242,2.1294,2.1618,2.177,2.177,2.1823,2.1836,2.1863,2.2159,2.238,2.2569,2.267,2.2995,2.3533,2.3595,2.3585,2.3625,2.348,2.3437,2.3401,2.3091,2.2652,2.2008,2.2199,2.1927,2.1143,2.1268,2.1181,2.0785,2.0126,2.0103,2.0699,1.987,1.9712,2.0385,2.0284,2.0165,2.0134,2.0134,2.0165,2.0165,2.0555,2.0829,2.0807,2.0838,2.0837,2.082,2.0821,2.0847,2.0828,2.0815,2.0885,2.105,2.1078,2.1341,2.1871,2.2274,2.2368,2.1917,2.1983,2.2137,2.2291,2.231,2.2377,2.2539,2.2643,2.2974,2.3397,2.3155,2.2837,2.2999,2.3074,2.3167,2.3401,2.349,2.3302,2.2899,2.2669,2.2578,2.271,2.2631,2.2534,2.2499,2.2552,2.2537,2.2524,2.2368,2.2286,2.2505,2.2368,2.2283,2.2468,2.2204,2.2036,3.8197,3.6743,3.8793,3.8899,0.0,3.9722,3.9591,3.7655,3.4385,3.0161,2.5234,2.1896,2.0411,2.0411,2.0556,2.0609,2.059,2.0767,2.0833,2.0814,2.0926,2.0992,2.1024,2.1202,2.1268,2.1268,2.1413,2.1459,2.1505,2.1782,2.2027,2.2138,2.2283,2.2428,2.2643,2.3031,2.3153,2.3008,2.2899,2.2855,2.2819,2.2639,2.2362,2.2021,2.2093,0.0,0.0,0.0,0.0,0.0,0.0,0.0,0.0,0.0,0.0,1.8842,1.8038,1.7577,1.755,1.7115,1.7024,1.7358,1.8921,1.9926,1.9881,2.0469,2.0449,1.9654,2.0068,2.0432,2.0404,2.042,2.0498,2.0783,2.0802,2.0926,2.1314,2.2009,2.227,2.1672,2.1744,2.1958,2.1969,2.1982,2.203,2.2133,2.2163,2.2372,2.2867,2.2744,2.2607,2.2696,2.2762,2.2815,2.3018,2.3044,2.2871,2.2669,2.2547,2.2555,2.2527,2.2553,2.246,2.2207,2.2391,2.2454,2.2225,2.2063,2.1982,2.2083,2.205,2.1912,2.1684,2.1731,2.1871,3.6698,3.3791,3.7446,3.6905,3.4049,3.8026,3.7091,3.2611,3.152,2.8405,2.3992,2.1227,2.0038,2.0064,2.0244,2.035,2.0332,2.059,2.0722,2.069,2.0755,2.0833,2.0833,2.0833,2.0833,2.0814,2.1018,2.1136,2.1136,2.1479,2.1657,2.1657,2.1948,2.2001,2.1869,0.0,0.0,0.0,2.2296,2.223,2.223,2.2265,2.2125,2.1914,2.1993,0.0,2.1466,2.1222,2.0991,2.081,2.058,0.0,0.0,0.0,0.0,0.0,0.0,0.0,0.0,0.0,0.0,0.0,1.5747,1.7371,1.8022,1.9644,1.9873,1.8111,1.9122,1.9782,1.939,1.9731,2.0221,2.0712,2.0802,2.0829,2.0863,2.164,2.1928,2.1189,2.1453,2.1725,2.1678,2.1657,2.1629,2.1598,2.1705,2.1946,2.2389,2.2492,2.2473,2.2397,2.2389,2.2415,2.2415,2.2415,2.2415,2.2437,2.241,2.2393,2.2366,2.228,2.2018,2.1897,2.2106,2.222,2.1657,2.1624,2.1691,2.1791,2.1691,2.1477,2.0958,2.1225,2.1558,3.5066,3.2347,3.6249,3.4689,2.9985,3.5614,3.313,2.5557,3.1553,2.9112,2.0641,2.0223,2.0038,2.0051,2.0059,2.0073,2.0086,2.0363,2.045,2.0464,2.0682,2.0833,2.0833,2.0833,2.0833,2.0833,2.0808,2.0834,2.0866,2.1123,2.1235,2.1281,2.1657,2.1942,2.2106,2.2191,2.2099,2.1855,2.2283,2.2464,2.2521,2.2499,2.2012,2.1051,2.1525,2.1334,2.0297,2.0648,2.0835,2.0756,1.9838,1.961,2.04,1.8845,1.7552,0.0,1.593,0.0,0.0,0.0,0.0,0.0,0.0,0.0,0.0,1.7952,1.911,1.6591,1.8286,1.8813,1.7109,1.881,2.0241,2.0729,2.0836,2.0824,2.0803,2.0933,2.0973,2.0827,2.0925,2.1024,2.1261,2.1268,2.1161,2.1039,2.1393,2.1756,2.191,2.2281,2.2402,2.1896,2.1876,2.1921,2.1921,2.1916,2.1916,2.1869,2.185,2.187,2.187,2.1434,2.1194,2.161,2.1797,2.1664,2.1043,2.1136,2.1367,2.1657,2.1103,2.0524,1.9958,1.9933,2.0907,3.349,2.9575,3.4628,3.1168,2.2898,2.8994,2.9273,2.5684,2.7187,2.6407,2.372,2.0483,1.9072,1.9056,1.9214,1.9373,1.9501,1.9852,2.0046,2.0205,2.0337,2.0482,2.0595,2.0595,2.0643,2.0833,2.0833,2.0833,2.0814,2.0945,2.1011,2.0979,2.1288,2.1123,2.0485,2.1446,2.1948,2.1974,2.2328,2.2552,2.2538,2.2257,2.1961,2.1571,2.1505,2.1196,2.0695,2.059,2.0641,2.0761,1.9816,1.9455,1.975,1.7349,1.5909,0.0,0.0,0.0,0.0,0.0,0.0,0.0,0.0,0.0,0.0,0.0,1.5464,1.4902,1.726,1.8005,1.6152,1.7836,1.9275,1.9775,1.984,1.9951,2.0308,2.0629,2.0739,2.0598,2.0718,2.0856,2.0926,2.0966,2.094,2.085,2.1024,2.1347,2.1738,2.2217,2.2299,2.1696,2.1709,2.187,2.1795,2.1803,2.1709,2.1341,2.1225,2.12,2.1193,2.0997,2.0906,2.113,2.1255,2.1136,2.0855,2.0927,2.1025,2.0665,1.8076,1.4033,1.0202,1.233,1.6544,3.1971,2.6863,3.1175,2.6782,1.7482,2.3587,2.5613,2.4509,2.2955,2.3171,2.4407,1.9999,1.7919,1.7748,1.7813,1.8049,1.8457,1.8884,1.935,1.9795,1.9844,2.0029,2.0292,2.0324,2.0411,2.0609,2.0458,2.0458,2.0622,2.0458,2.0327,2.0239,2.0387,1.9998,1.9063,2.0385,2.1393,2.1927,2.223,2.2341,2.2362,2.1961,2.185,2.1906,2.1485,2.1117,2.1038,2.0635,2.04,2.0374,1.9439,1.8818,1.8614,1.5796,0.0,0.0,0.0,0.0,0.0,0.0,0.0,0.0,0.0,0.945,1.5107,0.0,1.2307,0.0,1.6805,1.7553,1.6099,1.5978,0.0,0.0,1.8147,1.9039,2.0084,2.0313,1.9791,1.8271,1.9692,2.0825,2.0823,2.0839,2.0834,2.0816,2.0835,2.0997,2.1457,2.1912,2.14,1.935,2.0253,2.1631,2.1557,2.1611,2.1478,2.0894,2.0826,2.0808,2.0827,1.8324,1.6492,1.8093,1.9549,1.9212,1.6089,1.7345,1.7616,1.5848,1.1737,0.6324,0.1322,0.4255,1.0512,3.0564,2.4685,2.4568,2.1106,1.6393,2.2374,2.2222,1.8009,2.0787,2.0502,1.8078,1.7552,1.697,1.6268,1.5704,0.0,1.6745,1.7259,1.8089,1.9142,1.9345,1.9695,2.0046,2.0046,2.0059,2.0042,1.9458,1.9471,2.0033,1.9484,1.8931,1.8488,1.8501,1.8565,1.8694,1.9076,1.9945,2.1222,2.1624,2.1836,2.1836,2.1783,2.1584,2.1261,2.1209,2.0985,2.0522,2.0456,2.0029,1.9211,1.8087,1.7457,1.7363,0.0,0.0,0.0,0.0,0.0,0.0,0.0,0.0,0.0,0.0,0.0,0.0,0.0,0.0,0.0,1.7584,0.0,1.7224,1.2529,0.0,0.0,0.0,1.8286,2.0481,1.9811,1.7158,1.1888,0.0,0.0,2.0812,2.0797,2.0831,2.081,2.0839,2.0816,2.0841,2.0725,1.8633,1.307,1.6934,2.0803,2.096,2.0549,2.042,2.0725,2.0822,2.0018,1.9362,1.0897,0.533,1.015,1.6512,1.6999,0.3933,0.7495,0.935,0.3444,0.0,0.0,0.0,0.0,0.5089,2.6289,1.9606,2.0376,1.8227,1.474,1.8784,1.9823,1.8772,2.009,1.9812,1.8275,1.6553,1.5192,1.4236,1.4011,0.0,0.0,0.0,1.635,1.78,1.785,1.8378,1.9158,1.9228,1.9277,1.9435,1.9138,1.9211,1.9418,1.9352,1.7733,1.476,0.0,0.0,1.6124,1.7906,1.9366,2.0477,2.1314,2.1678,2.1419,2.1644,2.1605,2.1182,2.0893,2.0635,2.0429,1.9883,1.9428,1.9026,1.7271,1.5911,0.0,0.0,0.0,0.0,0.0,0.0,0.0,0.0,0.0,0.0,0.0,0.8541,1.2177,0.0,0.0,0.0,1.5581,1.5247,1.7169,1.5257,0.0,0.0,0.0,0.0,0.0,0.0,0.0,1.0274,1.6552,2.0817,2.0744,1.7173,1.298,0.8796,1.5517,2.0825,2.0809,0.0,1.03,1.5947,1.9037,2.0809,2.0777,1.7329,1.6052,2.0071,1.4059,0.8487,0.8115,0.4031,0.1175,0.3625,0.637,0.6466,0.105,0.2133,0.3089,0.0,0.0,0.0,0.0,0.0,0.1368,2.1808,0.0,0.0,0.0,0.0,1.499,1.6544,1.7633,1.7656,1.7457,1.6986,1.4947,0.0,0.0,0.0,0.0,0.0,0.0,1.4926,1.639,1.6746,1.7391,1.8273,1.8245,1.8378,1.8563,1.842,1.8205,1.8047,1.7809,1.58,1.2162,0.0,0.0,0.0,0.0,1.8418,1.9712,2.0905,2.136,2.1064,2.1347,2.1393,2.1084,2.0629,2.035,2.0178,1.9145,1.8552,1.8516,1.5897,0.0,0.0,0.0,0.0,0.0,0.0,0.0,0.0,0.0,0.0,0.0,0.0,0.0,0.0,0.0,0.0,0.0,0.0,0.0,1.4616,1.4063,1.1593,0.0,0.0,0.0,0.0,0.0,0.0,0.0,0.0,0.0,1.5331,1.053,0.5605,0.0,0.0,1.483,1.4862,0.9835,0.8032,1.3994,1.6538,0.0,1.5138,1.2379,1.2867,1.9703,0.9208,0.0,0.0,0.0,0.0,0.0,0.0,0.0,0.0,0.0,0.0,0.0,0.0,0.0,0.0,0.0,0.0,0.0,0.0,0.0,0.0,0.0,0.0,0.0,0.0,1.2568,1.2587,0.0,1.2427,0.0,0.0,0.0,0.0,1.1471,1.2763,0.0,0.0,1.635,1.7075,1.7298,1.7338,1.7324,1.7311,1.6824,1.6258,1.5578,1.4279,0.0,0.0,0.0,0.0,0.0,0.0,1.676,1.9036,2.0248,2.0827,2.0827,2.0827,2.084,2.0827,2.0556,2.0183,1.9631,1.8154,1.7348,1.7289,1.3797,0.0,0.0,0.0,0.0,0.0,0.0,0.0,0.0,0.0,0.0,0.0,0.0,0.0,0.0,0.0,0.0,0.0,0.0,0.0,0.0,0.6398,0.0,0.0,0.0,0.0,0.0,0.0,0.0,0.0,0.0,0.0,0.2851,0.0,0.0,0.0,0.0,0.0,0.0,0.0,1.5343,0.2734,0.6436,0.8487,0.1908,0.6244,1.2669,1.9459,0.0,0.0,0.0,0.0,0.0,0.0,0.0,0.0,0.0,0.0,0.0,0.0,0.0,0.0,0.0,0.0,0.0,0.0,0.0,0.0,0.0,0.0,0.0,0.0,0.0,0.0,1.1432,0.0,1.1087,0.0,0.0,0.0,0.0,0.0,0.0,0.0,0.0,1.4227,1.4774,1.504,1.5629,1.5511,0.0,1.4577,1.3705,0.0,0.0,0.0,0.0,0.0,0.0,0.0,0.0,1.6297,1.8237,1.9949,2.0833,2.0833,2.0833,2.0833,2.0801,2.0556,1.9624,1.792,1.6772,1.4946,0.0,0.0,0.0,0.0,0.0,0.0,0.0,0.0,0.0,0.0,0.0,0.0,0.0,0.0,0.0,0.0,0.0,0.0,0.0,0.0,0.0,0.0,0.0,0.5244,0.0,0.0,0.0,0.0,0.0,0.0,0.0,0.0,0.0,0.0566,0.0,0.0,0.0,0.0,0.0,0.0,0.0,0.0,0.0,0.0,0.0,0.0,0.0,0.4465,0.6835,0.3193,0.0,0.0,0.0,0.0,0.0,0.0,0.0,0.0,0.0,0.0,0.0,0.0,0.0,0.0,0.0,0.0,0.0,0.0,0.0,0.0,0.0,0.0,0.0,0.0,0.0,1.024,0.9941,0.0,0.0,0.0,0.0,0.0,0.0,0.0,0.0,0.0,0.0,0.0,1.3289,1.3911,0.0,0.0,0.0,0.0,0.0,0.0,0.0,0.0,0.0,0.0,0.0,0.0,1.5886,1.7577,1.9699,2.0833,2.0833,2.0833,2.0833,2.0833,2.0543,1.9426,1.7313,0.0,0.0,0.0,0.0,0.0,0.0,0.0,0.0,0.0,0.0,0.0,0.0,0.0,0.0,0.0,0.0,0.0,0.0,0.0,0.0,0.0,0.0,0.0,0.0,0.0,0.4234,0.0,0.0,0.0,0.0,0.0,0.0,0.0,0.0,0.0,0.0,0.0,0.0,0.0,0.0,0.0,0.0,0.0,0.0,0.0,0.0,0.0,0.0,0.0,0.0,0.0,0.0,0.0,0.0,0.0,0.0,0.0,0.0,0.0,0.0,0.0,0.0,0.0,0.0,0.0,0.0,0.0,0.0,0.0,0.0,0.0,0.0,0.0,0.0,0.0,0.0,0.0,0.0,0.8743,0.0,0.0,0.873,0.0,0.0,0.0,0.0,0.0,0.0,0.0,0.0,0.0,0.0,0.0,0.0,0.0,0.0,0.0,0.0,0.0,0.0,0.0,0.0,0.0,0.0,1.5469,1.6943,1.9484,2.0833,2.0833,2.0833,2.0833,2.0801,2.0543,1.9614,1.787,0.0,0.0,0.0,0.0,0.0,0.0,0.0,0.0,0.0,0.0,0.0,0.0,0.0,0.0,0.0,0.0,0.0,0.0,0.0,0.0,0.0,0.0,0.0,0.0,0.0,0.0,0.0,0.0,0.0,0.0,0.0,0.0,0.0,0.0,0.0,0.0,0.0,0.0,0.0,0.0,0.0,0.0,0.0,0.0,0.0,0.0,0.0,0.0,0.0,0.0,0.0,0.0,0.0,0.0,0.0,0.0,0.0,0.0,0.0,0.0,0.0,0.0,0.0,0.0,0.0,0.0,0.0,0.0,0.0,0.0,0.0,0.0,0.0,0.0,0.0,0.0,0.0,0.0,0.0,0.0,0.0,0.0,0.0,0.0,0.0,0.0,0.0,0.0,0.0,0.0,0.0,0.0,0.0,0.0,0.0,0.0,0.0,0.0,0.0,0.0,0.0,0.0,0.0,0.0,1.5456,1.6904,1.9484,2.0833,2.0833,2.0833,2.0833,2.0787,2.0358,1.9214,0.0,0.0,0.0,0.0,0.0,0.0,0.0,0.0,0.0,0.0,0.0,0.0,0.0,0.0,0.0,0.0,0.0,0.0,0.0,0.0,0.0,0.0,0.0,0.0,0.0,0.0,0.0,0.0,0.0,0.0,0.0,0.0,0.0,0.0,0.0,0.0,0.0,0.0,0.0,0.0,0.0,0.0,0.0,0.0,0.0,0.0,0.0,0.0,0.0,0.0,0.0,0.0,0.0,0.0,0.0,0.0,0.0,0.0,0.0,0.0,0.0,0.0,0.0,0.0,0.0,0.0,0.0,0.0,0.0,0.0,0.0,0.0,0.0,0.0,0.0,0.0,0.0,0.0,0.0,0.0,0.0,0.0,0.0,0.0,0.0,0.0,0.0,0.0,0.0,0.0,0.0,0.0,0.0,0.0,0.0,0.0,0.0,0.0,0.0,0.0,0.0,0.0,0.0,0.0,0.0,1.5308,1.6759,1.9313,2.0695,2.0801,2.0833,2.0748,2.0643,2.0226,1.8763,0.0,0.0,0.0,0.0,0.0,0.0,0.0,0.0,0.0,0.0,0.0,0.0,0.0,0.0,0.0,0.0,0.0,0.0,0.0,0.0,0.0,0.0,0.0,0.0,0.0,0.0,0.0,0.0,0.0,0.0,0.0,0.0,0.0,0.0,0.0,0.0,0.0,0.0,0.0,0.0,0.0,0.0,0.0,0.0,0.0,0.0,0.0,0.0,0.0,0.0,0.0,0.0,0.0,0.0,0.0,0.0,0.0,0.0,0.0,0.0,0.0,0.0,0.0,0.0,0.0,0.0,0.0,0.0,0.0,0.0,0.0,0.0,0.0,0.0,0.0,0.0,0.0,0.0,0.0,0.0,0.0,0.0,0.0,0.0,0.0,0.0,0.0,0.0,0.0,0.0,0.0,0.0,0.0,0.0,0.0,0.0,0.0,0.0,0.0,0.0,0.0,0.0,0.0,0.0,0.0,0.0,1.6547,1.9095,2.0543,2.082,2.0833,2.0656,2.0398,2.0183,1.8411,0.0,0.0,0.0,0.0,0.0,0.0,0.0,0.0,0.0,0.0,0.0,0.0,0.0,0.0,0.0,0.0,0.0,0.0,0.0,0.0,0.0,0.0,0.0,0.0,0.0,0.0,0.0,0.0,0.0,0.0,0.0,0.0,0.0,0.0,0.0,0.0,0.0,0.0,0.0,0.0,0.0,0.0,0.0,0.0,0.0,0.0,0.0,0.0,0.0,0.0,0.0,0.0,0.0,0.0,0.0,0.0,0.0,0.0,0.0,0.0,0.0,0.0,0.0,0.0,0.0,0.0,0.0,0.0,0.0,0.0,0.0,0.0,0.0,0.0,0.0,0.0,0.0,0.0,0.0,0.0,0.0,0.0,0.0,0.0,0.0,0.0,0.0,0.0,0.0,0.0,0.0,0.0,0.0,0.0,0.0,0.0,0.0,0.0,0.0,0.0,0.0,0.0,0.0,0.0,0.0,0.0,1.6546,1.9095,2.0543,2.0768,2.0833,2.0669,2.0398,2.0165,0.0,0.0,0.0,0.0,0.0,0.0,0.0,0.0,0.0,0.0,0.0,0.0,0.0,0.0,0.0,0.0,0.0,0.0,0.0,0.0,0.0,0.0,0.0,0.0,0.0,0.0,0.0,0.0,0.0,0.0,0.0,0.0,0.0,0.0,0.0,0.0,0.0,0.0,0.0,0.0,0.0,0.0,0.0,0.0,0.0,0.0,0.0,0.0,0.0,0.0,0.0,0.0,0.0,0.0,0.0,0.0,0.0,0.0,0.0,0.0,0.0,0.0,0.0,0.0,0.0,0.0,0.0,0.0,0.0,0.0,0.0,0.0,0.0,0.0,0.0,0.0,0.0,0.0,0.0,0.0,0.0,0.0,0.0,0.0,0.0,0.0,0.0,0.0,0.0,0.0,0.0,0.0,0.0,0.0,0.0,0.0,0.0,0.0,0.0,0.0,0.0,0.0,0.0,0.0,0.0,0.0,1.4522,1.6347,1.8409,1.9822,2.0437,2.0464,2.03,1.9967,1.9738,1.8024,0.0,0.0,0.0,0.0,0.0,0.0,0.0,0.0,0.0,0.0,0.0,0.0,0.0,0.0,0.0,0.0,0.0,0.0,0.0,0.0,0.0,0.0,0.0,0.0,0.0,0.0,0.0,0.0,0.0,0.0,0.0,0.0,0.0,0.0,0.0,0.0,0.0,0.0,0.0,0.0,0.0,0.0,0.0,0.0,0.0,0.0,0.0,0.0,0.0,0.0,0.0,0.0,0.0,0.0,0.0,0.0,0.0,0.0,0.0,0.0,0.0,0.0,0.0,0.0,0.0,0.0,0.0,0.0,0.0,0.0,0.0,0.0,0.0,0.0,0.0,0.0,0.0,0.0,0.0,0.0,0.0,0.0,0.0,0.0,0.0,0.0,0.0,0.0,0.0,0.0,0.0,0.0,0.0,0.0,0.0,0.0,0.0,0.0,0.0,0.0,0.0,0.0,0.0,0.0,0.0,0.0,1.6216,1.7631,1.8897,1.9971,2.0051,1.9813,1.945,1.9221,1.7602,0.0,0.0,0.0,0.0,0.0,0.0,0.0,0.0,0.0,0.0,0.0,0.0,0.0,0.0,0.0,0.0,0.0,0.0,0.0,0.0,0.0,0.0,0.0,0.0,0.0,0.0,0.0,0.0,0.0,0.0,0.0,0.0,0.0,0.0,0.0,0.0,0.0,0.0,0.0,0.0,0.0,0.0,0.0,0.0,0.0,0.0,0.0,0.0,0.0,0.0,0.0,0.0,0.0,0.0,0.0,0.0,0.0,0.0,0.0,0.0,0.0,0.0,0.0,0.0,0.0,0.0,0.0,0.0,0.0,0.0,0.0,0.0,0.0,0.0,0.0,0.0,0.0,0.0,0.0,0.0,0.0,0.0,0.0,0.0,0.0,0.0,0.0,0.0,0.0,0.0,0.0,0.0,0.0,0.0,0.0,0.0,0.0,0.0,0.0,0.0,0.0,0.0,0.0,0.0,0.0,0.0,1.6992,1.8267,1.9264,1.9998,2.0038,1.9844,1.945,1.9178,1.7681,0.0,0.0,0.0,0.0,0.0,0.0,0.0,0.0,0.0,0.0,0.0,0.0,0.0,0.0,0.0,0.0,0.0,0.0,0.0,0.0,0.0,0.0,0.0,0.0,0.0,0.0,0.0,0.0,0.0,0.0,0.0,0.0,0.0,0.0,0.0,0.0,0.0,0.0,0.0,0.0,0.0,0.0,0.0,0.0,0.0,0.0,0.0,0.0,0.0,0.0,0.0,0.0,0.0,0.0,0.0,0.0,0.0,0.0,0.0,0.0,0.0,0.0,0.0,0.0,0.0,0.0,0.0,0.0,0.0,0.0,0.0,0.0,0.0,0.0,0.0,0.0,0.0,0.0,0.0,0.0,0.0,0.0,0.0,0.0,0.0,0.0,0.0,0.0,0.0,0.0,0.0,0.0,0.0,0.0,0.0,0.0,0.0,0.0,0.0,0.0,0.0,0.0,0.0,0.0,0.0,0.0,1.6594,1.758,1.8444,1.9316,1.9471,1.9405,1.9073,1.8478,1.7086,0.0,0.0,0.0,0.0,0.0,0.0,0.0,0.0,0.0,0.0,0.0,0.0,0.0,0.0,0.0,0.0,0.0,0.0,0.0,0.0,0.0,0.0,0.0,0.0,0.0,0.0,0.0,0.0,0.0,0.0,0.0,0.0,0.0,0.0,0.0,0.0,0.0,0.0,0.0,0.0,0.0,0.0,0.0,0.0,0.0,0.0,0.0,0.0,0.0,0.0,0.0,0.0,0.0,0.0,0.0,0.0,0.0,0.0,0.0,0.0,0.0,0.0,0.0,0.0,0.0,0.0,0.0,0.0,0.0,0.0,0.0,0.0,0.0,0.0,0.0,0.0,0.0,0.0,0.0,0.0,0.0,0.0,0.0,0.0,0.0,0.0,0.0,0.0,0.0,0.0,0.0,0.0,0.0,0.0,0.0,0.0,0.0,0.0,0.0,0.0,0.0,0.0,0.0,0.0,0.0,0.0,1.5728,1.6662,1.7618,1.8686,1.895,1.895,1.8655,1.7782,1.6344,1.4319,0.0,0.0,0.0,0.0,0.0,0.0,0.0,0.0,0.0,0.0,0.0,0.0,0.0,0.0,0.0,0.0,0.0,0.0,0.0,0.0,0.0,0.0,0.0,0.0,0.0,0.0,0.0,0.0,0.0,0.0,0.0,0.0,0.0,0.0,0.0,0.0,0.0,0.0,0.0,0.0,0.0,0.0,0.0,0.0,0.0,0.0,0.0,0.0,0.0,0.0,0.0,0.0,0.0,0.0,0.0,0.0,0.0,0.0,0.0,0.0,0.0,0.0,0.0,0.0,0.0,0.0,0.0,0.0,0.0,0.0,0.0,0.0,0.0,0.0,0.0,0.0,0.0,0.0,0.0,0.0,0.0,0.0,0.0,0.0,0.0,0.0,0.0,0.0,0.0,0.0,0.0,0.0,0.0,0.0,0.0,0.0,0.0,0.0,0.0,0.0,0.0,0.0,0.0,0.0,0.0,0.0,1.6735,1.8364,1.8944,1.9051,1.8938,1.8628,1.778,1.612,1.367,0.0,0.0,0.0,0.0,0.0,0.0,0.0,0.0,0.0,0.0,0.0,0.0,0.0,0.0,0.0,0.0,0.0,0.0,0.0,0.0,0.0,0.0,0.0,0.0,0.0,0.0,0.0,0.0,0.0,0.0,0.0,0.0,0.0,0.0,0.0,0.0,0.0,0.0,0.0,0.0,0.0,0.0,0.0,0.0,0.0,0.0,0.0,0.0,0.0,0.0,0.0,0.0,0.0,0.0,0.0,0.0,0.0,0.0,0.0,0.0,0.0,0.0,0.0,0.0,0.0,0.0,0.0,0.0,0.0,0.0,0.0,0.0,0.0,0.0,0.0,0.0,0.0,0.0,0.0,0.0,0.0,0.0,0.0,0.0,0.0,0.0,0.0,0.0,0.0,0.0,0.0,0.0,0.0,0.0,0.0,0.0,0.0,0.0,0.0,0.0,0.0,0.0,0.0,0.0,0.0,0.0,0.0,1.4075,1.4121,1.705,1.8431,1.7942,1.6903,1.5255,0.0,0.0,0.0,0.0,0.0,0.0,0.0,0.0,0.0,0.0,0.0,0.0,0.0,0.0,0.0,0.0,0.0,0.0,0.0,0.0,0.0,0.0,0.0,0.0,0.0,0.0,0.0,0.0,0.0,0.0,0.0,0.0,0.0,0.0,0.0,0.0,0.0,0.0,0.0,0.0,0.0,0.0,0.0,0.0,0.0,0.0,0.0,0.0,0.0,0.0,0.0,0.0,0.0,0.0,0.0,0.0,0.0,0.0,0.0,0.0,0.0,0.0,0.0,0.0,0.0,0.0,0.0,0.0,0.0,0.0,0.0,0.0,0.0,0.0,0.0,0.0,0.0,0.0,0.0,0.0,0.0,0.0,0.0,0.0,0.0,0.0,0.0,0.0,0.0,0.0,0.0,0.0,0.0,0.0,0.0,0.0,0.0,0.0,0.0,0.0,0.0,0.0,0.0,0.0,0.0,0.0,0.0,0.0,1.1281,1.1592,1.5797,1.782,1.7295,1.593,1.4229,0.0,0.0,0.0,0.0,0.0,0.0,0.0,0.0,0.0,0.0,0.0,0.0,0.0,0.0,0.0,0.0,0.0,0.0,0.0,0.0,0.0,0.0,0.0,0.0,0.0,0.0,0.0,0.0,0.0,0.0,0.0,0.0,0.0,0.0,0.0,0.0,0.0,0.0,0.0,0.0,0.0,0.0,0.0,0.0,0.0,0.0,0.0,0.0,0.0,0.0,0.0,0.0,0.0,0.0,0.0,0.0,0.0,0.0,0.0,0.0,0.0,0.0,0.0,0.0,0.0,0.0,0.0,0.0,0.0,0.0,0.0,0.0,0.0,0.0,0.0,0.0,0.0,0.0,0.0,0.0,0.0,0.0,0.0,0.0,0.0,0.0,0.0,0.0,0.0,0.0,0.0,0.0,0.0,0.0,0.0,0.0,0.0,0.0,0.0,0.0,0.0,0.0,0.0,0.0,0.0,0.0,0.0,0.0,1.4932,1.793,1.7615,1.737,1.7242,1.5149,1.3302,0.0,0.0,0.0,0.0,0.0,0.0,0.0,0.0,0.0,0.0,0.0,0.0,0.0,0.0,0.0,0.0,0.0,0.0,0.0,0.0,0.0,0.0,0.0,0.0,0.0,0.0,0.0,0.0,0.0,0.0,0.0,0.0,0.0,0.0,0.0,0.0,0.0,0.0,0.0,0.0,0.0,0.0,0.0,0.0,0.0,0.0,0.0,0.0,0.0,0.0,0.0,0.0,0.0,0.0,0.0,0.0,0.0,0.0,0.0,0.0,0.0,0.0,0.0,0.0,0.0,0.0,0.0,0.0,0.0,0.0,0.0,0.0,0.0,0.0,0.0,0.0,0.0,0.0,0.0,0.0,0.0,0.0,0.0,0.0,0.0,0.0,0.0,0.0,0.0,0.0,0.0,0.0,0.0,0.0,0.0,0.0,0.0,0.0,0.0,0.0,0.0,0.0,0.0,0.0,0.0,0.0,0.0,0.0,0.8605,0.8085,1.4112,1.4099,0.7431,1.0913,1.2601,0.0,0.0,0.0,0.0,0.0,0.0,0.0,0.0,0.0,0.0,0.0,0.0,0.0,0.0,0.0,0.0,0.0,0.0,0.0,0.0,0.0,0.0,0.0,0.0,0.0,0.0,0.0,0.0,0.0,0.0,0.0,0.0,0.0,0.0,0.0,0.0,0.0,0.0,0.0,0.0,0.0,0.0,0.0,0.0,0.0,0.0,0.0,0.0,0.0,0.0,0.0,0.0,0.0,0.0,0.0,0.0,0.0,0.0,0.0,0.0,0.0,0.0,0.0,0.0,0.0,0.0,0.0,0.0,0.0,0.0,0.0,0.0,0.0,0.0,0.0,0.0,0.0,0.0,0.0,0.0,0.0,0.0,0.0,0.0,0.0,0.0,0.0,0.0,0.0,0.0,0.0,0.0,0.0,0.0,0.0,0.0,0.0,0.0,0.0,0.0,0.0,0.0,0.0,0.0,0.0,0.0,0.0,0.0,0.0,0.0434,0.8335,0.8706,0.0606,0.7663,1.1661,0.0,0.0,0.0,0.0,0.0,0.0,0.0,0.0,0.0,0.0,0.0,0.0,0.0,0.0,0.0,0.0,0.0,0.0,0.0,0.0,0.0,0.0,0.0,0.0,0.0,0.0,0.0,0.0,0.0,0.0,0.0,0.0,0.0,0.0,0.0,0.0,0.0,0.0,0.0,0.0,0.0,0.0,0.0,0.0,0.0,0.0,0.0,0.0,0.0,0.0,0.0,0.0,0.0,0.0,0.0,0.0,0.0,0.0,0.0,0.0,0.0,0.0,0.0,0.0,0.0,0.0,0.0,0.0,0.0,0.0,0.0,0.0,0.0,0.0,0.0,0.0,0.0,0.0,0.0,0.0,0.0,0.0,0.0,0.0,0.0,0.0,0.0,0.0,0.0,0.0,0.0,0.0,0.0,0.0,0.0,0.0,0.0,0.0,0.0,0.0,0.0,0.0,0.0,0.0,0.0,0.0,0.0,0.0,0.0,0.0,0.0,0.0784,0.0265,0.6872,1.0082,0.0,0.0,0.0,0.0,0.0,0.0,0.0,0.0,0.0,0.0,0.0,0.0,0.0,0.0,0.0,0.0,0.0,0.0,0.0,0.0,0.0,0.0,0.0,0.0,0.0,0.0,0.0,0.0,0.0,0.0,0.0,0.0,0.0,0.0,0.0,0.0,0.0,0.0,0.0,0.0,0.0,0.0,0.0,0.0,0.0,0.0,0.0,0.0,0.0,0.0,0.0,0.0,0.0,0.0,0.0,0.0,0.0,0.0,0.0,0.0,0.0,0.0,0.0,0.0,0.0,0.0,0.0,0.0,0.0,0.0,0.0,0.0,0.0,0.0,0.0,0.0,0.0,0.0,0.0,0.0,0.0,0.0,0.0,0.0,0.0,0.0,0.0,0.0,0.0,0.0,0.0,0.0,0.0,0.0,0.0,0.0,0.0,0.0,0.0,0.0,0.0,0.0,0.0,0.0,0.0,0.0,0.0,0.0,0.0,0.0,0.0,0.3113,0.9582,0.5917,0.3706,0.3261,0.0,0.0,0.0,0.0,0.0,0.0,0.0,0.0,0.0,0.0,0.0,0.0,0.0,0.0,0.0,0.0,0.0,0.0,0.0,0.0,0.0,0.0,0.0,0.0,0.0,0.0,0.0,0.0,0.0,0.0,0.0,0.0,0.0,0.0,0.0,0.0,0.0,0.0,0.0,0.0,0.0,0.0,0.0,0.0,0.0,0.0,0.0,0.0,0.0,0.0,0.0,0.0,0.0,0.0,0.0,0.0,0.0,0.0,0.0,0.0,0.0,0.0,0.0,0.0,0.0,0.0,0.0,0.0,0.0,0.0,0.0,0.0,0.0,0.0,0.0,0.0,0.0,0.0,0.0,0.0,0.0,0.0,0.0,0.0,0.0,0.0,0.0,0.0,0.0,0.0,0.0,0.0,0.0,0.0,0.0,0.0,0.0,0.0,0.0,0.0,0.0,0.0,0.0,0.0,0.0,0.0,0.0,0.0,0.0,0.0,0.3439,1.0094,0.3741,0.0,0.0,0.0,0.0,0.0,0.0,0.0,0.0,0.0,0.0,0.0,0.0,0.0,0.0,0.0,0.0,0.0,0.0,0.0,0.0,0.0,0.0,0.0,0.0,0.0,0.0,0.0,0.0,0.0,0.0,0.0,0.0,0.0,0.0,0.0,0.0,0.0,0.0,0.0,0.0,0.0,0.0,0.0,0.0,0.0,0.0,0.0,0.0,0.0,0.0,0.0,0.0,0.0,0.0,0.0,0.0,0.0,0.0,0.0,0.0,0.0,0.0,0.0,0.0,0.0,0.0,0.0,0.0,0.0,0.0,0.0,0.0,0.0,0.0,0.0,0.0,0.0,0.0,0.0,0.0,0.0,0.0,0.0,0.0,0.0,0.0,0.0,0.0,0.0,0.0,0.0,0.0,0.0,0.0,0.0,0.0,0.0,0.0,0.0,0.0,0.0,0.0,0.0,0.0,0.0,0.0,0.0,0.0,0.0,0.0,0.0,0.0,0.0,0.0,0.0,0.0,0.0,0.0,0.0,0.0,0.0,0.0,0.0,0.0,0.0,0.0,0.0,0.0,0.0,0.0,0.0,0.0,0.0,0.0,0.0,0.0,0.0,0.0,0.0,0.0,0.0,0.0,0.0,0.0,0.0,0.0,0.0,0.0,0.0,0.0,0.0,0.0,0.0,0.0,0.0,0.0,0.0,0.0,0.0,0.0,0.0,0.0,0.0,0.0,0.0,0.0,0.0,0.0,0.0,0.0,0.0,0.0,0.0,0.0,0.0,0.0,0.0,0.0,0.0,0.0,0.0,0.0,0.0,0.0,0.0,0.0,0.0,0.0,0.0,0.0,0.0,0.0,0.0,0.0,0.0,0.0,0.0,0.0,0.0,0.0,0.0,0.0,0.0,0.0,0.0,0.0,0.0,0.0,0.0,0.0,0.0,0.0,0.0,0.0,0.0,0.0,0.0,0.0,0.0,0.0,0.0,0.0,0.0,0.0,0.0,0.0,0.0,0.0,0.0,0.0,0.0,0.0,0.0,0.0,0.0,0.0,0.0,0.0,0.0,0.0,0.0,0.0,0.0,0.0,0.0,0.0,0.0,0.0,0.0,0.0,0.0,0.0,0.0,0.0,0.0,0.0,0.0,0.0,0.0,0.0,0.0,0.0,0.0,0.0,0.0,0.0,0.0,0.0,0.0,0.0,0.0,0.0,0.0,0.0,0.0,0.0,0.0,0.0,0.0,0.0,0.0,0.0,0.0,0.0,0.0,0.0,0.0,0.0,0.0,0.0,0.0,0.0,0.0,0.0,0.0,0.0,0.0,0.0,0.0,0.0,0.0,0.0,0.0,0.0,0.0,0.0,0.0,0.0,0.0,0.0,0.0,0.0,0.0,0.0,0.0,0.0,0.0,0.0,0.0,0.0,0.0,0.0,0.0,0.0,0.0,0.0,0.0,0.0,0.0,0.0,0.0,0.0,0.0,0.0,0.0,0.0,0.0,0.0,0.0,0.0,0.0,0.0,0.0,0.0,0.0,0.0,0.0,0.0,0.0,0.0,0.0,0.0,0.0,0.0,0.0,0.0,0.0,0.0,0.0,0.0,0.0,0.0,0.0,0.0,0.0,0.0,0.0,0.0,0.0,0.0,0.0,0.0,0.0,0.0,0.0,0.0,0.0,0.0,0.0,0.0,0.0,0.0,0.0,0.0,0.0,0.0,0.0,0.0,0.0,0.0,0.0,0.0,0.0,0.0,0.0,0.0,0.0,0.0,0.0,0.0,0.0,0.0,0.0,0.0,0.0,0.0,0.0,0.0,0.0,0.0,0.0,0.0,0.0,0.0,0.0,0.0,0.0,0.0,0.0,0.0,0.0,0.0,0.0,0.0,0.0,0.0,0.0,0.0,0.0,0.0,0.0,0.0,0.0,0.0,0.0,0.0,0.0,0.0,0.0,0.0,0.0,0.0,0.0,0.0,0.0,0.0,0.0,0.0,0.0,0.0,0.0,0.0,0.0,0.0,0.0,0.0,0.0,0.0,0.0,0.0,0.0,0.0,0.0,0.0,0.0,0.0,0.0,0.0,0.0,0.0,0.0,0.0,0.0,0.0,0.0,0.0,0.0,0.0,0.0,0.0,0.0,0.0,0.0,0.0,0.0,0.0,0.0,0.0,0.0,0.0,0.0,0.0,0.0,0.0,0.0,0.0,0.0,0.0,0.0,0.0,0.0,0.0,0.0,0.0,0.0,0.0,0.0,0.0,0.0,0.0,0.0,0.0,0.0,0.0,0.0,0.0,0.0,0.0,0.0,0.0,0.0,0.0,0.0,0.0,0.0,0.0,0.0,0.0,0.0,0.0,0.0,0.0,0.0,0.0,0.0,0.0,0.0,0.0,0.0,0.0,0.0,0.0,0.0,0.0,0.0,0.0,0.0,0.0,0.0,0.0,0.0,0.0,0.0,0.0,0.0,0.0,0.0,0.0,0.0,0.0,0.0,0.0,0.0,0.0,0.0,0.0,0.0,0.0,0.0,0.0,0.0,0.0,0.0,0.0,0.0,0.0,0.0,0.0,0.0,0.0,0.0,0.0,0.0,0.0,0.0,0.0,0.0,0.0,0.0,0.0,0.0,0.0,0.0,0.0,0.0,0.0,0.0,0.0,0.0,0.0,0.0,0.0,0.0,0.0,0.0,0.0,0.0,0.0,0.0,0.0,0.0,0.0,0.0,0.0,0.0,0.0,0.0,0.0,0.0,0.0,0.0,0.0,0.0,0.0,0.0,0.0,0.0,0.0,0.0,0.0,0.0,0.0,0.0,0.0,0.0,0.0,0.0,0.0,0.0,0.0,0.0,0.0,0.0,0.0,0.0,0.0,0.0,0.0,0.0,0.0,0.0,0.0,0.0,0.0,0.0,0.0,0.0,0.0,0.0,0.0,0.0,0.0,0.0,0.0,0.0,0.0,0.0,0.0,0.0,0.0,0.0,0.0,0.0,0.0,0.0,0.0,0.0,0.0,0.0,0.0,0.0,0.0,0.0,0.0,0.0,0.0,0.0,0.0,0.0,0.0,0.0,0.0,0.0,0.0,0.0,0.0,0.0,0.0,0.0,0.0,0.0,0.0,0.0,0.0,0.0,0.0,0.0,0.0,0.0,0.0,0.0,0.0,0.0,0.0,0.0,0.0,0.0,0.0,0.0,0.0,0.0,0.0,0.0,0.0,0.0,0.0,0.0,0.0,0.0,0.0,0.0,0.0,0.0,0.0,0.0,0.0,0.0,0.0,0.0,0.0,0.0,0.0,0.0,0.0,0.0,0.0,0.0,0.0,0.0,0.0,0.0,0.0,0.0,0.0,0.0,0.0,0.0,0.0,0.0,0.0,0.0,0.0,0.0,0.0,0.0,0.0,0.0,0.0,0.0,0.0,0.0,0.0,0.0,0.0,0.0,0.0,0.0,0.0,0.0,0.0,0.0,0.0,0.0,0.0,0.0,0.0,0.0,0.0,0.0,0.0,0.0,0.0,0.0,0.0,0.0,0.0,0.0,0.0,0.0,0.0,0.0,0.0,0.0,0.0,0.0,0.0,0.0,0.0,0.0,0.0,0.0,0.0,0.0,0.0,0.0,0.0,0.0,0.0,0.0,0.0,0.0,0.0,0.0,0.0,0.0,0.0,0.0,0.0,0.0,0.0,0.0,0.0,0.0,0.0,0.0,0.0,0.0,0.0,0.0,0.0,0.0,0.0,0.0,0.0,0.0,0.0,0.0,0.0,0.0,0.0,0.0,0.0,0.0,0.0,0.0,0.0,0.0,0.0,0.0,0.0,0.0,0.0,0.0,0.0,0.0,0.0,0.0,0.0,0.0,0.0,0.0,0.0,0.0,0.0,0.0,0.0,0.0,0.0,0.0,0.0,0.0,0.0,0.0,0.0,0.0,0.0,0.0,0.0,0.0,0.0,0.0,0.0,0.0,0.0,0.0,0.0,0.0,0.0,0.0,0.0,0.0,0.0,0.0,0.0,0.0,0.0,0.0,0.0,0.0,0.0,0.0,0.0,0.0,0.0,0.0,0.0,0.0,0.0,0.0,0.0,0.0,0.0,0.0,0.0,0.0,0.0,0.0,0.0,0.0,0.0,0.0,0.0,0.0,0.0,0.0,0.0,0.0,0.0,0.0,0.0,0.0,0.0,0.0,0.0,0.0,0.0,0.0,0.0,0.0,0.0,0.0,0.0,0.0,0.0,0.0,0.0,0.0,0.0,0.0,0.0,0.0,0.0,0.0,0.0,0.0,0.0,0.0,0.0,0.0,0.0,0.0,0.0,0.0,0.0,0.0,0.0,0.0,0.0,0.0,0.0,0.0,0.0,0.0,0.0,0.0,0.0,0.0,0.0,0.0,0.0,0.0,0.0,0.0,0.0,0.0,0.0,0.0,0.0,0.0,0.0,0.0,0.0,0.0,0.0,0.0,0.0,0.0,0.0,0.0,0.0,0.0,0.0,0.0,0.0,0.0,0.0,0.0,0.0,0.0,0.0,0.0,0.0,0.0,0.0,0.0,0.0,0.0,0.0,0.0,0.0,0.0,0.0,0.0,0.0,0.0,0.0,0.0,0.0,0.0,0.0,0.0,0.0,0.0,0.0,0.0,0.0,0.0,0.0,0.0,0.0,0.0,0.0,0.0,0.0,0.0,0.0,0.0,0.0,0.0,0.0,0.0,0.0,0.0,0.0,0.0,0.0,0.0,0.0,0.0,0.0,0.0,0.0,0.0,0.0,0.0,0.0,0.0,0.0,0.0,0.0,0.0,0.0,0.0,0.0,0.0,0.0,0.0,0.0,0.0,0.0,0.0,0.0,0.0,0.0,0.0,0.0,0.0,0.0,0.0,0.0,0.0,0.0,0.0,0.0,0.0,0.0,0.0,0.0,0.0,0.0,0.0,0.0,0.0,0.0,0.0,0.0,0.0,0.0,0.0,0.0,0.0,0.0,0.0,0.0,0.0,0.0,0.0,0.0,0.0,0.0,0.0,0.0,0.0,0.0,0.0,0.0,0.0,0.0,0.0,0.0,0.0,0.0,0.0,0.0,0.0,0.0,0.0,0.0,0.0,0.0,0.0,0.0,0.0,0.0,0.0,0.0,0.0,0.0,0.0,0.0,0.0,0.0,0.0,0.0,0.0,0.0,0.0,0.0,0.0,0.0,0.0,0.0,0.0,0.0,0.0,0.0,0.0,0.0,0.0,0.0,0.0,0.0,0.0,0.0,0.0,0.0,0.0,0.0,0.0,0.0,0.0,0.0,0.0,0.0,0.0,0.0,0.0,0.0,0.0,0.0,0.0,0.0,0.0,0.0,0.0,0.0,0.0,0.0,0.0,0.0,0.0,0.0,0.0,0.0,0.0,0.0,0.0,0.0,0.0,0.0,0.0,0.0,0.0,0.0,0.0,0.0,0.0,0.0,0.0,0.0,0.0,0.0,0.0,0.0,0.0,0.0,0.0,0.0,0.0,0.0,0.0,0.0,0.0,0.0,0.0,0.0,0.0,0.0,0.0,0.0,0.0,0.0,0.0,0.0,0.0,0.0,0.0,0.0,0.0,0.0,0.0,0.0,0.0,0.0,0.0,0.0,0.0,0.0,0.0,0.0,0.0,0.0,0.0,0.0,0.0,0.0,0.0,0.0,0.0,0.0,0.0,0.0,0.0,0.0,0.0,0.0,0.0,0.0,0.0,0.0,0.0,0.0,0.0,0.0,0.0,0.0,0.0,0.0,0.0,0.0,0.0,0.0,0.0,0.0,0.0,0.0,0.0,0.0,0.0,0.0,0.0,0.0,0.0,0.0,0.0,0.0,0.0,0.0,0.0,0.0,0.0,0.0,0.0,0.0,0.0,0.0,0.0,0.0,0.0,0.0,0.0,0.0,0.0,0.0,0.0,0.0,0.0,0.0,0.0,0.0,0.0,0.0,0.0,0.0,0.0,0.0,0.0,0.0,0.0,0.0,0.0,0.0,0.0,0.0,0.0,0.0,0.0,0.0,0.0,0.0,0.0,0.0,0.0,0.0,0.0,0.0,0.0,0.0,0.0,0.0,0.0,0.0,0.0,0.0,0.0,0.0,0.0,0.0,0.0,0.0,0.0,0.0,0.0,0.0,0.0,0.0,0.0,0.0,0.0,0.0,0.0,0.0,0.0,0.0,0.0,0.0,0.0,0.0,0.0,0.0,0.0,0.0,0.0,0.0,0.0,0.0,0.0,0.0,0.0,0.0,0.0,0.0,0.0,0.0,0.0,0.0,0.0,0.0,0.0,0.0,0.0,0.0,0.0,0.0,0.0,0.0,0.0,0.0,0.0,0.0,0.0,0.0,0.0,0.0,0.0,0.0,0.0,0.0,0.0,0.0,0.0,0.0,0.0,0.0,0.0,0.0,0.0,0.0,0.0,0.0,0.0,0.0,0.0,0.0,0.0,0.0,0.0,0.0,0.0,0.0,0.0,0.0,0.0,0.0,0.0,0.0,0.0,0.0,0.0,0.0,0.0,0.0,0.0,0.0,0.0,0.0,0.0,0.0,0.0,0.0,0.0,0.0,0.0,0.0,0.0,0.0,0.0,0.0,0.0,0.0,0.0,0.0,0.0,0.0,0.0,0.0,0.0,0.0,0.0,0.0,0.0,0.0,0.0,0.0,0.0,0.0,0.0,0.0,0.0,0.0,0.0,0.0,0.0,0.0,0.0,0.0,0.0,0.0,0.0,0.0,0.0,0.0,0.0,0.0,0.0,0.0,0.0,0.0,0.0,0.0,0.0,0.0,0.0,0.0,0.0,0.0,0.0,0.0,0.0,0.0,0.0,0.0,0.0,0.0,0.0,0.0,0.0,0.0,0.0,0.0,0.0,0.0,0.0,0.0,0.0,0.0,0.0,0.0,0.0,0.0,0.0,0.0,0.0,0.0,0.0,0.0,0.0,0.0,0.0,0.0,0.0,0.0,0.0,0.0,0.0,0.0,0.0,0.0,0.0,0.0,0.0,0.0,0.0,0.0,0.0,0.0,0.0,0.0,0.0,0.0,0.0,0.0,0.0,0.0,0.0,0.0,0.0,0.0,0.0,0.0,0.0,0.0,0.0,0.0,0.0,0.0,0.0,0.0,0.0,0.0,0.0,0.0,0.0,0.0,0.0,0.0,0.0,0.0,0.0,0.0,0.0,0.0,0.0,0.0,0.0,0.0,0.0,0.0,0.0,0.0,0.0,0.0,0.0,0.0,0.0,0.0,0.0,0.0,0.0,0.0,0.0,0.0,0.0,0.0,0.0,0.0,0.0,0.0,0.0,0.0,0.0,0.0,0.0,0.0,0.0,0.0,0.0,0.0,0.0,0.0,0.0,0.0,0.0,0.0,0.0,0.0,0.0,0.0,0.0,0.0,0.0,0.0,0.0,0.0,0.0,0.0,0.0,0.0,0.0,0.0,0.0,0.0,0.0,0.0,0.0,0.0,0.0,0.0,0.0,0.0,0.0,0.0,0.0,0.0,0.0,0.0,0.0,0.0,0.0,0.0,0.0,0.0,0.0,0.0,0.0,0.0,0.0,0.0,0.0,0.0,0.0,0.0,0.0,0.0,0.0,0.0,0.0,0.0,0.0,0.0,0.0,0.0,0.0,0.0,0.0,0.0,0.0,0.0,0.0,0.0,0.0,0.0,0.0,0.0,0.0,0.0,0.0,0.0,0.0,0.0,0.0,0.0,0.0,0.0,0.0,0.0,0.0,0.0,0.0,0.0,0.0,0.0,0.0,0.0,0.0,0.0,0.0,0.0,0.0,0.0,0.0,0.0,0.0,0.0,0.0,0.0,0.0,0.0,0.0,0.0,0.0,0.0,0.0,0.0,0.0,0.0,0.0,0.0,0.0,0.0,0.0,0.0,0.0,0.0,0.0,0.0,0.0,0.0,0.0,0.0,0.0,0.0,0.0,0.0,0.0,0.0,0.0,0.0,0.0,0.0,0.0,0.0,0.0,0.0,0.0,0.0,0.0,0.0,0.0,0.0,0.0,0.0,0.0,0.0,0.0,0.0,0.0,0.0,0.0,0.0,0.0,0.0,0.0,0.0,0.0,0.0,0.0,0.0,0.0,0.0,0.0,0.0,0.0,0.0,0.0,0.0,0.0,0.0,0.0,0.0,0.0,0.0,0.0,0.0,0.0,0.0,0.0,0.0,0.0,0.0,0.0,0.0,0.0,0.0,0.0,0.0,0.0,0.0,0.0,0.0,0.0,0.0,0.0,0.0,0.0,0.0,0.0,0.0,0.0,0.0,0.0,0.0,0.0,0.0,0.0,0.0,0.0,0.0,0.0,0.0,0.0,0.0,0.0,0.0,0.0,0.0,0.0,0.0,0.0,0.0,0.0,0.0,0.0,0.0,0.0,0.0,0.0,0.0,0.0,0.0,0.0,0.0,0.0,0.0,0.0,0.0,0.0,0.0,0.0,0.0,0.0,0.0,0.0,0.0,0.0,0.0,0.0,0.0,0.0,0.0,0.0,0.0,0.0,0.0,0.0,0.0,0.0,0.0,0.0,0.0,0.0,0.0,0.0,0.0,0.0,0.0,0.0,0.0,0.0,0.0,0.0,0.0,0.0,0.0,0.0,0.0,0.0,0.0,0.0,0.0,0.0,0.0,0.0,0.0,0.0,0.0,0.0,0.0,0.0,0.0,0.0,0.0,0.0,0.0,0.0,0.0,0.0,0.0,0.0,0.0,0.0,0.0,0.0,0.0,0.0,0.0,0.0,0.0,0.0,0.0,0.0,0.0,0.0,0.0,0.0,0.0,0.0,0.0,0.0,0.0,0.0,0.0,0.0,0.0,0.0,0.0,0.0,0.0,0.0,0.0,0.0,0.0,0.0,0.0,0.0,0.0,0.0,0.0,0.0,0.0,0.0,0.0,0.0,0.0,0.0,0.0,0.0,0.0,0.0,0.0,0.0,0.0,0.0,0.0,0.0,0.0,0.0,0.0,0.0,0.0,0.0,0.0,0.0,0.0,0.0,0.0,0.0,0.0,0.0,0.0,0.0,0.0,0.0,0.0,0.0,0.0,0.0,0.0,0.0,0.0,0.0,0.0,0.0,0.0,0.0,0.0,0.0,0.0,0.0,0.0,0.0,0.0,0.0,0.0,0.0,0.0,0.0,0.0,0.0,0.0,0.0,0.0,0.0,0.0,0.0,0.0,0.0,0.0,0.0,0.0,0.0,0.0,0.0,0.0,0.0,0.0,0.0,0.0,0.0,0.0,0.0,0.0,0.0,0.0,0.0,0.0,0.0,0.0,0.0,0.0,0.0,0.0,0.0,0.0,0.0,0.0,0.0,0.0,0.0,0.0,0.0,0.0,0.0,0.0,0.0,0.0,0.0,0.0,0.0,0.0,0.0,0.0,0.0,0.0,0.0,0.0,0.0,0.0,0.0,0.0,0.0,0.0,0.0,0.0,0.0,0.0,0.0,0.0,0.0,0.0]}]]]